     2              OBSERVATION DATA    GPS                 RINEX VERSION / TYPE
teqc 2000Feb29 simon 20000627 22:53:20UTC                   PGM / RUN BY / DATE
                                                            COMMENT
L2: 1 -> 1; 150 -> 5; 250 -> 9                              COMMENT
L2: 1 -> 1; 150 -> 5; 250 -> 9                              COMMENT
L2: 1 -> 1; 150 -> 5; 250 -> 9                              COMMENT
L2: 1 -> 1; 150 -> 5; 250 -> 9                              COMMENT
L2: 1 -> 1; 150 -> 5; 250 -> 9                              COMMENT
Original Marker Name: GS17                                  COMMENT
Campaign Name: China Lake April 2000                        COMMENT
4-Character Station Name: GS17                              COMMENT
6-Character Antenna Code: ASHGD3                            COMMENT
Vertical Measurement Point: TGP                             COMMENT
Vertical Offset to Rinex Ref. Point: 0.0640                 COMMENT
Radial Measurement Point: RRP                               COMMENT
Radial Offset to Rinex Ref. Point: 0.0000                   COMMENT
Antenna Height from Field Measurement: 0.2520 m             COMMENT
Additional Antenna Identification Info.:                    COMMENT
The Whopper (700718AB)                                      COMMENT
Original XYZ: -2403228.0700 -4605387.2500 3689875.4800      COMMENT
New XYZ position is based on association with SCEC monument COMMENT
E1F4B5O1+0011. Position of that monument is believed to be  COMMENT
valid to within 1 m horizontally; vertical accuracy         COMMENT
should be no worse than 3-times this value.                 COMMENT
                                                            COMMENT
Revised Rinex header created by UCSD GPS archive for        COMMENT
GSAC on 14-Sep-2001 (2001:257) 19:59:07 GMT                 COMMENT
For assistance contact dagnew@ucsd.edu                      COMMENT
or anderson@python.ucsd.edu                                 COMMENT
                                                            COMMENT
GO17                                                        MARKER NAME
gs17                                                        MARKER NUMBER
___ US NATIONAL IMAGERY MAPPING AGENCY                      OBSERVER / AGENCY
489 ASHTECH Z-XII3 4J30                                     REC # / TYPE / VERS
110 ASHTECH GEODETIC III                                    ANT # / TYPE
 -2403216.4365 -4605389.7530  3689990.3122                  APPROX POSITION XYZ
        0.1880        0.0000        0.0000                  ANTENNA: DELTA H/E/N
     1     1     0                                          WAVELENGTH FACT L1/2
     7    L1    L2    C1    P1    P2    S1    S2            # / TYPES OF OBSERV
    30                                                      INTERVAL
  2000     4    27    15    26    0.000000                  TIME OF FIRST OBS
  2000     4    27    21    29   60.000000                  TIME OF LAST OBS
                                                            END OF HEADER
 00  4 27 15 26  0.0000000  0  8G27G 2G26G 4G 7G 8G 9G11
     17762.24953                  22644444.271
       204.000          74.000
     -5130.82459     -3500.87557  19933221.382    19933222.406    19933230.634
       238.000         204.000
     27534.23159     17424.93756  21532566.629    21532567.822    21532577.935
       230.000         185.000
    -45116.51453                  21334435.337
       222.000          74.000
    -11385.07859     -7799.85057  19080254.288    19080255.153    19080263.056
       230.000         200.000
     28581.36653                  21599795.702
       220.000          74.000
    -70095.46659    -41382.90256  21732946.382    21732947.403    21732956.504
       225.000         177.000
     10448.90453                  23511441.529
       216.000          74.000
 00  4 27 15 26 59.9990000  0  8G27G 2G26G 4G 7G 8G 9G11
    153778.43345                  23876834.706
       208.000         142.000
    -12989.82449     -9624.78547  21130896.798    21130896.854    21130905.141
       238.000         204.000
     80459.85849     58665.51246  22741808.925    22741809.411    22741819.199
       231.000         186.000
   -334260.10459   -239915.85356  22486034.437    22486035.308    22486046.592
       222.000         170.000
    -29139.68849    -21634.59947  20276046.496    20276046.506    20276054.341
       232.000         201.000
    210343.41659    152673.86156  22829270.239    22829270.617    22829282.126
       220.000         171.000
   -299286.07459   -219972.82146  22888503.085    22888503.393    22888513.112
       224.000         178.000
    132844.78759     90936.29055  24730270.285    24730270.707    24730281.776
       209.000         159.000
 00  4 27 15 27 29.9990000  0  8G27G 2G26G 4G 7G 8G 9G11
    307889.41249    221984.24245  23893491.416    23893493.599    23893506.456
       205.000         141.000
    -16633.35749    -12463.91747  21130203.652    21130203.551    21130211.866
       238.000         204.000
    107514.35249     79746.85746  22746957.345    22746957.778    22746967.470
       231.000         186.000
   -459026.63949   -337136.47446  22462292.366    22462293.134    22462304.342
       222.000         170.000
    -37438.87049    -28101.48147  20274467.439    20274467.336    20274475.102
       232.000         202.000
    290314.75849    214989.05846  22844488.546    22844488.743    22844500.284
       218.000         170.000
   -413557.21549   -309015.17946  22866758.084    22866758.302    22866768.131
       224.000         178.000
    185050.18049    131615.79345  24740204.743    24740204.872    24740216.149
       213.000         162.000
 00  4 27 15 27 59.9990000  0  8G27G 2G26G 4G 7G 8G 9G11
    395503.08049    290254.38955  23910163.830    23910163.123    23910179.012
       203.000         141.000
    -20155.45149    -15208.42647  21129533.553    21129533.356    21129541.666
       238.000         204.000
    134889.25249    101077.86746  22752166.677    22752167.059    22752176.688
       230.000         186.000
   -583693.56049   -434279.44646  22438569.224    22438569.803    22438581.031
       223.000         171.000
    -45428.86949    -34327.45047  20272947.190    20272946.948    20272954.726
       231.000         201.000
    370418.64949    277407.51646  22859731.894    22859732.039    22859743.588
       218.000         169.000
   -527653.83549   -397921.56046  22845046.304    22845046.435    22845056.273
       225.000         178.000
    237549.24449    172524.13445  24750195.068    24750195.146    24750206.383
       218.000         162.000
 00  4 27 15 28 29.9990000  0  8G27G 2G26G 4G 7G 8G 9G11
    483119.53959    358526.64645  23926836.832    23926835.625    23926852.364
       196.000         138.000
    -23630.11149    -17916.01747  21128872.448    21128872.181    21128880.463
       238.000         204.000
    162513.38749    122603.07546  22757423.492    22757423.807    22757433.380
       230.000         185.000
   -708314.09749   -531386.27346  22414854.777    22414855.322    22414866.536
       223.000         172.000
    -53175.55949    -40363.82647  20271473.121    20271472.808    20271480.644
       232.000         201.000
    450579.82949    339870.61046  22874986.152    22874986.212    22874997.783
       218.000         169.000
   -641620.28949   -486726.51046  22823359.253    22823359.371    22823369.186
       224.000         178.000
    290253.74849    213592.56145  24760224.655    24760224.681    24760235.704
       218.000         160.000
 00  4 27 15 28 59.9990000  0  8G27G 2G26G 4G 7G 8G 9G11
    570749.04349    426809.03245  23943511.910    23943511.561    23943527.346
       203.000         144.000
    -27046.42749    -20578.13547  21128222.424    21128222.115    21128230.371
       238.000         204.000
    190406.93349    144338.22246  22762731.576    22762731.847    22762741.321
       230.000         184.000
   -832868.42249   -628441.50146  22391153.023    22391153.458    22391164.686
       224.000         173.000
    -60682.36549    -46213.28247  20270044.668    20270044.322    20270052.175
       231.000         201.000
    530801.55349    402380.85346  22890251.938    22890251.948    22890263.527
       219.000         169.000
   -755428.36849   -575408.05646  22801702.369    22801702.458    22801712.194
       225.000         178.000
    343172.68449    254828.09345  24770295.025    24770294.972    24770305.842
       219.000         158.000
 00  4 27 15 29 29.9990000  0  8G27G 2G26G 4G 7G 8G 9G11
    658371.49249    495085.98745  23960186.089    23960186.213    23960201.388
       200.000         138.000
    -30397.78649    -23189.61047  21127584.788    21127584.399    21127592.638
       238.000         204.000
    218549.12349    166267.11246  22768086.937    22768087.155    22768096.598
       230.000         183.000
   -957339.60549   -725431.96146  22367467.012    22367467.394    22367478.563
       224.000         174.000
    -67973.86949    -51894.95847  20268657.196    20268656.809    20268664.693
       232.000         201.000
    611078.58249    464934.15746  22905528.495    22905528.262    22905539.783
       219.000         167.000
   -869085.07049   -663971.65246  22780074.293    22780074.327    22780084.026
       225.000         179.000
    396283.95849    296213.50445  24780401.907    24780401.794    24780412.693
       216.000         154.000
 00  4 27 15 29 59.9990000  0  8G27G 2G26G 4G 7G 8G 9G11
    745973.47649    563346.93845  23976856.648    23976856.500    23976871.683
       197.000         137.000
    -33702.61549    -25764.82547  21126956.046    21126955.578    21126963.772
       239.000         204.000
    246915.44349    188370.66146  22773485.027    22773485.178    22773494.497
       229.000         183.000
  -1081727.75149   -822357.68646  22343796.741    22343797.087    22343808.254
       225.000         174.000
    -75068.25249    -57423.03547  20267307.226    20267306.810    20267314.667
       232.000         201.000
    691392.71749    527516.39146  22920812.017    22920811.653    22920823.074
       219.000         167.000
   -982631.14049   -752449.04546  22758467.339    22758467.236    22758476.894
       226.000         179.000
    449550.46049    337719.86845  24790538.272    24790538.148    24790549.024
       213.000         154.000
 00  4 27 15 30 29.9990000  0  8G27G 2G26G 4G 7G 8G 9G11
    833555.57749    631592.36345  23993523.337    23993523.066    23993538.309
       204.000         139.000
    -36970.82149    -28311.49947  21126334.193    21126333.687    21126341.875
       239.000         203.000
    275499.26449    210643.68246  22778924.399    22778924.503    22778933.874
       229.000         183.000
  -1206046.87449   -919229.60546  22320139.487    22320139.892    22320151.139
       224.000         174.000
    -81955.09449    -62789.41547  20265996.786    20265996.328    20266004.141
       232.000         201.000
    771734.32349    590120.02246  22936100.707    22936100.251    22936111.637
       218.000         167.000
  -1096081.80249   -840852.08746  22736878.426    22736878.262    22736887.926
       225.000         177.000
    502970.89849    379346.19845  24800703.947    24800703.710    24800714.633
       208.000         151.000
 00  4 27 15 30 59.9990000  0  8G27G 2G26G 4G 7G 8G 9G11
    921115.01649    699820.23745  24010185.702    24010185.318    24010200.538
       201.000         143.000
    -40207.63049    -30833.74047  21125718.308    21125717.781    21125725.961
       238.000         204.000
    304266.54749    233059.65346  22784398.547    22784398.714    22784408.168
       228.000         181.000
  -1330326.24349  -1016070.53446  22296489.909    22296490.276    22296501.537
       225.000         175.000
    -88639.87849    -67998.32047  20264724.724    20264724.258    20264732.066
       231.000         201.000
    852098.09549    652740.90446  22951393.589    22951393.063    22951404.442
       216.000         167.000
  -1209457.14449   -929196.43246  22715303.829    22715303.623    22715313.289
       226.000         179.000
    556544.39249    421091.71945  24810898.629    24810898.430    24810909.376
       206.000         151.000
 00  4 27 15 31 29.9990000  0  8G27G 2G26G 4G 7G 8G 9G11
   1008649.46749    768028.55645  24026843.076    24026842.657    24026858.058
       203.000         141.000
    -43427.08749    -33342.46347  21125105.773    21125105.206    21125113.380
       238.000         204.000
    333194.51249    255600.82446  22789903.329    22789903.520    22789913.037
       228.000         183.000
  -1454570.47349  -1112884.04846  22272847.008    22272847.354    22272858.644
       224.000         175.000
    -95112.22549    -73041.69447  20263493.060    20263492.603    20263500.454
       231.000         201.000
    932491.03349    715384.54146  22966691.997    22966691.438    22966702.866
       217.000         165.000
  -1322763.45649  -1017487.00246  22693742.310    22693742.117    22693751.782
       226.000         180.000
    610269.55849    462955.49245  24821122.198    24821122.008    24821132.947
       209.000         154.000
 00  4 27 15 31 59.9990000  0  8G27G 2G26G 4G 7G 8G 9G11
   1096135.95749    836199.55745  24043491.400    24043490.981    24043506.433
       197.000         137.000
    -46664.30749    -35865.00247  21124489.823    21124489.250    21124497.425
       239.000         204.000
    362263.40249    278251.81946  22795435.038    22795435.212    22795444.805
       228.000         184.000
  -1578814.23849  -1209697.18546  22249204.171    22249204.531    22249215.816
       225.000         176.000
   -101393.49649    -77936.16147  20262297.761    20262297.316    20262305.214
       231.000         201.000
   1012884.69049    778028.71746  22981990.524    22981989.946    22982001.494
       214.000         166.000
  -1436014.89949  -1105734.81246  22672191.239    22672191.069    22672200.706
       225.000         179.000
    664126.78349    504922.16945  24831370.687    24831370.628    24831381.686
       210.000         156.000
 00  4 27 15 32 29.9990000  0  8G27G 2G26G 4G 7G 8G 9G11
   1183525.54149    904294.98845  24060121.473    24060120.817    24060136.437
       202.000         144.000
    -49967.57549    -38439.01547  21123861.312    21123860.712    21123868.915
       239.000         204.000
    391422.35549    300972.98746  22800983.981    22800984.063    22800993.685
       229.000         183.000
  -1703125.34449  -1306562.76046  22225548.471    22225548.859    22225560.146
       224.000         174.000
   -107545.03349    -82729.54447  20261127.249    20261126.747    20261134.659
       233.000         202.000
   1093246.06649    840647.74546  22997282.955    22997282.387    22997293.956
       218.000         167.000
  -1549248.75749  -1193968.91946  22650643.459    22650643.349    22650652.953
       226.000         180.000
    718073.03149    546958.19645  24841636.129    24841636.142    24841647.295
       211.000         158.000
 00  4 27 15 32 59.9990000  0  8G27G 2G26G 4G 7G 8G 9G11
   1270842.10349    972333.52245  24076737.513    24076736.851    24076752.447
       198.000         142.000
    -53305.51949    -41040.03947  21123226.188    21123225.573    21123233.822
       239.000         204.000
    420699.67749    323786.38346  22806555.355    22806555.434    22806565.107
       230.000         184.000
  -1827470.84449  -1403455.15846  22201886.148    22201886.628    22201897.886
       225.000         176.000
   -113565.14149    -87420.50847  20259981.775    20259981.212    20259989.094
       232.000         201.000
   1173619.05449    903275.80946  23012577.600    23012577.005    23012588.610
       216.000         165.000
  -1662441.44549  -1282170.93546  22629103.613    22629103.472    22629113.060
       227.000         181.000
    772123.14849    589075.15945  24851921.548    24851921.511    24851932.637
       215.000         161.000
 00  4 27 15 33 29.9990000  0  8G27G 2G26G 4G 7G 8G 9G11
   1358074.65249   1040306.55645  24093337.679    24093336.893    24093352.485
       200.000         137.000
    -56688.92249    -43676.48347  21122582.419    21122581.804    21122590.058
       239.000         205.000
    450105.99949    346700.30946  22812151.429    22812151.419    22812161.130
       229.000         184.000
  -1951840.14949  -1500366.10846  22178219.455    22178219.903    22178231.079
       226.000         176.000
   -119476.01049    -92026.35847  20258856.948    20258856.424    20258864.311
       232.000         201.000
   1253983.46349    965897.18546  23027870.682    23027870.007    23027881.608
       215.000         165.000
  -1775603.57449  -1370349.13946  22607569.498    22607569.419    22607578.962
       226.000         180.000
    826252.09449    631253.52345  24862221.998    24862221.919    24862232.991
       217.000         162.000
 00  4 27 15 33 59.9990000  0  7G27G 2G26G 4G 7G 8G 9
   1445230.72549   1108220.06645  24109923.323    24109922.267    24109937.937
       205.000         141.000
    -60100.37449    -46334.76547  21121933.306    21121932.687    21121940.953
       239.000         204.000
    479659.75049    369729.10446  22817775.522    22817775.422    22817785.170
       230.000         183.000
  -2076235.13449  -1597297.03846  22154547.805    22154548.292    22154559.404
       226.000         176.000
   -125286.98649    -96554.37147  20257751.124    20257750.598    20257758.504
       231.000         201.000
   1334331.36249   1028505.69746  23043160.503    23043159.901    23043171.472
       217.000         165.000
  -1888738.23749  -1458505.93546  22586040.606    22586040.559    22586050.109
       226.000         180.000
 00  4 27 15 34 29.9990000  0  7G27G 2G26G 4G 7G 8G 9
   1532344.27348   1176100.48845  24126500.623    24126499.680    24126515.430
       189.000         136.000
    -63487.28549    -48973.91447  21121288.821    21121288.223    21121296.515
       238.000         204.000
    509387.95149    392893.84546  22823432.717    22823432.612    22823442.392
       230.000         184.000
  -2200608.44549  -1694211.06646  22130880.240    22130880.755    22130891.847
       227.000         177.000
   -130968.42749   -100981.46047  20256669.941    20256669.453    20256677.332
       232.000         201.000
   1414692.34049   1091124.37346  23058452.933    23058452.256    23058463.781
       215.000         164.000
  -2001823.52749  -1546624.26046  22564521.144    22564521.127    22564530.597
       228.000         182.000
 00  4 27 15 34 59.9990000  0  7G27G 2G26G 4G 7G 8G 9
   1619408.85949   1243942.63845  24143068.533    24143067.616    24143083.566
       201.000         138.000
    -66830.38749    -51578.94047  21120652.707    21120652.093    21120660.418
       238.000         204.000
    539293.09149    416196.45746  22829123.584    22829123.477    22829133.259
       229.000         183.000
  -2324914.78749  -1791072.91846  22107225.469    22107225.974    22107237.029
       228.000         179.000
   -136498.04549   -105290.24747  20255617.734    20255617.230    20255625.071
       233.000         202.000
   1495049.17149   1153739.81845  23073744.599    23073743.824    23073755.303
       215.000         162.000
  -2114853.88949  -1634699.78746  22543012.123    22543012.134    22543021.531
       227.000         181.000
 00  4 27 15 35 29.9990000  0  7G27G 2G26G 4G 7G 8G 9
   1706428.49649   1311749.73145  24159627.975    24159627.192    24159643.100
       203.000         145.000
    -70131.28649    -54151.11947  21120024.615    21120023.992    21120032.329
       238.000         204.000
    569367.78549    439631.19446  22834846.650    22834846.562    22834856.391
       228.000         182.000
  -2449134.69049  -1887867.42846  22083587.089    22083587.623    22083598.661
       228.000         179.000
   -141853.96149   -109463.69847  20254598.584    20254598.070    20254605.858
       234.000         202.000
   1575390.87049   1216343.46046  23089033.349    23089032.489    23089044.053
       215.000         163.000
  -2227813.11949  -1722719.88646  22521516.695    22521516.675    22521526.005
       227.000         181.000
 00  4 27 15 35 59.9980000  0  7G27G 2G26G 4G 7G 8G 9
   1793426.86149   1379540.30245  24176183.626    24176182.770    24176198.589
       202.000         146.000
    -73349.81749    -56659.13847  21119412.215    21119411.575    21119419.921
       238.000         204.000
    599625.26449    463208.35446  22840604.548    22840604.449    22840614.301
       229.000         183.000
  -2573236.90449  -1984570.24746  22059971.130    22059971.623    22059982.681
       228.000         178.000
   -146991.23349   -113466.79047  20253621.110    20253620.539    20253628.280
       234.000         202.000
   1655756.47849   1278965.74246  23104326.553    23104325.727    23104337.347
       214.000         163.000
  -2340658.42849  -1810651.22746  22500042.882    22500042.928    22500052.184
       228.000         182.000
 00  4 27 15 36 29.9980000  0  7G27G 2G26G 4G 7G 8G 9
   1880408.33449   1447317.82245  24192736.066    24192734.975    24192750.922
       196.000         137.000
    -76490.74149    -59106.65747  21118814.589    21118813.949    21118822.293
       238.000         204.000
    630067.79449    486929.70246  22846397.600    22846397.527    22846407.401
       227.000         181.000
  -2697204.87149  -2081168.48746  22036380.617    22036381.184    22036392.218
       228.000         179.000
   -151885.26249   -117280.32147  20252689.884    20252689.286    20252696.997
       233.000         202.000
   1736170.38549   1341625.63845  23119629.064    23119628.174    23119639.848
       216.000         162.000
  -2453373.13249  -1898480.80746  22478593.940    22478593.994    22478603.157
       227.000         181.000
 00  4 27 15 36 59.9980000  0  7G27G 2G26G 4G 7G 8G 9
   1967373.42049   1515082.44045  24209285.359    24209284.162    24209300.175
       200.000         136.000
    -79579.32249    -61513.36547  21118226.965    21118226.287    21118234.626
       239.000         205.000
    660699.97049    510798.82846  22852226.708    22852226.706    22852236.596
       228.000         182.000
  -2821045.78849  -2177667.66946  22012814.310    22012814.917    22012825.928
       228.000         179.000
   -156533.76249   -120902.53847  20251805.344    20251804.726    20251812.438
       234.000         202.000
   1816640.10649   1404329.03345  23134942.236    23134941.287    23134952.964
       214.000         162.000
  -2565929.00649  -1986186.60946  22457175.202    22457175.293    22457184.427
       228.000         182.000
 00  4 27 15 37 29.9980000  0  7G27G 2G26G 4G 7G 8G 9
   2054327.33349   1582838.36445  24225832.209    24225831.106    24225847.422
       203.000         140.000
    -82602.22949    -63868.90847  21117651.806    21117651.111    21117659.455
       239.000         205.000
    691542.01949    534831.48846  22858095.813    22858095.840    22858105.748
       227.000         182.000
  -2944781.96049  -2274085.22246  21989267.987    21989268.588    21989279.573
       228.000         180.000
   -160946.09249   -124340.72447  20250965.697    20250965.094    20250972.836
       232.000         202.000
   1897201.45249   1467103.82446  23150272.872    23150271.868    23150283.547
       214.000         164.000
  -2678302.07749  -2073749.98746  22435791.159    22435791.347    22435800.448
       229.000         182.000
 00  4 27 15 37 59.9980000  0  7G27G 2G26G 4G 7G 8G 9
   2141247.02249   1650567.61645  24242372.847    24242371.622    24242388.046
       210.000         156.000
    -85558.03649    -66172.16147  21117089.412    21117088.708    21117097.058
       239.000         204.000
    722592.45349    559026.53646  22864004.631    22864004.639    22864014.562
       227.000         181.000
  -3068430.79549  -2370434.75446  21965738.289    21965738.863    21965749.829
       229.000         180.000
   -165145.54849   -127613.04647  20250166.532    20250165.940    20250173.729
       233.000         202.000
   1977845.32949   1529942.87646  23165619.107    23165618.087    23165629.812
       215.000         164.000
  -2790507.80649  -2161182.96646  22414439.107    22414439.279    22414448.345
       227.000         182.000
 00  4 27 15 38 29.9980000  0  7G27G 2G26G 4G 7G 8G 9
   2228140.01949   1718276.07545  24258908.572    24258907.152    24258923.517
       205.000         148.000
    -88443.38449    -68420.50647  21116540.397    21116539.691    21116548.072
       239.000         204.000
    753871.15749    583399.45046  22869956.834    22869956.839    22869966.807
       226.000         180.000
  -3191967.27449  -2466696.73346  21942229.912    21942230.529    21942241.445
       228.000         180.000
   -169132.76249   -130719.97747  20249407.814    20249407.212    20249415.029
       234.000         203.000
   2058576.16149   1592849.67846  23180982.015    23180980.926    23180992.656
       216.000         163.000
  -2902527.58249  -2248471.03246  22393122.379    22393122.596    22393131.651
       228.000         183.000
 00  4 27 15 38 59.9980000  0  7G27G 2G26G 4G 7G 8G 9
   2314995.40449   1785955.24645  24275437.067    24275435.534    24275451.831
       196.000         136.000
    -91245.66149    -70604.13247  21116007.145    21116006.468    21116014.856
       238.000         204.000
    785364.59849    607939.69546  22875949.932    22875949.938    22875959.922
       227.000         180.000
  -3315406.64449  -2562883.02746  21918740.018    21918740.656    21918751.542
       228.000         181.000
   -172937.48349   -133684.70947  20248683.839    20248683.241    20248691.050
       234.000         204.000
   2139375.30549   1655809.74546  23196357.838    23196356.723    23196368.524
       216.000         164.000
  -3014376.62249  -2335626.05946  22371838.248    22371838.385    22371847.432
       229.000         183.000
 00  4 27 15 39 29.9980000  0  7G27G 2G26G 4G 7G 8G 9
   2401800.84249   1853595.51045  24291955.816    24291954.351    24291970.601
       199.000         138.000
    -93956.27549    -72716.31347  21115491.333    21115490.683    21115499.078
       239.000         204.000
    817060.05449    632637.35646  22881981.475    22881981.488    22881991.467
       226.000         179.000
  -3438735.00949  -2658982.87146  21895271.288    21895271.921    21895282.771
       228.000         182.000
   -176556.62449   -136504.84047  20247995.223    20247994.612    20248002.368
       234.000         204.000
   2220213.82249   1718800.48646  23211741.154    23211740.060    23211751.885
       217.000         164.000
  -3126077.17349  -2422665.37646  22350582.319    22350582.403    22350591.476
       228.000         182.000
 00  4 27 15 39 59.9980000  0  7G27G 2G26G 4G 7G 8G 9
   2488577.22749   1921212.99945  24308469.008    24308467.602    24308484.023
       209.000         149.000
    -96595.12049    -74772.54347  21114989.187    21114988.545    21114996.954
       239.000         204.000
    848942.07749    657480.39846  22888048.593    22888048.554    22888058.457
       228.000         180.000
  -3561926.67449  -2754976.19346  21871828.508    21871829.187    21871840.018
       229.000         181.000
   -179969.00149   -139163.86847  20247346.000    20247345.341    20247353.016
       235.000         203.000
   2301062.11849   1781798.87746  23227126.441    23227125.264    23227137.118
       214.000         164.000
  -3237626.62249  -2509586.96046  22329355.204    22329355.250    22329364.282
       230.000         184.000
 00  4 27 15 40 29.9980000  0  7G27G 2G26G 4G 7G 8G 9
   2575334.76649   1988815.96945  24324978.776    24324977.350    24324993.651
       207.000         152.000
    -99164.97949    -76775.04947  21114500.190    21114499.553    21114507.964
       238.000         204.000
    881007.40949    682466.26146  22894150.619    22894150.502    22894160.345
       228.000         181.000
  -3684975.71249  -2850858.39546  21848412.882    21848413.600    21848424.417
       229.000         181.000
   -183165.58749   -141654.73947  20246737.712    20246737.069    20246744.711
       234.000         202.000
   2381923.03849   1844807.05946  23242514.068    23242512.869    23242524.762
       217.000         164.000
  -3349009.71749  -2596378.91346  22308159.768    22308159.745    22308168.763
       230.000         185.000
 00  4 27 15 40 59.9980000  0  8G27G 2G26G 4G24G 7G 8G 9
   2662074.77549   2056405.20045  24341484.995    24341483.712    24341500.140
       200.000         149.000
   -101655.97449    -78716.11347  21114026.219    21114025.580    21114033.976
       239.000         205.000
    913253.39949    707592.91446  22900287.005    22900286.864    22900296.667
       227.000         180.000
  -3807880.36449  -2946628.08246  21825024.820    21825025.516    21825036.273
       230.000         182.000
   -946774.03559   -381878.07755  24511195.834    24511195.231    24511214.519
       204.000         141.000
   -186144.33949   -143975.86647  20246170.867    20246170.215    20246177.887
       234.000         202.000
   2462791.29149   1907820.99446  23257903.052    23257901.831    23257913.791
       217.000         163.000
  -3460224.65049  -2683039.82746  22286996.343    22286996.260    22287005.230
       231.000         185.000
 00  4 27 15 41 29.9980000  0  8G27G 2G26G 4G24G 7G 8G 9
   2748797.72649   2123981.10345  24357987.895    24357986.676    24358003.290
       197.000         141.000
   -104074.16449    -80600.47047  21113566.115    21113565.459    21113573.844
       239.000         205.000
    945675.19249    732856.55146  22906456.799    22906456.639    22906466.483
       227.000         180.000
  -3930628.24349  -3042275.63646  21801666.656    21801667.269    21801677.953
       229.000         182.000
  -1083592.29759   -488489.51155  24485160.211    24485159.484    24485177.598
       209.000         143.000
   -188896.69949   -146120.58647  20245647.031    20245646.447    20245654.160
       232.000         203.000
   2543665.92349   1970839.91245  23273293.191    23273291.977    23273303.975
       214.000         160.000
  -3571261.00949  -2769561.60046  22265866.857    22265866.748    22265875.676
       230.000         185.000
 00  4 27 15 41 59.9980000  0  8G27G 2G26G 4G24G 7G 8G 9
   2835491.38749   2191534.27145  24374485.539    24374484.115    24374500.895
       200.000         135.000
   -106416.06249    -82425.39647  21113120.551    21113119.874    21113128.240
       239.000         204.000
    978269.84549    758254.88446  22912659.367    22912659.264    22912669.199
       225.000         179.000
  -4053220.03849  -3137801.55746  21778338.128    21778338.721    21778349.328
       230.000         182.000
  -1220615.81649   -595260.84045  24459085.447    24459084.742    24459102.574
       207.000         144.000
   -191448.68049   -148109.16047  20245161.404    20245160.840    20245168.585
       233.000         204.000
   2624553.49849   2033868.85945  23288685.829    23288684.598    23288696.637
       215.000         161.000
  -3682115.00749  -2855941.26646  22244771.950    22244771.913    22244780.795
       230.000         185.000
 00  4 27 15 42 29.9980000  0  8G27G 2G26G 4G24G 7G 8G 9
   2922134.69449   2259048.25245  24390973.466    24390972.003    24390988.883
       201.000         139.000
   -108656.02749    -84170.87947  21112694.357    21112693.670    21112702.059
       239.000         205.000
   1011038.08949    783788.46646  22918894.911    22918894.871    22918904.918
       225.000         179.000
  -4175662.32649  -3233210.99146  21755037.985    21755038.612    21755049.163
       231.000         183.000
  -1357842.64149   -702190.56245  24432971.957    24432971.457    24432989.250
       206.000         146.000
   -193816.41149   -149954.16247  20244710.908    20244710.309    20244718.081
       235.000         205.000
   2705464.49849   2096916.08245  23304082.888    23304081.662    23304093.735
       215.000         159.000
  -3792791.96149  -2942182.97946  22223710.800    22223710.751    22223719.622
       230.000         184.000
 00  4 27 15 42 59.9980000  0  8G27G 2G26G 4G24G 7G 8G 9
   3008718.09649   2326515.52845  24407449.846    24407448.554    24407465.590
       205.000         144.000
   -110792.32749    -85835.56447  21112287.864    21112287.186    21112295.599
       239.000         205.000
   1043968.21549    809448.20346  22925161.340    22925161.322    22925171.395
       225.000         179.000
  -4297957.84149  -3328506.05846  21731765.729    21731766.410    21731776.936
       231.000         183.000
  -1495278.10749   -809282.82345  24406818.730    24406818.277    24406836.217
       207.000         146.000
   -196001.88349   -151657.14447  20244295.074    20244294.485    20244302.259
       236.000         206.000
   2786394.30749   2159977.96145  23319483.497    23319482.346    23319494.501
       215.000         159.000
  -3903291.93549  -3028286.78846  22202683.330    22202683.269    22202692.108
       230.000         184.000
 00  4 27 15 43 29.9980000  0  8G27G 2G26G 4G24G 7G 8G 9
   3095232.60249   2393929.14945  24423913.265    24423911.977    24423929.093
       202.000         145.000
   -112833.76849    -87426.33047  21111899.439    21111898.754    21111907.184
       239.000         204.000
   1077043.40049    835220.98946  22931455.553    22931455.447    22931465.443
       226.000         178.000
  -4420116.66649  -3423694.62346  21708519.572    21708520.243    21708530.717
       231.000         183.000
  -1632921.37249   -916537.01545  24380625.889    24380625.637    24380643.498
       206.000         146.000
   -198002.80749   -153216.33147  20243914.409    20243913.771    20243921.555
       235.000         205.000
   2867339.49149   2223051.81245  23334887.102    23334885.920    23334898.127
       215.000         159.000
  -4013623.26349  -3114259.18246  22181687.948    22181687.890    22181696.682
       230.000         184.000
 00  4 27 15 43 59.9980000  0  8G27G 2G26G 4G24G 7G 8G 9
   3181695.48349   2461302.45245  24440366.824    24440365.498    24440382.820
       196.000         146.000
   -114765.60749    -88931.67847  21111531.872    21111531.186    21111539.624
       239.000         204.000
   1110289.50449    861126.93946  22937782.243    22937782.108    22937792.037
       226.000         179.000
  -4542119.90849  -3518761.97146  21685303.006    21685303.695    21685314.116
       230.000         183.000
  -1770747.34049  -1023933.53745  24354398.387    24354398.134    24354415.988
       207.000         148.000
   -199802.24249   -154618.48647  20243572.056    20243571.398    20243579.182
       235.000         204.000
   2948324.08249   2286156.37245  23350298.155    23350297.021    23350309.294
       215.000         158.000
  -4123764.48849  -3200083.45146  22160728.720    22160728.681    22160737.429
       230.000         184.000
 00  4 27 15 44 29.9980000  0  7G 2G26G 4G24G 7G 8G 9
   -116588.79949    -90352.40947  21111184.962    21111184.279    21111192.715
       239.000         204.000
   1143706.65049    887166.17846  22944141.500    22944141.309    22944151.222
       227.000         178.000
  -4663965.93049  -3613706.80446  21662116.405    21662117.078    21662127.462
       231.000         184.000
  -1908760.21249  -1131475.70745  24328135.376    24328135.107    24328152.971
       207.000         144.000
   -201382.18149   -155849.62947  20243271.386    20243270.745    20243278.561
       234.000         204.000
   3029360.15149   2349301.00645  23365718.980    23365717.866    23365730.241
       215.000         156.000
  -4233706.28849  -3285752.33546  22139807.490    22139807.425    22139816.140
       230.000         185.000
 00  4 27 15 44 59.9980000  0  7G 2G26G 4G24G 7G 8G 9
   -118350.74249    -91725.41547  21110849.756    21110849.069    21110857.488
       239.000         205.000
   1177274.85149    913323.11846  22950529.429    22950529.191    22950539.182
       225.000         179.000
  -4785662.30649  -3708535.02046  21638958.273    21638958.916    21638969.273
       231.000         185.000
  -2046992.90049  -1239189.16845  24301830.434    24301830.225    24301848.091
       206.000         145.000
   -202780.33049   -156939.11447  20243005.293    20243004.675    20243012.492
       234.000         203.000
   3110425.11349   2412468.15245  23381145.340    23381144.202    23381156.624
       214.000         157.000
  -4343473.82749  -3371285.43546  22118919.318    22118919.333    22118928.005
       230.000         185.000
 00  4 27 15 45 29.9980000  0  7G 2G26G 4G24G 7G 8G 9
   -120058.11149    -93055.88347  21110524.940    21110524.229    21110532.622
       239.000         204.000
   1211002.13549    939604.02046  22956947.566    22956947.344    22956957.446
       226.000         177.000
  -4907186.87349  -3803229.36846  21615832.792    21615833.431    21615843.783
       230.000         185.000
  -2185449.58049  -1347077.15245  24275482.804    24275482.741    24275500.569
       208.000         145.000
   -204006.14949   -157894.29447  20242772.009    20242771.400    20242779.222
       235.000         203.000
   3191511.88149   2475652.28245  23396575.998    23396574.798    23396587.204
       213.000         155.000
  -4453071.21349  -3456685.94046  22098063.570    22098063.608    22098072.264
       230.000         187.000
 00  4 27 15 45 59.9980000  0  7G 2G26G 4G24G 7G 8G 9
   -121706.13849    -94340.10747  21110211.420    21110210.686    21110219.051
       239.000         204.000
   1244897.76249    966016.09646  22963397.751    22963397.582    22963407.691
       226.000         177.000
  -5028528.08249  -3897780.87146  21592742.255    21592742.874    21592753.187
       231.000         185.000
  -2324122.41249  -1455133.61245  24249094.101    24249094.063    24249111.875
       206.000         145.000
   -205065.29849   -158719.63747  20242570.499    20242569.892    20242577.645
       236.000         204.000
   3272620.44349   2538853.39545  23412010.796    23412009.467    23412021.924
       214.000         155.000
  -4562490.94549  -3541948.02746  22077241.729    22077241.705    22077250.341
       231.000         187.000
 00  4 27 15 46 29.9980000  0  7G 2G26G 4G24G 7G 8G 9
   -123274.55449    -95562.30047  21109913.011    21109912.283    21109920.636
       239.000         204.000
   1278963.80449    992560.95346  22969880.291    22969880.198    22969890.356
       224.000         176.000
  -5149680.43049  -3992185.19346  21569687.688    21569688.279    21569698.530
       231.000         186.000
  -2462987.32049  -1563339.72245  24222668.653    24222668.798    24222686.635
       204.000         146.000
   -205943.59949   -159404.06047  20242403.396    20242402.789    20242410.499
       237.000         205.000
   3353748.97449   2602070.06445  23427449.365    23427447.972    23427460.470
       213.000         157.000
  -4671717.84149  -3627059.86846  22056456.561    22056456.514    22056465.124
       232.000         187.000
 00  4 27 15 46 59.9980000  0  7G 2G26G 4G24G 7G 8G 9
   -124734.13049    -96699.69747  21109635.327    21109634.597    21109642.932
       238.000         204.000
   1313206.96649   1019243.83246  22976396.549    22976396.518    22976406.717
       224.000         177.000
  -5270632.10049  -4086433.18246  21546671.307    21546671.861    21546682.052
       230.000         186.000
  -2602013.70849  -1671671.66245  24196212.435    24196212.735    24196230.696
       206.000         145.000
   -206617.24149   -159929.00847  20242275.324    20242274.684    20242282.341
       236.000         205.000
   3434902.61949   2665306.28745  23442892.544    23442891.236    23442903.844
       215.000         156.000
  -4780727.13549  -3712002.12547  22035712.777    22035712.713    22035721.329
       232.000         189.000
 00  4 27 15 47 29.9980000  0  7G 2G26G 4G24G 7G 8G 9
   -126065.53249    -97737.20147  21109382.057    21109381.309    21109389.629
       239.000         204.000
   1347616.65549   1046056.46946  22982944.553    22982944.491    22982954.760
       225.000         177.000
  -5391396.45349  -4180535.21046  21523690.610    21523691.134    21523701.237
       232.000         187.000
  -2741171.30849  -1780105.85345  24169731.447    24169731.750    24169749.735
       204.000         143.000
   -207058.73249   -160273.04947  20242191.358    20242190.712    20242198.383
       236.000         205.000
   3516075.99249   2728557.89345  23458339.534    23458338.271    23458350.987
       211.000         153.000
  -4889507.13549  -3796765.70747  22015012.672    22015012.547    22015021.173
       233.000         190.000
 00  4 27 15 47 59.9980000  0  7G 2G26G 4G24G 7G 8G 9
   -127286.85149    -98688.91847  21109149.712    21109148.966    21109157.287
       239.000         204.000
   1382155.76049   1072969.94746  22989517.172    22989517.148    22989527.443
       224.000         176.000
  -5512014.54049  -4274523.24146  21500737.724    21500738.220    21500748.282
       232.000         187.000
  -2880464.64049  -1888645.85545  24143224.696    24143224.931    24143242.876
       206.000         145.000
   -207288.29949   -160451.96347  20242147.657    20242147.035    20242154.780
       236.000         205.000
   3597251.82549   2791811.38645  23473787.147    23473785.809    23473798.617
       215.000         156.000
  -4998076.75449  -3881365.35247  21994352.524    21994352.410    21994361.053
       232.000         190.000
 00  4 27 15 48 29.9980000  0  7G 2G26G 4G24G 7G 8G 9
   -128378.44049    -99539.57047  21108942.012    21108941.305    21108949.615
       239.000         203.000
   1416850.97549   1100005.07046  22996119.573    22996119.526    22996129.827
       224.000         176.000
  -5632455.34749  -4368373.14446  21477818.590    21477819.052    21477829.053
       232.000         187.000
  -3019874.16049  -1997276.38845  24116695.663    24116696.022    24116713.849
       202.000         144.000
   -207283.06749   -160447.90247  20242148.657    20242148.025    20242155.867
       236.000         206.000
   3678457.46249   2855088.12645  23489240.421    23489239.093    23489251.966
       211.000         152.000
  -5106406.02549  -3965777.69747  21973738.020    21973738.002    21973746.677
       231.000         190.000
 00  4 27 15 48 59.9980000  0  7G 2G26G 4G24G 7G 8G 9
   -129340.41149   -100289.21547  21108759.014    21108758.290    21108766.625
       239.000         203.000
   1451710.02749   1127167.85346  23002753.188    23002753.093    23002763.420
       224.000         175.000
  -5752678.50149  -4462053.45746  21454940.893    21454941.310    21454951.220
       233.000         187.000
  -3159399.28549  -2105997.01145  24090144.599    24090145.057    24090162.891
       202.000         141.000
   -207036.82649   -160256.01647  20242195.464    20242194.894    20242202.807
       237.000         205.000
   3759705.87849   2918398.15645  23504701.901    23504700.452    23504713.438
       214.000         154.000
  -5214481.00349  -4049991.90047  21953171.984    21953171.971    21953180.703
       232.000         190.000
 00  4 27 15 49 29.9980000  0  7G 2G26G 4G24G 7G 8G 9
   -130211.14449   -100967.76347  21108593.370    21108592.642    21108600.981
       239.000         203.000
   1486722.66449   1154450.29646  23009415.979    23009415.867    23009426.212
       224.000         177.000
  -5872689.88749  -4555568.76046  21432103.477    21432103.858    21432113.684
       233.000         186.000
  -3299070.46649  -2214831.45345  24063565.746    24063566.304    24063584.035
       206.000         142.000
   -206588.69149   -159906.83847  20242280.740    20242280.191    20242288.078
       237.000         205.000
   3840975.30249   2981724.58145  23520167.306    23520165.867    23520178.927
       211.000         152.000
  -5322326.75249  -4134027.47647  21932649.595    21932649.561    21932658.331
       232.000         191.000
 00  4 27 15 49 59.9980000  0  7G 2G26G 4G24G 7G 8G 9
   -130956.56849   -101548.65847  21108451.607    21108450.851    21108459.193
       238.000         203.000
   1521929.82449   1181884.34046  23016115.743    23016115.636    23016126.036
       224.000         176.000
  -5992435.31249  -4648876.79546  21409316.616    21409317.007    21409326.788
       232.000         186.000
  -3438873.79349  -2323768.89845  24036962.083    24036962.395    24036980.113
       203.000         142.000
   -205913.91949   -159381.08347  20242409.275    20242408.657    20242416.455
       238.000         205.000
   3922299.95649   3045094.05245  23535643.154    23535641.720    23535654.939
       214.000         154.000
  -5429902.40349  -4217852.59147  21912178.558    21912178.547    21912187.357
       232.000         191.000
 00  4 27 15 50 29.9980000  0  7G 2G26G 4G24G 7G 8G 9
   -131576.85149   -102032.04747  21108333.656    21108332.887    21108341.198
       239.000         203.000
   1557328.37549   1209467.49846  23022851.933    23022851.849    23022862.246
       224.000         176.000
  -6111901.59249  -4741967.30646  21386582.870    21386583.272    21386593.004
       231.000         187.000
  -3578817.31849  -2432815.57045  24010331.729    24010331.832    24010349.500
       203.000         139.000
   -205016.69749   -158681.99647  20242580.134    20242579.465    20242587.153
       238.000         205.000
   4003674.24049   3108502.24245  23551128.406    23551127.047    23551140.410
       212.000         153.000
  -5537213.52849  -4301471.58947  21891757.882    21891757.875    21891766.688
       233.000         191.000
 00  4 27 15 50 59.9980000  0  7G 2G26G 4G24G 7G 8G 9
   -132053.48349   -102403.49447  21108242.997    21108242.254    21108250.553
       239.000         203.000
   1592901.00649   1237186.32346  23029621.334    23029621.210    23029631.646
       224.000         177.000
  -6231091.24149  -4834842.26446  21363901.761    21363902.159    21363911.876
       232.000         187.000
  -3718883.71349  -2541958.03245  23983677.976    23983678.036    23983695.588
       205.000         139.000
   -203895.70449   -157808.51547  20242793.494    20242792.825    20242800.426
       237.000         205.000
   4085098.18249   3171949.08945  23566622.848    23566621.707    23566635.350
       208.000         152.000
  -5644256.02949  -4384881.25247  21871388.323    21871388.309    21871397.137
       232.000         191.000
 00  4 27 15 51 29.9980000  0  7G 2G26G 4G24G 7G 8G 9
   -132386.83349   -102663.30847  21108179.588    21108178.863    21108187.177
       238.000         202.000
   1628644.48849   1265038.25746  23036423.146    23036423.019    23036433.536
       223.000         176.000
  -6350023.00249  -4927516.26247  21341269.748    21341270.132    21341279.817
       232.000         188.000
  -3859061.98649  -2651187.70545  23957002.797    23957002.920    23957020.253
       200.000         139.000
   -202560.17349   -156767.86647  20243047.661    20243047.007    20243054.596
       238.000         206.000
   4166566.87049   3235430.83345  23582125.988    23582124.970    23582138.712
       210.000         151.000
  -5751036.22149  -4468086.53147  21851068.586    21851068.654    21851077.486
       232.000         191.000
 00  4 27 15 51 59.9980000  0  7G 2G26G 4G24G 7G 8G 9
   -132564.88449   -102802.08347  21108145.717    21108145.016    21108153.351
       239.000         202.000
   1664543.55949   1293011.43546  23043254.632    23043254.470    23043265.051
       224.000         176.000
  -6468698.16749  -5019990.31047  21318686.552    21318686.929    21318696.632
       232.000         188.000
  -3999330.88149  -2760487.96445  23930310.279    23930310.540    23930327.730
       198.000         136.000
   -201010.67049   -155560.48947  20243342.495    20243341.878    20243349.493
       237.000         207.000
   4248076.23349   3298944.31445  23597636.940    23597635.876    23597649.782
       210.000         147.000
  -5857549.77249  -4551084.03647  21830799.667    21830799.732    21830808.574
       233.000         190.000
 00  4 27 15 52 29.9980000  0  7G 2G26G 4G24G 7G 8G 9
   -132595.01149   -102825.58347  21108139.959    21108139.297    21108147.663
       238.000         202.000
   1700584.40149   1321095.07346  23050113.051    23050112.901    23050123.531
       223.000         176.000
  -6587134.85849  -5112278.52347  21296148.799    21296149.134    21296158.816
       233.000         189.000
  -4139676.36249  -2869847.91845  23903603.333    23903603.645    23903620.542
       201.000         135.000
   -199264.33349   -154199.71647  20243674.815    20243674.210    20243681.901
       237.000         207.000
   4329620.31249   3362484.84545  23613154.624    23613153.490    23613167.470
       210.000         151.000
  -5963796.94049  -4633873.97847  21810581.433    21810581.509    21810590.360
       233.000         190.000
 00  4 27 15 52 59.9980000  0  7G 2G26G 4G24G 7G 8G 9
   -132499.59149   -102751.27247  21108158.152    21108157.477    21108165.877
       238.000         202.000
   1736753.21749   1349278.45146  23056995.957    23056995.726    23057006.358
       224.000         175.000
  -6705357.33849  -5204399.81947  21273651.737    21273652.070    21273661.724
       232.000         188.000
  -4280119.60749  -2979284.08345  23876877.905    23876878.112    23876894.852
       204.000         136.000
   -197346.76749   -152705.54747  20244039.738    20244039.128    20244046.883
       237.000         207.000
   4411173.70349   3426032.60045  23628673.969    23628672.817    23628686.894
       210.000         149.000
  -6069780.10149  -4716458.21647  21790413.495    21790413.551    21790422.360
       233.000         190.000
 00  4 27 15 53 29.9980000  0  7G 2G26G 4G24G 7G 8G 9
   -132271.18849   -102573.34547  21108201.627    21108200.968    21108209.379
       238.000         202.000
   1773083.23449   1377587.41246  23063909.430    23063909.199    23063919.862
       223.000         174.000
  -6823340.57949  -5296334.69947  21251200.122    21251200.525    21251210.169
       232.000         188.000
  -4420655.42349  -3088792.33645  23850134.916    23850135.007    23850151.554
       202.000         136.000
   -195244.55349   -151067.51047  20244439.797    20244439.182    20244446.997
       238.000         206.000
   4492755.12749   3489602.25045  23644198.743    23644197.557    23644211.548
       208.000         142.000
  -6175478.50849  -4798820.55847  21770299.781    21770299.776    21770308.560
       234.000         191.000
 00  4 27 15 53 59.9980000  0  7G 2G26G 4G24G 7G 8G 9
   -131883.21649   -102271.08547  21108275.499    21108274.845    21108283.258
       238.000         203.000
   1809591.65849   1406035.41246  23070856.776    23070856.630    23070867.296
       222.000         174.000
  -6941075.47149  -5388076.06047  21228795.829    21228796.244    21228805.838
       233.000         188.000
  -4561282.33449  -3198371.60145  23823374.336    23823374.554    23823390.976
       198.000         134.000
   -192941.07949   -149272.66847  20244878.162    20244877.538    20244885.361
       238.000         206.000
   4574379.88149   3553205.59745  23659731.791    23659730.528    23659744.521
       208.000         147.000
  -6280871.48249  -4880944.91047  21750244.152    21750244.137    21750252.882
       233.000         191.000
 00  4 27 15 54 29.9980000  0  7G 2G26G 4G24G 7G 8G 9
   -131337.41549   -101845.84147  21108379.385    21108378.732    21108387.166
       238.000         202.000
   1846291.40749   1434632.49446  23077840.428    23077840.414    23077851.174
       221.000         172.000
  -7058554.48649  -5479618.05647  21206440.258    21206440.663    21206450.225
       233.000         188.000
  -4702024.30949  -3308040.55845  23796591.748    23796592.072    23796608.505
       199.000         134.000
   -190430.61449   -147316.51447  20245355.990    20245355.319    20245363.114
       239.000         206.000
   4656053.35549   3616846.93845  23675274.057    23675272.793    23675286.757
       208.000         144.000
  -6385960.97649  -4962832.78847  21730246.198    21730246.222    21730254.940
       234.000         191.000
 00  4 27 15 54 59.9980000  0  7G 2G26G 4G24G 7G 8G 9
   -130641.60449   -101303.68947  21108511.854    21108511.182    21108519.634
       238.000         203.000
   1883171.47649   1463370.08246  23084858.544    23084858.506    23084869.345
       224.000         173.000
  -7175773.78249  -5570957.69647  21184134.099    21184134.494    21184144.042
       232.000         188.000
  -4842909.45549  -3417821.02445  23769781.863    23769782.353    23769798.736
       201.000         137.000
   -187722.73649   -145206.52447  20245871.408    20245870.708    20245878.390
       239.000         207.000
   4737753.00349   3680508.66845  23690821.375    23690819.949    23690833.965
       204.000         136.000
  -6490765.08249  -5044498.27747  21710302.607    21710302.628    21710311.319
       234.000         191.000
 00  4 27 15 55 29.9980000  0  7G 2G26G 4G24G 7G 8G 9
   -129777.78449   -100630.61347  21108676.298    21108675.619    21108684.077
       238.000         202.000
   1920244.72549   1492258.19446  23091913.483    23091913.396    23091924.269
       221.000         171.000
  -7292710.85249  -5662077.40547  21161881.599    21161882.043    21161891.557
       232.000         189.000
  -4983916.20349  -3527696.28645  23742948.968    23742949.537    23742965.871
       201.000         135.000
   -184796.58949   -142926.44147  20246428.322    20246427.612    20246435.181
       239.000         206.000
   4819483.00449   3744194.01245  23706374.525    23706372.924    23706386.867
       212.000         145.000
  -6595280.06549  -5125938.45847  21690414.013    21690414.054    21690422.745
       234.000         192.000
 00  4 27 15 55 59.9980000  0  7G 2G26G 4G24G 7G 8G 9
   -128759.03749    -99836.82447  21108870.224    21108869.537    21108878.008
       238.000         202.000
   1957487.45349   1521278.35646  23099000.651    23099000.540    23099011.416
       224.000         173.000
  -7409379.79249  -5752988.18747  21139680.183    21139680.603    21139690.122
       233.000         189.000
  -5125045.23749  -3637666.84345  23716092.871    23716093.473    23716109.641
       199.000         132.000
   -181667.45949   -140488.20547  20247023.870    20247023.118    20247030.647
       239.000         206.000
   4901223.09249   3807887.23645  23721929.350    23721927.834    23721941.809
       201.000         140.000
  -6699521.42249  -5207165.43547  21670577.502    21670577.545    21670586.204
       234.000         192.000
 00  4 27 15 56 29.9980000  0  7G 2G26G 4G24G 7G 8G 9
   -127575.07349    -98914.28047  21109095.538    21109094.877    21109103.389
       238.000         202.000
   1994901.92749   1550432.36446  23106120.655    23106120.450    23106131.248
       222.000         172.000
  -7525747.75549  -5843664.43347  21117535.969    21117536.430    21117545.981
       232.000         189.000
  -5266263.07749  -3747706.58645  23689219.950    23689220.522    23689236.565
       203.000         138.000
   -178318.29549   -137878.53847  20247661.167    20247660.457    20247667.989
       237.000         206.000
   4982988.67749   3871600.23744  23737488.853    23737487.459    23737501.451
       201.000         131.000
  -6803476.46549  -5288169.30947  21650795.434    21650795.481    21650804.128
       234.000         192.000
 00  4 27 15 56 59.9980000  0  7G 2G26G 4G24G 7G 8G 9
   -126233.20349    -97868.70047  21109350.944    21109350.266    21109358.788
       238.000         202.000
   2032472.58949   1579708.05946  23113270.168    23113269.990    23113280.851
       222.000         172.000
  -7641810.84149  -5934103.11347  21095449.769    21095450.251    21095459.842
       233.000         188.000
  -5407541.93549  -3857793.87645  23662335.586    23662335.840    23662351.973
       204.000         137.000
   -174751.83049   -135099.52147  20248339.770    20248339.104    20248346.722
       238.000         206.000
   5064771.73649   3935326.99545  23753052.064    23753050.615    23753064.529
       206.000         143.000
  -6907150.72549  -5368954.40447  21631066.872    21631066.887    21631075.475
       235.000         192.000
 00  4 27 15 57 29.9980000  0  7G 2G26G 4G24G 7G 8G 9
   -124754.36349    -96716.39247  21109632.416    21109631.721    21109640.244
       238.000         202.000
   2070176.90049   1609087.91546  23120445.319    23120445.059    23120455.866
       224.000         172.000
  -7757576.68349  -6024310.18347  21073420.191    21073420.650    21073430.255
       233.000         189.000
  -5548867.98949  -3967917.95445  23635442.105    23635442.158    23635458.359
       201.000         137.000
   -170970.02049   -132152.70647  20249059.425    20249058.777    20249066.474
       238.000         207.000
   5146583.96149   3999076.37545  23768620.378    23768619.019    23768633.407
       197.000         138.000
  -7010555.53649  -5449529.55247  21611389.648    21611389.609    21611398.110
       236.000         193.000
 00  4 27 15 57 59.9980000  0  7G 2G26G 4G24G 7G 8G 9
   -123135.90549    -95455.29347  21109940.511    21109939.763    21109948.286
       238.000         202.000
   2107996.71449   1638557.75146  23127642.245    23127642.010    23127652.859
       222.000         171.000
  -7873031.09049  -6114274.57147  21051449.903    21051450.346    21051459.916
       233.000         189.000
  -5690233.57449  -4078072.82945  23608540.787    23608541.038    23608557.234
       202.000         140.000
   -166971.53149   -129037.04447  20249820.431    20249819.736    20249827.487
       240.000         208.000
   5228434.70449   4062855.63445  23784196.338    23784195.010    23784209.496
       210.000         142.000
  -7113680.99949  -5529887.02647  21591765.579    21591765.492    21591773.939
       235.000         194.000
 00  4 27 15 58 29.9980000  0  7G 2G26G 4G24G 7G 8G 9
   -121380.46349    -94087.45147  21110274.600    21110273.852    21110282.393
       238.000         202.000
   2145933.21049   1668118.51946  23134861.579    23134861.252    23134872.033
       225.000         173.000
  -7988158.56049  -6203984.20347  21029541.841    21029542.271    21029551.767
       233.000         190.000
  -5831625.67649  -4188248.35345  23581634.577    23581634.946    23581651.053
       205.000         140.000
   -162747.06149   -125745.27147  20250624.500    20250623.733    20250631.487
       241.000         209.000
   5310324.43249   4126665.54245  23799779.886    23799778.486    23799792.819
       206.000         140.000
  -7216518.53649  -5610020.13947  21572196.216    21572196.138    21572204.550
       234.000         194.000
 00  4 27 15 58 59.9980000  0  8G 2G26G 4G24G 5G 7G 8G 9
   -119490.20349    -92614.54747  21110634.368    21110633.607    21110642.143
       238.000         202.000
   2183975.75949   1697761.93046  23142101.012    23142100.639    23142111.393
       222.000         171.000
  -8102973.90149  -6293450.61747  21007693.161    21007693.596    21007703.013
       233.000         190.000
  -5973050.13349  -4298449.13245  23554722.313    23554722.676    23554738.733
       207.000         143.000
  -1421077.42259  -1084029.64054  24542668.837    24542668.364    24542681.775
       206.000         122.000
   -158309.76549   -122287.64647  20251469.076    20251468.241    20251475.948
       241.000         208.000
   5392235.75749   4190492.11845  23815367.304    23815365.907    23815380.480
       196.000         135.000
  -7319061.35349  -5689923.59047  21552683.019    21552682.877    21552691.253
       234.000         194.000
 00  4 27 15 59 29.9980000  0  8G 2G26G 4G24G 5G 7G 8G 9
   -117457.94549    -91030.99347  21111021.165    21111020.393    21111028.925
       238.000         202.000
   2222121.73449   1727485.93346  23149359.998    23149359.700    23149370.491
       224.000         172.000
  -8217493.50249  -6382686.59347  20985900.749    20985901.177    20985910.549
       234.000         190.000
  -6114517.35349  -4408683.20945  23527801.978    23527802.308    23527818.294
       207.000         144.000
  -1537220.79149  -1174530.99444  24520567.435    24520567.103    24520580.257
       210.000         130.000
   -153673.29249   -118674.82947  20252351.427    20252350.604    20252358.229
       240.000         207.000
   5474156.59949   4254326.01845  23830956.804    23830955.319    23830970.014
       210.000         148.000
  -7421281.42749  -5769575.53547  21533231.151    21533230.998    21533239.400
       235.000         195.000
 00  4 27 15 59 59.9980000  0  8G 2G26G 4G24G 5G 7G 8G 9
   -115257.63849    -89316.51147  21111439.963    21111439.163    21111447.684
       238.000         202.000
   2260398.22449   1757311.63446  23156643.928    23156643.629    23156654.428
       223.000         170.000
  -8331712.42149  -6471688.29747  20964165.539    20964165.964    20964175.303
       234.000         191.000
  -6256025.62249  -4518949.24445  23500873.812    23500874.109    23500890.032
       208.000         144.000
  -1653470.76949  -1265115.33845  24498445.751    24498445.409    24498458.460
       208.000         135.000
   -148841.08849   -114909.48747  20253270.944    20253270.133    20253277.721
       239.000         206.000
   5556074.00449   4318157.35945  23846545.747    23846544.097    23846558.801
       204.000         139.000
  -7523152.25449  -5848955.34347  21513845.743    21513845.588    21513853.993
       234.000         195.000
 00  4 27 16  0 29.9980000  0  8G 2G26G 4G24G 5G 7G 8G 9
   -112901.09249    -87480.27547  21111888.462    21111887.652    21111896.167
       238.000         202.000
   2298800.87049   1787235.63946  23163951.690    23163951.487    23163962.297
       222.000         170.000
  -8445659.52249  -6560478.21047  20942482.115    20942482.509    20942491.824
       234.000         192.000
  -6397588.06849  -4629257.50845  23473935.204    23473935.511    23473951.501
       209.000         144.000
  -1769847.41049  -1355798.36545  24476300.010    24476299.658    24476312.553
       211.000         140.000
   -143834.15449   -111008.00447  20254223.585    20254222.895    20254230.456
       238.000         205.000
   5637964.40249   4381967.58445  23862129.112    23862127.519    23862142.483
       196.000         132.000
  -7624682.38049  -5928069.67147  21494525.153    21494525.046    21494533.460
       235.000         196.000
 00  4 27 16  0 59.9980000  0  8G 2G26G 4G24G 5G 7G 8G 9
   -110353.31249    -85495.02647  21112373.327    21112372.514    21112381.027
       238.000         201.000
   2337347.89349   1817272.17546  23171287.078    23171286.875    23171297.706
       222.000         171.000
  -8559311.08749  -6649037.82047  20920854.899    20920855.288    20920864.577
       233.000         192.000
  -6539195.38849  -4739600.71945  23446988.298    23446988.465    23447004.399
       211.000         147.000
  -1886341.67249  -1446573.06445  24454131.860    24454131.477    24454144.358
       211.000         140.000
   -138634.69449   -106956.48747  20255212.867    20255212.251    20255219.855
       238.000         205.000
   5719837.42649   4445764.23745  23877709.266    23877707.633    23877722.837
       207.000         145.000
  -7725841.18849  -6006894.66647  21475275.211    21475275.145    21475283.558
       235.000         196.000
 00  4 27 16  1 29.9980000  0  8G 2G26G 4G24G 5G 7G 8G 9
   -107632.25749    -83374.75347  21112891.089    21112890.349    21112898.869
       237.000         201.000
   2376040.17249   1847421.85246  23178650.010    23178649.839    23178660.760
       222.000         169.000
  -8672653.65949  -6737356.66947  20899286.407    20899286.850    20899296.127
       233.000         191.000
  -6680871.33649  -4849997.38845  23420028.059    23420028.282    23420044.277
       208.000         147.000
  -2002955.35249  -1537440.87444  24431940.873    24431940.496    24431953.284
       204.000         131.000
   -133244.23549   -102756.13647  20256238.602    20256238.009    20256245.656
       239.000         206.000
   5801686.98449   4509542.65545  23893285.194    23893283.542    23893298.772
       202.000         147.000
  -7826644.19349  -6085442.41447  21456093.044    21456092.937    21456101.360
       236.000         197.000
 00  4 27 16  1 59.9980000  0  8G 2G26G 4G24G 5G 7G 8G 9
   -104720.36449    -81105.77847  21113445.166    21113444.466    21113452.990
       237.000         200.000
   2414893.20449   1877696.82046  23186043.612    23186043.420    23186054.368
       222.000         168.000
  -8785648.78249  -6825404.77847  20877784.092    20877784.513    20877793.808
       233.000         191.000
  -6822598.90349  -4960434.26245  23393057.817    23393058.211    23393074.332
       211.000         148.000
  -2119657.07349  -1628377.20345  24409733.067    24409732.758    24409745.692
       206.000         137.000
   -127635.90849    -98386.02747  20257305.879    20257305.274    20257312.942
       241.000         208.000
   5883536.28049   4573320.77844  23908860.757    23908859.340    23908874.629
       197.000         130.000
  -7927104.30849  -6163722.95047  21436976.096    21436975.987    21436984.438
       235.000         197.000
 00  4 27 16  2 29.9970000  0  8G 2G26G 4G24G 5G 7G 8G 9
   -101631.74149    -78699.09147  21114032.902    21114032.227    21114040.763
       236.000         200.000
   2453878.54449   1908074.87746  23193462.395    23193462.164    23193473.156
       221.000         168.000
  -8898293.62749  -6913179.93547  20856348.445    20856348.851    20856358.155
       234.000         192.000
  -6964368.85149  -5070904.14245  23366079.664    23366080.142    23366096.399
       214.000         149.000
  -2236443.45449  -1719379.54245  24387509.547    24387509.147    24387521.945
       211.000         149.000
   -121811.72049    -93847.71247  20258414.336    20258413.653    20258421.329
       241.000         209.000
   5965391.14849   4637103.37245  23924437.645    23924436.182    23924451.302
       205.000         136.000
  -8027228.26249  -6241741.55247  21417923.085    21417922.999    21417931.468
       236.000         197.000
 00  4 27 16  2 59.9970000  0  8G 2G26G 4G24G 5G 7G 8G 9
    -98364.73049    -76153.40847  21114654.592    21114653.935    21114662.483
       237.000         199.000
   2492991.46249   1938552.33646  23200905.427    23200905.186    23200916.242
       221.000         169.000
  -9010581.14649  -7000676.65847  20834980.733    20834981.184    20834990.480
       235.000         192.000
  -7106189.20249  -5181413.29545  23339092.085    23339092.459    23339108.779
       215.000         150.000
  -2353294.53449  -1810432.25545  24365273.485    24365273.071    24365285.947
       206.000         147.000
   -115768.13449    -89138.43847  20259564.568    20259563.816    20259571.473
       241.000         210.000
   6047277.43449   4700910.44345  23940020.436    23940019.067    23940034.260
       204.000         146.000
  -8127028.00049  -6319507.53447  21398931.837    21398931.742    21398940.212
       236.000         198.000
 00  4 27 16  3 29.9970000  0  8G 2G26G 4G24G 5G 7G 8G 9
    -94923.96749    -73472.33147  21115309.363    21115308.714    21115317.257
       236.000         199.000
   2532230.24749   1969127.87046  23208372.349    23208372.154    23208383.272
       220.000         167.000
  -9122515.30149  -7087898.04847  20813680.388    20813680.807    20813690.065
       236.000         194.000
  -7248046.39049  -5291951.13045  23312097.378    23312097.761    23312114.192
       213.000         151.000
  -2470197.03949  -1901525.01945  24343027.646    24343027.254    24343040.097
       198.000         135.000
   -109515.37849    -84266.19747  20260754.572    20260753.775    20260761.423
       241.000         209.000
   6129210.94649   4764754.20145  23955612.072    23955610.817    23955626.277
       195.000         139.000
  -8226508.86449  -6397025.03647  21380001.241    21380001.152    21380009.618
       236.000         198.000
 00  4 27 16  3 59.9970000  0  8G 2G26G 4G24G 5G 7G 8G 9
    -91316.34049    -70661.22847  21115995.862    21115995.230    21116003.794
       236.000         199.000
   2571561.88149   1999775.76546  23215856.955    23215856.812    23215867.971
       221.000         168.000
  -9234136.71749  -7174875.74647  20792439.664    20792439.988    20792449.152
       236.000         194.000
  -7389931.84849  -5402510.97645  23285097.354    23285097.706    23285114.187
       215.000         152.000
  -2587178.35249  -1992679.20045  24320766.802    24320766.429    24320779.389
       202.000         134.000
   -103084.70549    -79255.30347  20261978.321    20261977.533    20261985.197
       239.000         207.000
   6211175.14949   4828621.86345  23971210.108    23971208.432    23971224.064
       208.000         143.000
  -8325687.54249  -6474307.07647  21361128.111    21361128.039    21361136.502
       236.000         198.000
 00  4 27 16  4 29.9970000  0  8G 2G26G 4G24G 5G 7G 8G 9
    -87530.36549    -67711.15347  21116716.318    21116715.694    21116724.254
       236.000         199.000
   2610989.17049   2030498.18546  23223359.714    23223359.624    23223370.934
       220.000         169.000
  -9345430.56149  -7261598.18347  20771261.283    20771261.499    20771270.579
       236.000         194.000
  -7531834.28949  -5513084.05645  23258094.125    23258094.387    23258110.923
       215.000         152.000
  -2704231.26949  -2083889.21645  24298492.449    24298492.041    24298504.905
       198.000         138.000
    -96468.30249    -74099.66047  20263237.301    20263236.557    20263244.274
       238.000         205.000
   6293173.89949   4892516.65545  23986814.581    23986812.767    23986828.245
       209.000         137.000
  -8424535.99849  -6551331.79847  21342317.808    21342317.759    21342326.222
       236.000         197.000
 00  4 27 16  4 59.9970000  0  8G 2G26G 4G24G 5G 7G 8G 9
    -83578.68849    -64631.97247  21117468.334    21117467.707    21117476.254
       236.000         199.000
   2650508.29049   2061292.16146  23230880.013    23230879.932    23230891.370
       221.000         168.000
  -9456399.03949  -7348067.10547  20750144.674    20750144.917    20750153.923
       236.000         194.000
  -7673784.32249  -5623694.18445  23231081.790    23231082.004    23231098.596
       215.000         153.000
  -2821383.35158  -2175176.32254  24276198.643    24276198.588    24276211.589
       189.000         128.000
    -89679.48349    -68809.68047  20264529.033    20264528.380    20264536.133
       238.000         205.000
   6375171.13949   4956410.22145  24002418.542    24002416.741    24002432.321
       196.000         137.000
  -8523070.61549  -6628111.96847  21323567.230    21323567.208    21323575.655
       235.000         196.000
 00  4 27 16  5 29.9970000  0  8G 2G26G 4G24G 5G 7G 8G 9
    -79458.60149    -61421.55247  21118252.434    21118251.773    21118260.309
       236.000         199.000
   2690121.95449   2092159.81046  23238418.316    23238418.253    23238429.721
       221.000         168.000
  -9567035.00949  -7434276.91947  20729091.337    20729091.559    20729100.556
       235.000         194.000
  -7815766.81149  -5734329.61045  23204063.255    23204063.528    23204080.058
       217.000         154.000
  -2938652.87049  -2266555.05845  24253882.965    24253882.768    24253895.964
       206.000         138.000
    -82708.30549    -63377.61347  20265855.534    20265854.919    20265862.656
       239.000         206.000
   6457154.05649   5020292.42845  24018019.413    24018017.766    24018033.748
       197.000         137.000
  -8621267.54449  -6704629.01947  21304880.882    21304880.901    21304889.326
       235.000         196.000
 00  4 27 16  5 59.9970000  0  8G 2G26G 4G24G 5G 7G 8G 9
    -75158.75149    -58071.08047  21119070.717    21119070.029    21119078.588
       236.000         199.000
   2729829.09249   2123100.28446  23245974.589    23245974.402    23245985.835
       221.000         169.000
  -9677308.30549  -7520204.11847  20708106.941    20708107.203    20708116.212
       235.000         194.000
  -7957764.26849  -5844976.69245  23177041.893    23177042.250    23177058.691
       217.000         156.000
  -3056035.25649  -2358021.86845  24231545.787    24231545.620    24231558.723
       203.000         139.000
    -75528.68949    -57783.12447  20267221.822    20267221.194    20267228.859
       240.000         206.000
   6539124.63649   5084165.16445  24033618.128    24033616.676    24033632.572
       202.000         145.000
  -8719096.77049  -6780859.54847  21286264.505    21286264.547    21286272.945
       236.000         196.000
 00  4 27 16  6 29.9970000  0  8G 2G26G 4G24G 5G 7G 8G 9
    -70701.96449    -54598.31947  21119918.875    21119918.170    21119926.729
       236.000         199.000
   2769620.64649   2154106.55446  23253546.894    23253546.639    23253558.082
       223.000         169.000
  -9787217.10549  -7605847.28447  20687191.905    20687192.213    20687201.244
       236.000         194.000
  -8099794.00249  -5955648.92245  23150014.542    23150014.818    23150031.120
       217.000         155.000
  -3173545.08049  -2449587.85345  24209184.551    24209184.227    24209197.255
       206.000         142.000
    -68146.01749    -52030.41447  20268626.864    20268626.161    20268633.745
       240.000         207.000
   6621073.13349   5148020.68245  24049212.911    24049211.365    24049227.365
       203.000         143.000
  -8816556.53449  -6856802.18347  21267718.559    21267718.556    21267726.881
       236.000         197.000
 00  4 27 16  6 59.9970000  0  8G 2G26G 4G24G 5G 7G 8G 9
    -66093.55849    -51007.40247  21120795.889    21120795.165    21120803.731
       236.000         198.000
   2809494.74449   2185177.14346  23261134.825    23261134.540    23261146.013
       221.000         169.000
  -9896778.93749  -7691220.07047  20666342.937    20666343.246    20666352.292
       235.000         195.000
  -8241842.28649  -6066335.59745  23122983.583    23122983.807    23123000.009
       218.000         156.000
  -3291200.66849  -2541267.42145  24186795.436    24186795.148    24186808.236
       210.000         142.000
    -60564.19549    -46122.50447  20270069.758    20270069.004    20270076.547
       240.000         208.000
   6703003.88549   5211862.44845  24064804.240    24064802.645    24064818.691
       199.000         138.000
  -8913645.03749  -6932455.52047  21249243.233    21249243.217    21249251.484
       237.000         198.000
 00  4 27 16  7 29.9970000  0  8G 2G26G 4G24G 5G 7G 8G 9
    -61315.35349    -47284.17747  21121705.215    21121704.484    21121713.057
       236.000         198.000
   2849453.81449   2216313.94946  23268738.939    23268738.643    23268750.090
       223.000         170.000
 -10005996.14149  -7776324.31347  20645559.596    20645559.868    20645568.897
       236.000         196.000
  -8383879.36849  -6177013.54045  23095954.602    23095954.900    23095971.017
       217.000         156.000
  -3408990.40749  -2633051.63545  24164380.857    24164380.568    24164393.425
       205.000         137.000
    -52793.78249    -40067.62947  20271548.500    20271547.737    20271555.272
       240.000         207.000
   6784928.59049   5275699.38945  24080394.342    24080392.782    24080408.997
       197.000         137.000
  -9010352.79649  -7007812.17447  21230840.341    21230840.316    21230848.537
       236.000         198.000
 00  4 27 16  7 59.9970000  0  8G 2G26G 4G24G 5G 7G 8G 9
    -56344.43349    -43410.78947  21122651.211    21122650.458    21122659.027
       236.000         198.000
   2889516.47049   2247531.45646  23276362.800    23276362.494    23276373.892
       223.000         169.000
 -10114861.27249  -7861154.21247  20624843.294    20624843.534    20624852.502
       237.000         196.000
  -8525900.92149  -6287679.40745  23068928.582    23068928.897    23068944.935
       216.000         157.000
  -3526896.43749  -2724926.38345  24141944.101    24141943.845    24141956.647
       210.000         141.000
    -44844.26449    -33873.18047  20273061.256    20273060.493    20273068.095
       239.000         207.000
   6866849.87049   5339533.69345  24095984.032    24095982.354    24095998.600
       207.000         147.000
  -9106690.84449  -7082880.74947  21212507.770    21212507.758    21212515.962
       236.000         198.000
 00  4 27 16  8 29.9970000  0  8G 2G26G 4G24G 5G 7G 8G 9
    -51157.09249    -39368.76847  21123638.364    21123637.611    21123646.187
       236.000         198.000
   2929708.35949   2278849.66646  23284011.148    23284010.876    23284022.255
       220.000         164.000
 -10223369.48949  -7945706.00647  20604194.872    20604195.100    20604204.026
       237.000         196.000
  -8667896.10549  -6398324.70645  23041907.697    23041907.931    23041923.890
       216.000         158.000
  -3644891.09249  -2816870.20045  24119490.599    24119490.161    24119502.955
       207.000         139.000
    -36718.66449    -27541.52647  20274607.453    20274606.722    20274614.407
       239.000         206.000
   6948767.99349   5403365.58845  24111573.062    24111571.230    24111587.616
       205.000         143.000
  -9202651.24449  -7157655.05247  21194247.144    21194247.113    21194255.284
       237.000         199.000
 00  4 27 16  8 59.9970000  0  8G 2G26G 4G24G 5G 7G 8G 9
    -45735.32049    -35144.09147  21124670.148    21124669.396    21124677.963
       236.000         198.000
   2970028.70149   2310267.97446  23291683.966    23291683.660    23291695.069
       220.000         166.000
 -10331503.74749  -8029966.40247  20583617.566    20583617.810    20583626.729
       236.000         196.000
  -8809861.88749  -6508947.10245  23014892.298    23014892.549    23014908.385
       217.000         158.000
  -3762954.46749  -2908867.58545  24097023.768    24097023.360    24097036.099
       211.000         140.000
    -28426.06349    -21079.77247  20276185.411    20276184.717    20276192.456
       239.000         206.000
   7030666.80249   5467182.42945  24127158.228    24127156.400    24127172.923
       201.000         142.000
  -9298238.74149  -7232138.78547  21176057.523    21176057.411    21176065.553
       238.000         199.000
 00  4 27 16  9 29.9970000  0  8G 2G26G 4G24G 5G 7G 8G 9
    -40075.87349    -30734.20547  21125747.174    21125746.393    21125754.990
       235.000         198.000
   3010468.34849   2341779.24746  23299379.609    23299379.231    23299390.620
       219.000         164.000
 -10439244.44349  -8113920.11547  20563115.143    20563115.388    20563124.329
       236.000         196.000
  -8951806.26649  -6619552.83145  22987881.175    22987881.287    22987896.991
       216.000         159.000
  -3881061.71149  -3000899.15345  24074548.730    24074548.301    24074561.000
       208.000         141.000
    -19961.74949    -14484.18747  20277796.061    20277795.402    20277803.155
       239.000         206.000
   7112541.91749   5530980.81345  24142738.637    24142737.047    24142753.702
       198.000         137.000
  -9393449.95949  -7306329.30347  21157939.485    21157939.342    21157947.437
       238.000         200.000
 00  4 27 16  9 59.9970000  0  8G 2G26G 4G24G 5G 7G 8G 9
    -34205.18549    -26159.73047  21126864.381    21126863.605    21126872.246
       235.000         198.000
   3051012.49249   2373371.92746  23307095.075    23307094.669    23307106.051
       219.000         163.000
 -10546588.97049  -8197565.11947  20542688.048    20542688.328    20542697.307
       236.000         196.000
  -9093737.06949  -6730148.00845  22960872.428    22960872.593    22960888.163
       215.000         158.000
  -3999206.13649  -3092959.66245  24052066.386    24052066.130    24052078.642
       205.000         137.000
    -11306.46749     -7739.81547  20279443.130    20279442.464    20279450.184
       240.000         206.000
   7194398.91849   5594765.08845  24158315.616    24158314.095    24158330.944
       202.000         138.000
  -9488276.20749  -7380219.84347  21139894.630    21139894.469    21139902.572
       238.000         200.000
 00  4 27 16 10 29.9970000  0  8G 2G26G 4G24G 5G 7G 8G 9
    -28151.03949    -21442.29847  21128016.513    21128015.724    21128024.414
       235.000         198.000
   3091628.84149   2405020.88045  23314824.303    23314823.878    23314835.222
       220.000         162.000
 -10653536.74149  -8280900.96747  20522336.475    20522336.787    20522345.771
       236.000         196.000
  -9235650.51249  -6840729.65845  22933867.014    22933867.171    22933882.639
       213.000         159.000
  -4117400.68049  -3185059.23845  24029574.598    24029574.329    24029586.711
       208.000         139.000
     -2463.42249      -849.12847  20281125.912    20281125.234    20281132.915
       240.000         206.000
   7276237.13049   5658534.72945  24173889.162    24173887.724    24173904.723
       206.000         147.000
  -9582715.63849  -7453808.96447  21121923.374    21121923.233    21121931.335
       237.000         200.000
 00  4 27 16 10 59.9970000  0  8G 2G26G 4G24G 5G 7G 8G 9
    -21928.56749    -16593.68847  21129200.659    21129199.876    21129208.615
       235.000         197.000
   3132309.22849   2436719.75446  23322565.651    23322565.225    23322576.620
       218.000         164.000
 -10760079.24249  -8363921.02347  20502062.108    20502062.379    20502071.350
       237.000         197.000
  -9377530.37649  -6951285.14545  22906867.786    22906868.082    22906883.510
       213.000         158.000
  -4235659.14849  -3277208.58045  24007070.711    24007070.378    24007082.753
       206.000         140.000
      6588.21249      6204.08547  20282848.368    20282847.702    20282855.343
       240.000         206.000
   7358072.67349   5722302.30145  24189462.139    24189460.796    24189478.008
       201.000         146.000
  -9676774.17649  -7527101.28747  21104024.661    21104024.474    21104032.585
       237.000         200.000
 00  4 27 16 11 29.9970000  0  8G 2G26G 4G24G 5G 7G 8G 9
    -15553.84549    -11626.44447  21130413.840    21130413.032    21130421.768
       235.000         197.000
   3173058.22049   2468472.04545  23330319.953    23330319.536    23330331.012
       216.000         161.000
 -10866218.01649  -8446626.50547  20481864.569    20481864.824    20481873.724
       238.000         197.000
  -9519365.80249  -7061806.00945  22879877.102    22879877.496    22879892.828
       213.000         159.000
  -4353996.64849  -3369419.55345  23984551.884    23984551.456    23984563.830
       207.000         144.000
     15857.66949     13427.03947  20284612.313    20284611.645    20284619.253
       240.000         206.000
   7439912.09049   5786072.88445  24205036.065    24205034.631    24205051.906
       200.000         144.000
  -9770449.98049  -7600095.38147  21086198.637    21086198.513    21086206.638
       237.000         200.000
 00  4 27 16 11 59.9970000  0  8G 2G26G 4G24G 5G 7G 8G 9
     -9033.50649     -6545.74747  21131654.703    21131653.902    21131662.600
       235.000         197.000
   3213886.68349   2500286.26046  23338089.263    23338088.986    23338100.531
       218.000         164.000
 -10971958.00649  -8529021.24647  20461742.949    20461743.157    20461752.010
       238.000         197.000
  -9661151.55949  -7172288.16945  22852895.865    22852896.353    22852911.622
       214.000         158.000
  -4472436.19449  -3461710.00145  23962013.519    23962013.070    23962025.445
       207.000         143.000
     25325.09849     20804.24847  20286413.916    20286413.240    20286420.861
       240.000         206.000
   7521743.91149   5849837.55345  24220608.451    24220606.930    24220624.402
       196.000         135.000
  -9863749.47149  -7672796.25547  21068444.268    21068444.177    21068452.280
       238.000         200.000
 00  4 27 16 12 29.9970000  0  8G 2G26G 4G24G 5G 7G 8G 9
     -2365.70149     -1350.14947  21132923.628    21132922.816    21132931.504
       235.000         196.000
   3254791.30849   2532159.85046  23345873.155    23345872.933    23345884.515
       218.000         163.000
 -11077301.46249  -8611106.98847  20441696.709    20441696.931    20441705.768
       237.000         198.000
  -9802892.68149  -7282735.56245  22825923.292    22825923.689    22825938.885
       214.000         159.000
  -4590997.38749  -3554095.24645  23939452.113    23939451.497    23939464.006
       209.000         146.000
     34961.08349     28312.79447  20288247.593    20288246.911    20288254.560
       240.000         206.000
   7603545.67649   5913578.78045  24236174.988    24236173.382    24236191.146
       198.000         137.000
  -9956689.38449  -7745216.94647  21050758.350    21050758.255    21050766.334
       237.000         200.000
 00  4 27 16 12 59.9970000  0  8G 2G26G 4G24G 5G 7G 8G 9
      4471.79949      3977.69547  21134224.846    21134223.998    21134232.715
       235.000         196.000
   3295795.66249   2564111.13445  23353676.115    23353675.925    23353687.519
       215.000         162.000
 -11182240.66749  -8692877.73247  20421727.340    20421727.598    20421736.439
       237.000         198.000
  -9944595.20449  -7393152.86545  22798957.974    22798958.438    22798973.533
       213.000         159.000
  -4709665.15249  -3646563.53245  23916870.266    23916869.685    23916882.281
       211.000         146.000
     44781.64449     35965.16247  20290116.350    20290115.701    20290123.361
       239.000         206.000
   7685318.07949   5977297.18545  24251735.844    24251734.444    24251752.271
       203.000         138.000
 -10049252.97149  -7817344.38647  21033144.069    21033143.956    21033151.976
       237.000         199.000
 00  4 27 16 13 29.9970000  0  8G 2G26G 4G24G 5G 7G 8G 9
     11488.11149      9444.86447  21135560.091    21135559.202    21135567.954
       234.000         197.000
   3336896.15949   2596137.31046  23361497.329    23361497.172    23361508.872
       218.000         164.000
 -11286780.25649  -8774337.08347  20401834.093    20401834.332    20401843.168
       237.000         198.000
 -10086270.88949  -7503549.25545  22771997.949    22771998.262    22772013.264
       216.000         160.000
  -4828437.53949  -3739113.36645  23894268.521    23894268.011    23894280.642
       211.000         148.000
     54758.86849     43739.59947  20292014.983    20292014.331    20292021.979
       240.000         206.000
   7767049.07449   6040983.35945  24267288.963    24267287.612    24267305.459
       202.000         141.000
 -10141423.96349  -7889165.89247  21015604.468    21015604.371    21015612.371
       237.000         199.000
 00  4 27 16 13 59.9970000  0  8G 2G26G 4G24G 5G 7G 8G 9
     18691.26149     15057.62447  21136930.878    21136929.981    21136938.774
       234.000         197.000
   3378064.42349   2628216.30146  23369331.558    23369331.343    23369343.125
       218.000         164.000
 -11390935.50549  -8855496.94347  20382013.975    20382014.228    20382023.014
       238.000         198.000
 -10227938.05549  -7613938.99845  22745039.602    22745039.752    22745054.673
       215.000         161.000
  -4947317.57649  -3831747.09945  23871646.388    23871645.863    23871658.475
       211.000         147.000
     64879.48949     51625.74747  20293940.956    20293940.270    20293947.886
       240.000         206.000
   7848735.52049   6104634.79845  24282833.862    24282832.384    24282850.302
       206.000         141.000
 -10233203.61049  -7960682.45447  20998139.361    20998139.260    20998147.256
       237.000         199.000
 00  4 27 16 14 29.9970000  0  8G 2G26G 4G24G 5G 7G 8G 9
     26103.51149     20833.32547  21138341.497    21138340.571    21138349.355
       235.000         196.000
   3419295.53749   2660344.26546  23377177.738    23377177.425    23377189.320
       217.000         163.000
 -11494691.12049  -8936345.40747  20362269.939    20362270.158    20362278.902
       238.000         198.000
 -10369589.02949  -7724316.11645  22718084.043    22718084.272    22718099.141
       213.000         160.000
  -5066279.91349  -3924444.96545  23849008.654    23849008.054    23849020.681
       209.000         146.000
     75167.85349     59642.60847  20295898.801    20295898.111    20295905.711
       239.000         205.000
   7930386.72649   6168258.76945  24298372.008    24298370.476    24298388.484
       198.000         140.000
 -10324583.88149  -8031887.82547  20980750.283    20980750.155    20980758.147
       239.000         201.000
 00  4 27 16 14 59.9970000  0  8G 2G26G 4G24G 5G 7G 8G 9
     33726.61049     26773.33947  21139792.227    21139791.291    21139800.089
       235.000         196.000
   3460580.58449   2692514.25846  23385034.256    23385033.837    23385045.801
       216.000         164.000
 -11598046.31949  -9016881.87047  20342602.086    20342602.288    20342610.988
       238.000         198.000
 -10511227.41649  -7834683.41645  22691130.840    22691131.162    22691145.989
       216.000         161.000
  -5185326.37249  -4017208.38345  23826354.813    23826354.251    23826366.922
       209.000         144.000
     85631.45049     67796.02947  20297889.976    20297889.266    20297896.882
       239.000         205.000
   8011991.60549   6231846.60245  24313901.167    24313899.616    24313917.736
       197.000         138.000
 -10415565.67749  -8102782.70147  20963437.051    20963436.880    20963444.860
       239.000         201.000
 00  4 27 16 15 29.9970000  0  7G 2G26G 4G24G 5G 7G 9
     41579.67849     32892.54547  21141286.676    21141285.759    21141294.554
       235.000         196.000
   3501920.31349   2724726.87246  23392901.025    23392900.635    23392912.706
       218.000         165.000
 -11700985.35149  -9097094.04147  20323013.421    20323013.620    20323022.282
       239.000         198.000
 -10652820.97349  -7945015.78945  22664186.365    22664186.643    22664201.384
       214.000         162.000
  -5304452.64549  -4110033.97545  23803685.603    23803685.229    23803697.840
       206.000         140.000
     96267.74649     76084.02447  20299913.943    20299913.282    20299920.931
       239.000         205.000
 -10506135.51649  -8173356.56747  20946202.163    20946202.008    20946209.986
       238.000         201.000
 00  4 27 16 15 59.9970000  0  7G 2G26G 4G24G 5G 7G 9
     49662.16749     39190.50947  21142824.750    21142823.874    21142832.662
       234.000         196.000
   3543305.46649   2756974.86146  23400776.603    23400776.136    23400788.238
       217.000         164.000
 -11803505.00849  -9176979.43547  20303504.504    20303504.730    20303513.377
       239.000         198.000
 -10794367.89049  -8055311.80945  22637250.592    22637250.952    22637265.680
       213.000         162.000
  -5423657.54549  -4202920.83845  23781001.475    23781001.181    23781013.808
       209.000         142.000
    107079.54849     84508.77647  20301971.330    20301970.680    20301978.369
       240.000         205.000
 -10596307.54549  -8243620.45947  20929042.944    20929042.801    20929050.801
       238.000         201.000
 00  4 27 16 16 29.9970000  0  7G 2G26G 4G24G 5G 7G 9
     57962.60649     45658.31847  21144404.294    21144403.441    21144412.278
       234.000         195.000
   3584741.04149   2789262.14545  23408661.760    23408661.254    23408673.304
       217.000         162.000
 -11905605.98549  -9256538.58247  20284075.282    20284075.509    20284084.150
       238.000         199.000
 -10935867.34149  -8165570.84745  22610323.942    22610324.343    22610338.971
       215.000         162.000
  -5542947.08449  -4295873.64745  23758301.282    23758301.101    23758313.659
       207.000         144.000
    118049.96449     93057.13647  20304058.939    20304058.271    20304065.994
       240.000         205.000
 -10686083.73449  -8313575.90347  20911959.061    20911958.916    20911966.938
       238.000         201.000
 00  4 27 16 16 59.9970000  0  7G 2G26G 4G24G 5G 7G 9
     66484.17849     52298.41647  21146025.884    21146025.079    21146033.944
       234.000         195.000
   3626233.16049   2821593.48045  23416557.656    23416557.116    23416569.108
       216.000         162.000
 -12007295.39749  -9335777.04147  20264724.427    20264724.626    20264733.256
       239.000         199.000
 -11077308.10149  -8275784.14845  22583408.446    22583408.841    22583423.483
       215.000         162.000
  -5662332.53049  -4388901.15545  23735582.779    23735582.708    23735595.287
       209.000         145.000
    129155.19849    101710.54947  20306172.307    20306171.586    20306179.301
       240.000         205.000
 -10775444.38549  -8383207.55747  20894954.329    20894954.158    20894962.178
       239.000         202.000
 00  4 27 16 17 29.9970000  0  7G 2G26G 4G24G 5G 7G 9
     75239.56449     59120.69947  21147692.044    21147691.230    21147700.143
       234.000         195.000
   3667786.86649   2853972.81945  23424465.253    23424464.661    23424476.612
       218.000         161.000
 -12108573.60049  -9414695.08847  20245451.811    20245452.000    20245460.613
       238.000         199.000
 -11218675.49549  -8385940.28745  22556506.933    22556507.297    22556521.940
       213.000         162.000
  -5781802.24749  -4481994.36345  23712848.413    23712848.274    23712860.791
       211.000         150.000
    140397.53349    110470.77447  20308311.802    20308311.013    20308318.682
       241.000         205.000
 -10864376.55149  -8452505.33547  20878031.113    20878030.943    20878038.922
       239.000         202.000
 00  4 27 16 17 59.9970000  0  7G 2G26G 4G24G 5G 7G 9
     84217.14549     66116.12047  21149400.507    21149399.674    21149408.615
       234.000         196.000
   3709407.73649   2886404.48845  23432385.514    23432385.020    23432396.933
       217.000         161.000
 -12209428.81349  -9493283.53447  20226259.651    20226259.868    20226268.474
       239.000         199.000
 -11359966.38249  -8496036.82645  22529619.987    22529620.354    22529634.892
       216.000         162.000
  -5901332.07649  -4575134.38545  23690102.648    23690102.425    23690114.868
       212.000         151.000
    151801.95549    119357.29247  20310482.058    20310481.259    20310488.869
       240.000         205.000
 -10952878.53449  -8521467.89947  20861189.833    20861189.600    20861197.525
       240.000         202.000
 00  4 27 16 18 29.9970000  0  7G 2G26G 4G24G 5G 7G 9
     93395.73749     73268.18347  21151147.250    21151146.394    21151155.349
       234.000         195.000
   3751081.82249   2918877.61845  23440316.001    23440315.499    23440327.408
       216.000         160.000
 -12309877.94549  -9571555.54647  20207144.817    20207145.008    20207153.602
       239.000         199.000
 -11501194.33749  -8606084.33346  22502745.017    22502745.372    22502759.877
       216.000         163.000
  -6020934.36249  -4668330.85745  23667343.153    23667342.794    23667355.211
       213.000         153.000
    163352.10849    128357.36147  20312680.062    20312679.224    20312686.772
       239.000         204.000
 -11040963.02949  -8590105.14847  20844427.942    20844427.679    20844435.557
       239.000         201.000
 00  4 27 16 18 59.9970000  0  7G 2G26G 4G24G 5G 7G 9
    102777.58849     80578.61247  21152932.624    21152931.760    21152940.733
       233.000         194.000
   3792806.33549   2951390.04345  23448256.027    23448255.522    23448267.475
       216.000         162.000
 -12409917.67049  -9649508.55247  20188107.851    20188108.046    20188116.596
       239.000         198.000
 -11642344.88049  -8716071.51946  22475884.670    22475885.108    22475899.598
       216.000         164.000
  -6140598.04649  -4761575.16845  23644571.884    23644571.506    23644583.884
       214.000         152.000
    175075.63749    137492.52047  20314910.955    20314910.143    20314917.661
       239.000         204.000
 -11128636.49149  -8658422.11547  20827744.224    20827743.957    20827751.789
       238.000         200.000
 00  4 27 16 19 29.9970000  0  7G 2G26G 4G24G 5G 7G 9
    112344.23949     88033.05247  21154753.207    21154752.300    21154761.263
       233.000         193.000
   3834566.13449   2983929.96746  23456202.923    23456202.395    23456214.328
       220.000         165.000
 -12509530.43849  -9727128.85847  20169152.081    20169152.317    20169160.841
       239.000         199.000
 -11783412.52349  -8825994.12746  22449040.211    22449040.619    22449055.036
       217.000         166.000
  -6260297.68849  -4854847.53245  23621793.858    23621793.416    23621805.699
       216.000         154.000
    187006.96349    146789.61047  20317181.421    20317180.606    20317188.130
       239.000         204.000
 -11215900.41949  -8726419.95547  20811138.381    20811138.139    20811145.954
       238.000         200.000
 00  4 27 16 19 59.9970000  0  7G 2G26G 4G24G 5G 7G 9
    122084.98749     95623.15247  21156606.830    21156605.950    21156614.947
       233.000         193.000
   3876365.61949   3016500.83046  23464157.293    23464156.739    23464168.707
       218.000         163.000
 -12608689.76449  -9804395.82247  20150282.678    20150282.905    20150291.401
       239.000         200.000
 -11924397.60349  -8935852.42446  22422211.420    22422211.870    22422226.231
       218.000         166.000
  -6380030.84249  -4948146.00145  23599009.501    23599008.963    23599021.190
       214.000         154.000
    199135.46749    156240.34347  20319489.372    20319488.602    20319496.134
       239.000         204.000
 -11302744.12549  -8794090.35547  20794612.539    20794612.316    20794620.102
       239.000         200.000
 00  4 27 16 20 29.9970000  0  7G 2G26G 4G24G 5G 7G 9
    131992.71649    103343.36747  21158492.290    21158491.402    21158500.405
       234.000         194.000
   3918201.78149   3049100.25946  23472118.543    23472117.990    23472130.063
       217.000         163.000
 -12707410.10249  -9881320.73347  20131496.882    20131497.049    20131505.500
       239.000         200.000
 -12065309.99149  -9045654.08946  22395396.501    22395396.934    22395411.252
       218.000         167.000
  -6499832.50349  -5041497.81645  23576211.883    23576211.380    23576223.697
       212.000         150.000
    211433.56449    165823.21647  20321829.659    20321828.886    20321836.435
       239.000         205.000
 -11389164.10649  -8861430.57847  20778167.390    20778167.130    20778174.892
       239.000         201.000
 00  4 27 16 20 59.9970000  0  7G 2G26G 4G24G 5G 7G 9
    142072.72649    111197.82147  21160410.585    21160409.674    21160418.654
       234.000         194.000
   3960075.97849   3081729.34645  23480086.996    23480086.485    23480098.691
       217.000         162.000
 -12805666.55849  -9957884.15947  20112799.288    20112799.436    20112807.895
       238.000         200.000
 -12206139.73449  -9155391.36446  22368597.340    22368597.780    22368611.998
       218.000         167.000
  -6619705.61449  -5134905.32845  23553400.675    23553400.213    23553412.522
       212.000         150.000
    223908.68049    175544.02747  20324203.661    20324202.866    20324210.441
       240.000         205.000
 -11475140.55149  -8928425.19547  20761806.667    20761806.373    20761814.107
       239.000         201.000
 00  4 27 16 21 29.9970000  0  7G 2G26G 4G24G 5G 7G 9
    152313.45449    119177.50647  21162359.452    21162358.522    21162367.468
       233.000         194.000
   4001966.29649   3114370.96945  23488058.634    23488058.098    23488070.320
       218.000         162.000
 -12903456.80249 -10034084.31447  20094190.356    20094190.526    20094199.023
       238.000         200.000
 -12346917.24849  -9265087.95146  22341808.054    22341808.533    22341822.689
       218.000         168.000
  -6739674.52349  -5228387.48945  23530571.344    23530570.824    23530583.132
       213.000         151.000
    236527.89449    185377.13447  20326605.080    20326604.253    20326611.868
       240.000         205.000
 -11560679.34549  -8995078.78247  20745529.131    20745528.854    20745536.580
       238.000         201.000
 00  4 27 16 21 59.9970000  0  7G 2G26G 4G24G 5G 7G 9
    162759.60749    127317.26447  21164347.411    21164346.457    21164355.399
       233.000         194.000
   4043901.86749   3147047.83945  23496038.814    23496038.305    23496050.541
       216.000         161.000
 -13000767.44349 -10109910.74247  20075672.674    20075672.859    20075681.387
       238.000         200.000
 -12487629.83149  -9374733.94446  22315031.286    22315031.673    22315045.757
       219.000         169.000
  -6859735.14949  -5321941.11945  23507724.390    23507723.987    23507736.226
       213.000         151.000
    249290.20049    195321.74747  20329033.778    20329032.926    20329040.557
       240.000         205.000
 -11645769.79949  -9061383.03247  20729336.846    20729336.644    20729344.380
       238.000         201.000
 00  4 27 16 22 29.9970000  0  7G 2G26G 4G24G 5G 7G 9
    173430.45549    135632.11047  21166378.090    21166377.134    21166386.095
       232.000         193.000
   4085859.77449   3179742.10445  23504023.211    23504022.716    23504034.992
       217.000         158.000
 -13097632.54149 -10185389.98847  20057239.856    20057240.012    20057248.553
       238.000         201.000
 -12628267.87649  -9484321.86846  22288268.785    22288269.012    22288283.026
       221.000         169.000
  -6979877.98749  -5415558.81145  23484861.852    23484861.488    23484873.724
       213.000         152.000
    262203.60849    205384.11447  20331491.194    20331490.322    20331497.975
       240.000         205.000
 -11730421.95749  -9127345.74747  20713228.088    20713227.859    20713235.589
       238.000         201.000
 00  4 27 16 22 59.9970000  0  7G 2G26G 4G24G 5G 7G 9
    184329.90949    144125.08547  21168452.246    21168451.284    21168460.288
       232.000         193.000
   4127810.66249   3212430.91345  23512006.294    23512005.833    23512018.205
       217.000         159.000
 -13194059.17649 -10260527.59947  20038890.462    20038890.633    20038899.136
       238.000         201.000
 -12768832.52349  -9593852.62246  22261520.235    22261520.388    22261534.238
       220.000         169.000
  -7100087.64549  -5509228.57645  23461986.694    23461986.321    23461998.450
       213.000         153.000
    275266.44249    215562.90047  20333977.020    20333976.163    20333983.813
       239.000         204.000
 -11814652.44149  -9192979.89247  20697199.576    20697199.331    20697207.049
       239.000         201.000
 00  4 27 16 23 29.9970000  0  7G 2G26G 4G24G 5G 7G 9
    195478.58449    152812.26747  21170573.797    21170572.845    21170581.908
       233.000         192.000
   4169761.92149   3245119.99245  23519989.432    23519989.000    23520001.411
       217.000         158.000
 -13290058.49749 -10335332.22647  20020622.449    20020622.566    20020631.034
       238.000         201.000
 -12909300.03349  -9703307.68746  22234790.076    22234790.206    22234803.934
       221.000         169.000
  -7220338.53149  -5602930.45045  23439103.756    23439103.325    23439115.358
       213.000         155.000
    288479.24349    225858.55247  20336491.374    20336490.516    20336498.166
       240.000         203.000
 -11898461.28049  -9258285.48347  20681251.291    20681251.027    20681258.726
       239.000         202.000
 00  4 27 16 23 59.9970000  0  7G 2G26G 4G24G 5G 7G 9
    206857.32949    161678.71847  21172739.142    21172738.202    21172747.301
       233.000         193.000
   4211708.28349   3277805.22945  23527971.683    23527971.278    23527983.713
       217.000         156.000
 -13385653.22049 -10409821.58347  20002431.399    20002431.504    20002439.909
       238.000         200.000
 -13049652.48149  -9812673.10946  22208081.770    22208081.910    22208095.533
       220.000         169.000
  -7340631.88949  -5696665.41545  23416212.494    23416212.126    23416224.159
       214.000         156.000
    301829.62549    236261.40147  20339031.871    20339031.033    20339038.694
       239.000         203.000
 -11981854.03849  -9323266.85347  20665382.175    20665381.891    20665389.568
       239.000         202.000
 00  4 27 16 24 29.9970000  0  7G 2G26G 4G24G 5G 7G 9
    218454.60949    170715.46047  21174946.092    21174945.155    21174954.265
       233.000         192.000
   4253646.81149   3310484.36645  23535952.443    23535952.033    23535964.573
       215.000         156.000
 -13480824.58149 -10483981.04347  19984320.838    19984320.978    19984329.332
       238.000         201.000
 -13189878.61149  -9921940.10046  22181397.439    22181397.641    22181411.227
       220.000         169.000
  -7460974.50549  -5790438.75345  23393312.085    23393311.637    23393323.659
       216.000         158.000
    315322.64649    246775.40447  20341599.519    20341598.677    20341606.356
       239.000         203.000
 -12064810.92949  -9387908.56947  20649595.978    20649595.709    20649603.412
       239.000         202.000
 00  4 27 16 24 59.9970000  0  7G 2G26G 4G24G 5G 7G 9
    230264.99849    179918.26147  21177193.721    21177192.710    21177201.782
       233.000         192.000
   4295595.14349   3343171.11945  23543935.166    23543934.705    23543947.271
       215.000         156.000
 -13575535.99449 -10557782.11247  19966297.808    19966297.948    19966306.305
       238.000         201.000
 -13329982.61849 -10031111.93046  22154736.362    22154736.600    22154750.155
       220.000         169.000
  -7581374.39449  -5884256.72245  23370400.735    23370400.262    23370412.192
       215.000         157.000
    328965.01149    257405.77447  20344195.635    20344194.770    20344202.446
       239.000         203.000
 -12147327.24749  -9452206.99247  20633893.629    20633893.384    20633901.093
       239.000         202.000
 00  4 27 16 25 29.9970000  0  7G 2G26G 4G24G 5G 7G 9
    242286.12149    189285.26147  21179481.373    21179480.357    21179489.378
       232.000         191.000
   4337556.72349   3375868.21445  23551920.331    23551919.834    23551932.506
       215.000         154.000
 -13669767.98649 -10631209.58747  19948365.991    19948366.164    19948374.528
       238.000         201.000
 -13469952.81149 -10140179.49446  22128100.703    22128100.985    22128114.546
       220.000         169.000
  -7701845.27849  -5978129.99445  23347475.719    23347475.318    23347487.282
       216.000         156.000
    342749.66549    268147.01847  20346818.814    20346817.943    20346825.610
       240.000         203.000
 -12229387.21849  -9516149.82447  20618278.127    20618277.890    20618285.616
       239.000         202.000
 00  4 27 16 25 59.9960000  0  7G 2G26G 4G24G 5G 7G 9
    254521.71349    198819.38147  21181809.772    21181808.789    21181817.806
       231.000         191.000
   4379535.18449   3408578.44745  23559908.683    23559908.224    23559920.897
       213.000         152.000
 -13763491.08749 -10704240.53647  19930530.996    19930531.206    19930539.597
       238.000         202.000
 -13609790.58549 -10249143.86946  22101490.412    22101490.599    22101504.153
       220.000         169.000
  -7822391.48049  -6072061.95945  23324536.349    23324536.005    23324548.069
       214.000         157.000
    356694.58649    279013.15747  20349472.532    20349471.625    20349479.269
       240.000         204.000
 -12310963.61649  -9579715.85447  20602754.654    20602754.408    20602762.149
       238.000         201.000
 00  4 27 16 26 29.9960000  0  7G 2G26G 4G24G 5G 7G 9
    266972.92849    208521.52347  21184179.212    21184178.236    21184187.297
       232.000         191.000
   4421514.34249   3441289.19545  23567897.167    23567896.712    23567909.416
       216.000         155.000
 -13856710.68549 -10776879.15247  19912791.905    19912792.079    19912800.471
       238.000         201.000
 -13749532.69849 -10358033.71346  22074898.238    22074898.437    22074911.951
       221.000         169.000
  -7943036.31049  -6166070.77745  23301578.275    23301577.957    23301590.043
       215.000         158.000
    370797.06549    290002.05647  20352156.197    20352155.295    20352162.906
       240.000         204.000
 -12392077.81549  -9642921.73147  20587319.169    20587318.902    20587326.640
       238.000         202.000
 00  4 27 16 26 59.9960000  0  7G 2G26G 4G24G 5G 7G 9
    279648.83049    218398.74447  21186591.452    21186590.462    21186599.555
       232.000         192.000
   4463499.60849   3474004.70345  23575887.018    23575886.492    23575899.165
       216.000         156.000
 -13949420.91949 -10849120.85447  19895149.716    19895149.873    19895158.246
       238.000         201.000
 -13889151.13049 -10466827.16646  22048329.728    22048329.871    22048343.285
       221.000         169.000
  -8063751.11449  -6260134.12845  23278606.902    23278606.588    23278618.701
       214.000         159.000
    385065.90149    301120.56247  20354871.577    20354870.639    20354878.211
       241.000         204.000
 -12472726.90049  -9705765.18347  20571972.098    20571971.862    20571979.624
       238.000         202.000
 00  4 27 16 27 29.9960000  0  7G 2G26G 4G24G 5G 7G 9
    292544.15049    228446.94347  21189045.441    21189044.459    21189053.568
       233.000         191.000
   4505487.26849   3506722.06845  23583877.295    23583876.714    23583889.349
       214.000         156.000
 -14041630.54249 -10920972.47647  19877602.836    19877602.964    19877611.290
       239.000         201.000
 -14028634.90349 -10575515.68146  22021786.760    22021786.900    22021800.251
       220.000         170.000
  -8184534.65149  -6354251.05945  23255622.477    23255622.144    23255634.254
       215.000         159.000
    399493.82549    312363.04947  20357617.192    20357616.251    20357623.795
       240.000         204.000
 -12552916.34649  -9768250.46647  20556712.564    20556712.327    20556720.095
       238.000         202.000
 00  4 27 16 27 59.9960000  0  7G 2G26G 4G24G 5G 7G 9
    305651.92649    238660.68247  21191539.934    21191538.915    21191548.014
       233.000         191.000
   4547484.66049   3539447.02945  23591869.375    23591868.758    23591881.441
       213.000         157.000
 -14133353.16349 -10992444.61147  19860148.614    19860148.707    19860157.006
       239.000         201.000
 -14167993.97449 -10684107.02846  21995267.569    21995267.653    21995280.950
       222.000         170.000
  -8305378.69949  -6448415.12645  23232626.503    23232626.154    23232638.286
       216.000         158.000
    414080.74149    323729.43347  20360393.003    20360392.076    20360399.649
       240.000         204.000
 -12632671.68949  -9830397.48747  20541535.648    20541535.401    20541543.182
       239.000         201.000
 00  4 27 16 28 29.9960000  0  7G 2G26G 4G24G 5G 7G 9
    318951.67149    249024.01547  21194070.969    21194069.893    21194078.982
       233.000         190.000
   4589462.63649   3572156.85845  23599857.844    23599857.140    23599869.856
       214.000         156.000
 -14224615.74549 -11063558.26747  19842781.903    19842782.001    19842790.305
       239.000         202.000
 -14307231.20549 -10792603.41846  21968771.676    21968771.620    21968784.813
       221.000         171.000
  -8426296.89149  -6542636.96945  23209616.547    23209616.119    23209628.214
       217.000         159.000
    428785.82349    335187.89147  20363191.302    20363190.394    20363198.016
       240.000         204.000
 -12712030.22749  -9892235.31747  20526434.315    20526434.008    20526441.734
       239.000         201.000
 00  4 27 16 28 59.9960000  0  7G 2G26G 4G24G 5G 7G 9
    332457.91249    259548.25247  21196641.246    21196640.151    21196649.265
       232.000         190.000
   4631437.06249   3604863.90545  23607845.424    23607844.751    23607857.678
       214.000         159.000
 -14315407.34349 -11134304.92347  19825504.830    19825504.919    19825513.221
       239.000         202.000
 -14446304.56249 -10900972.10246  21942306.867    21942306.768    21942319.893
       222.000         171.000
  -8547262.39749  -6636895.68245  23186597.585    23186597.121    23186609.081
       220.000         159.000
    443615.90049    346743.74247  20366013.384    20366012.496    20366020.174
       239.000         204.000
 -12790958.58049  -9953737.94347  20511414.754    20511414.440    20511422.137
       239.000         201.000
 00  4 27 16 29 29.9960000  0  7G 2G26G 4G24G 5G 7G 9
    346176.86449    270238.23047  21199251.937    21199250.868    21199260.040
       231.000         190.000
   4673407.76349   3637568.03445  23615832.342    23615831.708    23615844.775
       214.000         159.000
 -14405732.05049 -11204687.78547  19808316.552    19808316.662    19808324.951
       238.000         201.000
 -14585238.70749 -11009232.31446  21915868.533    21915868.404    21915881.461
       223.000         171.000
  -8668279.39749  -6731194.49945  23163568.766    23163568.281    23163580.170
       217.000         158.000
    458560.68149    358388.98747  20368857.302    20368856.413    20368864.155
       240.000         204.000
 -12869442.93149 -10014894.59347  20496479.666    20496479.384    20496487.044
       238.000         201.000
 00  4 27 16 29 59.9960000  0  7G 2G26G 4G24G 5G 7G 9
    360116.14549    281099.89247  21201904.560    21201903.501    21201912.748
       231.000         191.000
   4715372.33249   3670267.41445  23623818.164    23623817.452    23623830.640
       216.000         155.000
 -14495591.00949 -11274707.70947  19791216.909    19791217.032    19791225.316
       238.000         201.000
 -14724028.88649 -11117380.33746  21889457.473    21889457.421    21889470.408
       223.000         172.000
  -8789332.78249  -6825521.68845  23140533.035    23140532.500    23140544.361
       216.000         157.000
    473624.38349    370126.90147  20371723.879    20371722.990    20371730.760
       240.000         204.000
 -12947451.99049 -10075680.88447  20481635.041    20481634.742    20481642.423
       238.000         202.000
 00  4 27 16 30 29.9960000  0  7G 2G26G 4G24G 5G 7G 9
    374270.20349    292128.90547  21204598.018    21204597.007    21204606.333
       232.000         191.000
   4757308.74349   3702944.87945  23631798.496    23631797.831    23631811.138
       216.000         153.000
 -14584984.08749 -11344364.60647  19774205.937    19774206.055    19774214.334
       238.000         201.000
 -14862678.29949 -11225418.65046  21863073.185    21863073.204    21863086.151
       225.000         172.000
  -8910422.09649  -6919876.87145  23117490.525    23117489.889    23117501.696
       215.000         156.000
    488813.72649    381962.71247  20374614.369    20374613.473    20374621.256
       240.000         204.000
 -13024962.94549 -10136079.04447  20466885.259    20466884.933    20466892.606
       239.000         203.000
 00  4 27 16 30 59.9960000  0  7G 2G26G 4G24G 5G 7G 9
    388645.20549    303330.07947  21207333.624    21207332.575    21207341.965
       231.000         191.000
   4799235.11249   3735614.48445  23639777.089    23639776.345    23639789.736
       216.000         155.000
 -14673893.57249 -11413644.67947  19757286.996    19757287.113    19757295.387
       239.000         202.000
 -15001195.41049 -11333353.89246  21836714.104    21836714.118    21836727.067
       224.000         172.000
  -9031528.78449  -7014245.59845  23094444.447    23094443.891    23094455.737
       214.000         156.000
    504155.33149    393917.16247  20377533.860    20377532.948    20377540.715
       240.000         204.000
 -13101957.74149 -10196074.99947  20452233.697    20452233.348    20452241.023
       239.000         203.000
 00  4 27 16 31 29.9960000  0  7G 2G26G 4G24G 5G 7G 9
    403243.73149    314705.44247  21210111.758    21210110.666    21210120.095
       231.000         190.000
   4841152.40149   3768277.01145  23647753.929    23647753.170    23647766.695
       217.000         157.000
 -14762311.15549 -11482541.44947  19740461.703    19740461.792    19740470.052
       239.000         203.000
 -15139595.96049 -11441198.27946  21810377.237    21810377.234    21810390.130
       225.000         172.000
  -9152657.56449  -7108631.54745  23071394.186    23071393.735    23071405.538
       212.000         154.000
    519645.55649    405987.43147  20380481.673    20380480.709    20380488.455
       240.000         204.000
 -13178455.52149 -10255683.67347  20437676.683    20437676.327    20437684.013
       239.000         202.000
 00  4 27 16 31 59.9960000  0  7G 2G26G 4G24G 5G 7G 9
    418061.54749    326251.67547  21212931.574    21212930.498    21212939.956
       231.000         189.000
   4883046.10549   3800921.12945  23655726.344    23655725.569    23655739.080
       216.000         154.000
 -14850217.87149 -11551040.14847  19723733.605    19723733.686    19723741.929
       239.000         203.000
 -15277851.38249 -11548929.59046  21784067.923    21784067.979    21784080.821
       224.000         173.000
  -9273816.52349  -7203040.99545  23048338.384    23048337.842    23048349.638
       215.000         157.000
    535290.82549    418178.49147  20383458.918    20383457.957    20383465.676
       240.000         203.000
 -13254463.10149 -10314910.37447  20423212.935    20423212.567    20423220.226
       239.000         202.000
 00  4 27 16 32 29.9960000  0  7G 2G26G 4G24G 5G 7G 9
    433093.07749    337964.43247  21215792.017    21215790.951    21215800.432
       230.000         188.000
   4924903.26649   3833536.77945  23663691.633    23663690.892    23663704.449
       214.000         153.000
 -14937614.75449 -11619141.58047  19707102.506    19707102.580    19707110.812
       239.000         203.000
 -15415971.37849 -11656555.37446  21757784.513    21757784.513    21757797.347
       225.000         173.000
  -9395026.71449  -7297490.38345  23025272.795    23025272.239    23025283.991
       216.000         158.000
    551071.71449    430475.25147  20386461.957    20386461.007    20386468.731
       240.000         203.000
 -13330006.00349 -10373774.98147  20408837.624    20408837.245    20408844.874
       239.000         203.000
 00  4 27 16 32 59.9960000  0  7G 2G26G 4G24G 5G 7G 9
    448358.10949    349859.12947  21218696.953    21218695.875    21218705.325
       230.000         188.000
   4966734.59649   3866132.30845  23671652.044    23671651.308    23671664.934
       212.000         151.000
 -15024499.62449 -11686844.03947  19690568.859    19690568.932    19690577.132
       239.000         203.000
 -15553942.04749 -11764064.79846  21731529.361    21731529.424    21731542.239
       225.000         174.000
  -9516295.48449  -7391985.40545  23002196.045    23002195.481    23002207.222
       214.000         158.000
    566968.50049    442862.31347  20389487.019    20389486.084    20389493.810
       239.000         203.000
 -13405091.32149 -10432283.03247  20394549.339    20394548.972    20394556.607
       239.000         203.000
 00  4 27 16 33 29.9960000  0  7G 2G26G 4G24G 5G 7G 9
    463862.68349    361940.48147  21221647.457    21221646.411    21221655.826
       230.000         188.000
   5008532.76249   3898701.98045  23679606.259    23679605.480    23679619.144
       217.000         153.000
 -15110876.67949 -11754150.80847  19674131.811    19674131.892    19674140.102
       239.000         202.000
 -15691742.19749 -11871441.34546  21705306.696    21705306.815    21705319.583
       226.000         175.000
  -9637636.07249  -7486536.38745  22979105.565    22979105.029    22979116.769
       213.000         156.000
    582971.87749    455332.43947  20392532.357    20392531.448    20392539.172
       238.000         202.000
 -13479703.59049 -10490422.47347  20380351.133    20380350.756    20380358.405
       240.000         203.000
 00  4 27 16 33 59.9960000  0  7G 2G26G 4G24G 5G 7G 9
    479591.23449    374196.36247  21224640.625    21224639.561    21224648.957
       232.000         189.000
   5050281.32549   3931233.01845  23687551.157    23687550.297    23687563.934
       217.000         156.000
 -15196767.56949 -11821078.73647  19657787.283    19657787.371    19657795.587
       239.000         203.000
 -15829376.63649 -11978688.77046  21679115.693    21679115.772    21679128.427
       227.000         175.000
  -9759064.68049  -7581155.95545  22955998.295    22955997.845    22956009.559
       214.000         156.000
    599077.28349    467882.06847  20395597.137    20395596.240    20395603.940
       238.000         203.000
 -13553838.10749 -10548189.64947  20366243.833    20366243.448    20366251.101
       239.000         204.000
 00  4 27 16 34 29.9960000  0  7G 2G26G 4G24G 5G 7G 9
    495539.26749    386623.28147  21227675.624    21227674.503    21227683.883
       231.000         189.000
   5091994.48249   3963736.43945  23695489.171    23695488.316    23695501.990
       217.000         154.000
 -15282184.80349 -11887637.58247  19641532.905    19641532.996    19641541.187
       239.000         203.000
 -15966850.27549 -12085810.89146  21652955.328    21652955.306    21652967.898
       228.000         175.000
  -9880561.82449  -7675828.93945  22932877.973    22932877.654    22932889.239
       213.000         157.000
    615291.34449    480516.34547  20398682.616    20398681.711    20398689.391
       239.000         203.000
 -13627499.54549 -10605588.18547  20352226.565    20352226.164    20352233.829
       241.000         204.000
 00  4 27 16 34 59.9960000  0  7G 2G26G 4G24G 5G 7G 9
    511704.48149    399219.41247  21230751.931    21230750.764    21230760.146
       231.000         189.000
   5133675.60749   3996214.91245  23703421.031    23703420.195    23703433.919
       216.000         150.000
 -15367114.85149 -11953816.80047  19625371.286    19625371.354    19625379.501
       240.000         203.000
 -16104150.47349 -12192797.87646  21626827.869    21626827.835    21626840.332
       227.000         176.000
 -10002119.65249  -7770549.19245  22909746.142    22909745.864    22909757.424
       214.000         157.000
    631629.81349    493247.56447  20401791.751    20401790.863    20401798.524
       239.000         203.000
 -13700683.34049 -10662614.53847  20338300.126    20338299.754    20338307.423
       240.000         203.000
 00  4 27 16 35 29.9960000  0  7G 2G26G 4G24G 5G 7G 9
    528065.58549    411968.19147  21233865.431    21233864.283    21233873.692
       231.000         188.000
   5175306.53149   4028654.28845  23711343.461    23711342.569    23711356.234
       218.000         151.000
 -15451549.67049 -12019610.12747  19609303.928    19609303.953    19609312.051
       240.000         204.000
 -16241274.06049 -12299647.24546  21600734.077    21600733.998    21600746.410
       228.000         176.000
 -10123743.67649  -7865321.04345  22886601.810    22886601.510    22886613.027
       214.000         158.000
    648102.68049    506083.49947  20404926.461    20404925.576    20404933.231
       239.000         203.000
 -13773392.04949 -10719270.69147  20324464.070    20324463.749    20324471.408
       240.000         203.000
 00  4 27 16 35 59.9960000  0  7G 2G26G 4G24G 5G 7G 9
    544631.84049    424876.82947  21237017.950    21237016.836    21237026.275
       230.000         189.000
   5216892.98749   4061058.99445  23719257.488    23719256.476    23719270.197
       216.000         149.000
 -15535468.91049 -12085001.71447  19593334.625    19593334.635    19593342.722
       239.000         204.000
 -16378206.57949 -12406347.73546  21574676.505    21574676.499    21574688.824
       225.000         176.000
 -10245412.73949  -7960128.00145  22863448.938    22863448.582    22863460.016
       216.000         158.000
    664729.56349    519039.45547  20408090.521    20408089.615    20408097.281
       240.000         204.000
 -13845634.18849 -10775563.28747  20310716.801    20310716.507    20310724.188
       240.000         202.000
 00  4 27 16 36 29.9960000  0  7G 2G26G 4G24G 5G 7G 9
    561405.47549    437947.04547  21240209.979    21240208.851    21240218.294
       231.000         188.000
   5258425.40149   4093421.59545  23727160.992    23727160.094    23727173.819
       210.000         147.000
 -15618863.67249 -12149984.62447  19577465.081    19577465.116    19577473.194
       239.000         204.000
 -16514950.95949 -12512901.61646  21548654.730    21548654.751    21548667.016
       226.000         176.000
 -10367117.07949  -8054962.44945  22840289.377    22840288.969    22840300.283
       214.000         157.000
    681502.73949    532109.40747  20411282.476    20411281.524    20411289.194
       239.000         204.000
 -13917419.66949 -10831500.04647  20297056.486    20297056.195    20297063.860
       240.000         203.000
 00  4 27 16 36 59.9960000  0  7G 2G26G 4G24G 5G 7G 9
    578392.44749    451183.50247  21243442.604    21243441.459    21243450.895
       230.000         188.000
   5299884.93249   4125727.40445  23735050.595    23735049.750    23735063.578
       211.000         146.000
 -15701730.70149 -12214556.31247  19561695.963    19561696.023    19561704.089
       239.000         204.000
 -16651513.71149 -12619313.97846  21522667.567    21522667.570    21522679.796
       225.000         176.000
 -10488870.99649  -8149835.53445  22817120.357    22817119.922    22817131.148
       215.000         157.000
    698404.05649    545279.20647  20414498.762    20414497.795    20414505.506
       239.000         203.000
 -13988732.26749 -10887068.32147  20283486.235    20283485.889    20283493.542
       241.000         203.000
 00  4 27 16 37 29.9960000  0  7G 2G26G 4G24G 5G 7G 9
    595609.47749    464599.22846  21246719.067    21246717.883    21246727.294
       230.000         187.000
   5341275.26849   4157979.25745  23742927.212    23742926.356    23742940.163
       216.000         146.000
 -15784074.43049 -12278720.23247  19546026.467    19546026.521    19546034.560
       240.000         204.000
 -16787894.73949 -12725584.76446  21496714.930    21496714.967    21496727.172
       226.000         176.000
 -10610660.60649  -8244736.41145  22793944.548    22793944.021    22793955.228
       211.000         156.000
    715431.98749    558547.67247  20417739.080    20417738.135    20417745.896
       240.000         203.000
 -14059548.75049 -10942250.02347  20270010.309    20270009.969    20270017.648
       240.000         203.000
 00  4 27 16 37 59.9960000  0  7G 2G26G 4G24G 5G 7G 9
    613061.82349    478198.31746  21250040.302    21250039.097    21250048.497
       230.000         187.000
   5382603.12049   4190182.44045  23750791.950    23750791.059    23750804.851
       212.000         145.000
 -15865918.55549 -12342494.84147  19530452.022    19530452.071    19530460.112
       239.000         204.000
 -16924123.33749 -12831736.76446  21470791.331    21470791.399    21470803.550
       225.000         177.000
 -10732468.02549  -8339651.16745  22770765.278    22770764.728    22770775.961
       212.000         156.000
    732572.06149    571903.51247  20421000.756    20420999.819    20421007.643
       239.000         204.000
 -14129868.33249 -10997044.52747  20256628.955    20256628.605    20256636.302
       240.000         203.000
 00  4 27 16 38 29.9960000  0  8G 2G26G 4G24G 5G 7G 9G16
    630756.64649    491986.34046  21253407.593    21253406.403    21253415.879
       230.000         187.000
   5423873.84549   4222341.10345  23758645.658    23758644.855    23758658.686
       210.000         145.000
 -15947263.35349 -12405880.36547  19514972.571    19514972.634    19514980.707
       240.000         204.000
 -17060195.87849 -12937767.15546  21444897.423    21444897.529    21444909.654
       226.000         177.000
 -10854285.95149  -8434574.14145  22747583.969    22747583.434    22747594.659
       211.000         155.000
    749816.26149    585340.49047  20424282.212    20424281.289    20424289.183
       239.000         203.000
 -14199677.60649 -11051441.39347  20243344.671    20243344.347    20243352.070
       241.000         204.000
  -2473263.73559  -1914681.96755  23959684.388    23959683.810    23959702.131
       211.000         152.000
 00  4 27 16 38 59.9960000  0  8G 2G26G 4G24G 5G 7G 9G16
    648689.09249    505959.53246  21256820.102    21256818.940    21256828.493
       230.000         187.000
   5465081.46549   4254450.59745  23766487.359    23766486.538    23766500.578
       209.000         142.000
 -16028112.73649 -12468879.86647  19499587.450    19499587.494    19499595.548
       240.000         205.000
 -17196114.18449 -13043677.39046  21419032.962    21419033.008    21419045.073
       226.000         177.000
 -10976126.35049  -8529514.61545  22724398.449    22724397.891    22724409.063
       211.000         155.000
    767157.55849    598853.11847  20427582.179    20427581.265    20427589.191
       239.000         203.000
 -14268975.31749 -11105439.63647  20230157.837    20230157.469    20230165.194
       241.000         204.000
  -2564122.42449  -1985480.78945  23942394.567    23942393.903    23942412.167
       211.000         154.000
 00  4 27 16 39 29.9960000  0  8G 2G26G 4G24G 5G 7G 9G16
    666865.18749    520122.57146  21260278.999    21260277.866    21260287.442
       230.000         186.000
   5506234.42549   4286517.46745  23774318.810    23774317.966    23774332.066
       212.000         145.000
 -16108469.08349 -12531495.18947  19484296.157    19484296.188    19484304.216
       240.000         205.000
 -17331862.40649 -13149455.07846  21393200.833    21393200.863    21393212.898
       226.000         178.000
 -11097980.03149  -8624465.43845  22701210.329    22701209.818    22701220.942
       211.000         155.000
    784600.66449    612445.09647  20430901.525    20430900.610    20430908.574
       239.000         203.000
 -14337783.44249 -11159056.38847  20217064.137    20217063.745    20217071.505
       241.000         205.000
  -2654732.12549  -2056085.59545  23925152.019    23925151.432    23925169.616
       207.000         152.000
 00  4 27 16 39 59.9960000  0  8G 2G26G 4G24G 5G 7G 9G16
    685268.15549    534462.38746  21263781.076    21263779.946    21263789.580
       230.000         187.000
   5547326.47449   4318536.89545  23782138.713    23782137.744    23782152.047
       212.000         148.000
 -16188332.47549 -12593726.38847  19469098.612    19469098.660    19469106.691
       240.000         205.000
 -17467433.02249 -13255094.37346  21367402.499    21367402.535    21367414.517
       228.000         178.000
 -11219860.09549  -8719436.83145  22678017.216    22678016.734    22678027.863
       211.000         157.000
    802131.17949    626105.18347  20434237.502    20434236.593    20434244.556
       239.000         203.000
 -14406124.60949 -11212309.27147  20204059.241    20204058.868    20204066.668
       241.000         205.000
  -2745095.72849  -2126498.61345  23907956.167    23907955.645    23907973.829
       204.000         150.000
 00  4 27 16 40 29.9960000  0  8G 2G26G 4G24G 5G 7G 9G16
    703892.20449    548974.46946  21267325.244    21267324.113    21267333.779
       229.000         186.000
   5588338.10249   4350493.65445  23789943.370    23789942.327    23789956.729
       209.000         146.000
 -16267675.79649 -12655552.34147  19454000.088    19454000.118    19454008.133
       240.000         205.000
 -17602793.75649 -13360570.09046  21341644.180    21341644.152    21341656.088
       228.000         180.000
 -11341788.67749  -8814446.00145  22654814.963    22654814.423    22654825.509
       215.000         158.000
    819747.17149    639831.87247  20437589.802    20437588.857    20437596.775
       240.000         203.000
 -14473997.64849 -11265197.37747  20191143.474    20191143.073    20191150.865
       241.000         204.000
  -2835207.61149  -2196715.51145  23890808.066    23890807.720    23890825.990
       206.000         152.000
 00  4 27 16 40 59.9960000  0  8G 2G26G 4G24G 5G 7G 9G16
    722744.48749    563664.40646  21270912.815    21270911.693    21270921.418
       230.000         185.000
   5629277.18449   4382393.89945  23797734.021    23797733.025    23797747.567
       209.000         143.000
 -16346482.62849 -12716960.24647  19439003.661    19439003.666    19439011.686
       240.000         205.000
 -17737929.71849 -13465870.64446  21315928.581    21315928.509    21315940.426
       228.000         180.000
 -11463757.28149  -8909486.39345  22631605.040    22631604.539    22631615.503
       215.000         159.000
    837462.97249    653636.31147  20440961.081    20440960.131    20440967.990
       239.000         203.000
 -14541384.16949 -11317706.37347  20178320.332    20178319.885    20178327.647
       242.000         205.000
  -2925067.65049  -2266736.14545  23873707.973    23873707.674    23873726.106
       207.000         155.000
 00  4 27 16 41 29.9960000  0  8G 2G26G 4G24G 5G 7G 9G16
    741817.57349    578526.40346  21274542.392    21274541.280    21274551.079
       229.000         185.000
   5670138.42249   4414233.47745  23805509.832    23805508.860    23805523.529
       208.000         143.000
 -16424756.00949 -12777952.46747  19424108.685    19424108.725    19424116.756
       240.000         205.000
 -17872836.24449 -13570992.45746  21290256.615    21290256.521    21290268.436
       228.000         181.000
 -11585774.42749  -9004564.61345  22608385.816    22608385.373    22608396.299
       215.000         159.000
    855269.41349    667511.39347  20444349.626    20444348.668    20444356.475
       240.000         202.000
 -14608281.89549 -11369834.49647  20165590.161    20165589.720    20165597.453
       242.000         206.000
  -3014694.77749  -2336575.35145  23856652.414    23856652.128    23856670.540
       210.000         156.000
 00  4 27 16 41 59.9960000  0  8G 2G26G 4G24G 5G 7G 9G16
    761116.91649    593564.69446  21278214.996    21278213.902    21278223.790
       229.000         184.000
   5710917.76049   4446009.23545  23813270.120    23813269.174    23813283.923
       207.000         141.000
 -16502479.83049 -12838516.45747  19409318.319    19409318.358    19409326.391
       240.000         205.000
 -18007517.14449 -13675938.50846  21264627.593    21264627.495    21264639.382
       228.000         182.000
 -11707834.77149  -9099676.48145  22585158.367    22585157.933    22585168.888
       214.000         158.000
    873181.47749    681468.77147  20447758.298    20447757.295    20447765.051
       239.000         203.000
 -14674665.83049 -11421562.25247  20152957.722    20152957.297    20152965.035
       242.000         205.000
  -3104088.67849  -2406232.83445  23839641.435    23839641.019    23839659.321
       208.000         153.000
 00  4 27 16 42 29.9960000  0  8G 2G26G 4G24G 5G 7G 9G16
    780657.22549    608790.74846  21281933.460    21281932.381    21281942.350
       229.000         184.000
   5751616.74449   4477722.36445  23821015.368    23821014.302    23821029.013
       207.000         138.000
 -16579641.37249 -12898642.31647  19394634.987    19394635.012    19394643.040
       240.000         205.000
 -18141974.58249 -13780710.43746  21239041.089    21239041.020    21239052.822
       229.000         182.000
 -11829919.92349  -9194807.67945  22561926.183    22561925.808    22561936.816
       215.000         161.000
    891224.61049    695528.28747  20451191.924    20451190.882    20451198.589
       240.000         203.000
 -14740520.29949 -11472877.43647  20140426.036    20140425.623    20140433.393
       241.000         205.000
  -3193241.39649  -2475702.34645  23822676.374    23822675.786    23822693.980
       205.000         148.000
 00  4 27 16 42 59.9960000  0  8G 2G26G 4G24G 5G 7G 9G16
    800449.99249    624213.51646  21285699.908    21285698.882    21285708.940
       228.000         185.000
   5792261.08749   4509392.93245  23828749.957    23828748.891    23828763.645
       204.000         137.000
 -16656234.97849 -12958325.63147  19380059.705    19380059.731    19380067.747
       240.000         205.000
 -18276211.27149 -13885310.33146  21213496.600    21213496.525    21213508.273
       229.000         182.000
 -11952013.26649  -9289945.28345  22538692.584    22538692.160    22538703.165
       215.000         161.000
    909407.96249    709697.07747  20454652.122    20454651.110    20454658.844
       239.000         202.000
 -14805842.83349 -11523778.12647  20127995.569    20127995.171    20128002.973
       241.000         206.000
  -3282149.22649  -2544981.01645  23805757.596    23805757.114    23805775.182
       201.000         142.000
 00  4 27 16 43 29.9960000  0  8G 2G26G 4G24G 5G 7G 9G16
    820482.87549    639823.38246  21289512.203    21289511.124    21289521.217
       229.000         185.000
   5832833.20049   4541007.19845  23836470.983    23836469.806    23836484.628
       208.000         141.000
 -16732280.14849 -13017581.60547  19365588.805    19365588.819    19365596.809
       240.000         206.000
 -18410243.68549 -13989751.06346  21187990.970    21187990.920    21188002.623
       229.000         182.000
 -12074126.94549  -9385098.73645  22515455.085    22515454.652    22515465.648
       218.000         161.000
    927716.44549    723963.37647  20458136.084    20458135.111    20458142.924
       239.000         203.000
 -14870652.63049 -11574279.29247  20115662.654    20115662.285    20115670.106
       241.000         205.000
  -3370820.97849  -2614075.77745  23788883.810    23788883.363    23788901.345
       202.000         144.000
 00  4 27 16 43 59.9960000  0  8G 2G26G 4G24G 5G 7G 9G16
    840757.79849    655621.82946  21293370.581    21293369.465    21293379.598
       229.000         185.000
   5873337.98549   4572568.99745  23844179.159    23844178.068    23844192.841
       211.000         143.000
 -16807762.37249 -13076398.91547  19351224.991    19351225.034    19351232.998
       241.000         206.000
 -18544059.08749 -14094022.68446  21162526.676    21162526.589    21162538.261
       229.000         182.000
 -12196239.37049  -9480251.20445  22492217.717    22492217.356    22492228.380
       216.000         161.000
    946154.95049    738330.97547  20461644.801    20461643.863    20461651.746
       239.000         203.000
 -14934949.08949 -11624380.45947  20103427.465    20103427.084    20103434.919
       241.000         206.000
  -3459242.41749  -2682975.44745  23772057.622    23772057.177    23772075.181
       204.000         147.000
 00  4 27 16 44 29.9960000  0  8G 2G26G 4G24G 5G 7G 9G16
    861229.05349    671573.27346  21297266.371    21297265.169    21297275.310
       229.000         185.000
   5913755.35649   4604062.68445  23851870.598    23851869.604    23851884.393
       205.000         142.000
 -16882702.67349 -13134793.93247  19336964.320    19336964.359    19336972.302
       240.000         206.000
 -18677668.55949 -14198133.83346  21137101.496    21137101.434    21137113.063
       229.000         182.000
 -12318374.43849  -9575421.32745  22468976.146    22468975.783    22468986.759
       217.000         162.000
    964678.56049    752764.88247  20465169.736    20465168.808    20465176.757
       238.000         202.000
 -14998763.95749 -11674106.35747  20091283.956    20091283.548    20091291.373
       241.000         206.000
  -3547433.80249  -2751695.91245  23755275.441    23755274.879    23755292.779
       210.000         152.000
 00  4 27 16 44 59.9960000  0  8G 2G26G 4G24G 5G 7G 9G16
    881908.55649    687686.99546  21301201.674    21301200.468    21301210.640
       228.000         185.000
   5954089.00749   4635491.14645  23859545.829    23859544.933    23859559.893
       198.000         134.000
 -16957099.34949 -13192765.34547  19322807.086    19322807.127    19322815.079
       240.000         206.000
 -18811042.92549 -14302061.79846  21111721.027    21111721.000    21111732.623
       229.000         181.000
 -12440526.70149  -9670604.82946  22445731.397    22445730.960    22445741.920
       217.000         163.000
    983285.13049    767263.43647  20468710.457    20468709.567    20468717.564
       239.000         202.000
 -15062084.09349 -11723446.75347  20079234.587    20079234.153    20079241.982
       240.000         206.000
  -3635364.61849  -2820213.29545  23738542.631    23738542.107    23738559.850
       210.000         148.000
 00  4 27 16 45 29.9960000  0  8G 2G26G 4G24G 5G 7G 9G16
    902796.27149    703962.95346  21305176.609    21305175.390    21305185.560
       229.000         184.000
   5994318.52749   4666838.45144  23867201.252    23867200.432    23867215.695
       197.000         131.000
 -17030968.18849 -13250325.46047  19308750.309    19308750.349    19308758.282
       240.000         206.000
 -18944177.72649 -14405803.08146  21086386.161    21086386.182    21086397.782
       229.000         182.000
 -12562691.09849  -9765797.76445  22422484.247    22422483.778    22422494.710
       218.000         161.000
   1001972.64249    781825.06347  20472266.648    20472265.733    20472273.756
       239.000         203.000
 -15124896.12249 -11772391.21947  20067281.896    20067281.471    20067289.283
       241.000         206.000
  -3723025.06549  -2888519.95745  23721861.082    23721860.691    23721878.366
       211.000         148.000
 00  4 27 16 45 59.9960000  0  8G 2G26G 4G24G 5G 7G 9G16
    923894.54549    720402.98046  21309191.652    21309190.409    21309200.542
       229.000         184.000
   6034438.77549   4698100.63645  23874836.060    23874835.243    23874850.698
       200.000         132.000
 -17104291.32949 -13307460.36047  19294797.416    19294797.434    19294805.352
       241.000         206.000
 -19077076.65549 -14509360.57046  21061096.188    21061096.233    21061107.822
       229.000         182.000
 -12684875.14349  -9861006.04545  22399233.339    22399232.879    22399243.808
       218.000         162.000
   1020739.47249    796448.48847  20475837.898    20475836.995    20475845.019
       240.000         202.000
 -15187195.30649 -11820936.07647  20055426.768    20055426.367    20055434.164
       241.000         207.000
  -3810404.86449  -2956607.97745  23705232.990    23705232.732    23705250.498
       209.000         149.000
 00  4 27 16 46 29.9960000  0  8G 2G26G 4G24G 5G 7G 9G16
    945214.34649    737015.63046  21313248.869    21313247.591    21313257.662
       229.000         183.000
   6074438.46649   4729268.91244  23882447.998    23882447.061    23882462.685
       197.000         131.000
 -17177082.84549 -13364181.00247  19280945.675    19280945.693    19280953.580
       240.000         206.000
 -19209758.14049 -14612748.63746  21035847.612    21035847.669    21035859.221
       229.000         182.000
 -12807100.03249  -9956246.14446  22375974.619    22375974.193    22375985.106
       219.000         163.000
   1039592.90249    811139.39047  20479425.682    20479424.739    20479432.754
       239.000         202.000
 -15248978.01849 -11869078.48647  20043669.948    20043669.522    20043677.331
       241.000         206.000
  -3897493.40649  -3024469.09445  23688660.441    23688660.111    23688678.016
       211.000         147.000
 00  4 27 16 46 59.9960000  0  8G 2G26G 4G24G 5G 7G 9G16
    966801.24049    753836.40846  21317356.833    21317355.583    21317365.645
       228.000         184.000
   6114334.93449   4760356.71644  23890040.329    23890039.296    23890054.920
       200.000         131.000
 -17249326.74449 -13420474.93247  19267198.128    19267198.119    19267205.995
       240.000         206.000
 -19342208.03349 -14715956.24546  21010643.122    21010643.171    21010654.703
       230.000         183.000
 -12929351.57849 -10051507.00946  22352710.871    22352710.430    22352721.321
       220.000         164.000
   1058570.71749    825927.22247  20483037.131    20483036.176    20483044.184
       239.000         202.000
 -15310200.39249 -11916784.26247  20032019.718    20032019.305    20032027.092
       241.000         207.000
  -3984262.28949  -3092081.14445  23672148.805    23672148.391    23672166.299
       215.000         149.000
 00  4 27 16 47 29.9960000  0  8G 2G26G 4G24G 5G 7G 9G16
    988626.11849    770842.63046  21321510.056    21321508.844    21321518.934
       228.000         184.000
   6154119.61049   4791357.40344  23897611.555    23897610.385    23897626.137
       198.000         129.000
 -17321026.54349 -13476344.88847  19253554.101    19253554.097    19253561.942
       240.000         206.000
 -19474453.71949 -14819004.72446  20985477.537    20985477.575    20985489.063
       230.000         184.000
 -13051644.89149 -10146800.42146  22329439.149    22329438.724    22329449.593
       220.000         163.000
   1077660.15849    840802.04547  20486669.860    20486668.861    20486676.848
       240.000         202.000
 -15370876.07749 -11964064.05247  20020473.551    20020473.125    20020480.927
       241.000         207.000
  -4070747.79449  -3159472.40745  23655691.205    23655690.744    23655708.548
       215.000         151.000
 00  4 27 16 47 59.9950000  0  8G 2G26G 4G24G 5G 7G 9G16
   1010698.01649    788041.33246  21325710.296    21325709.095    21325719.252
       228.000         184.000
   6193805.93249   4822281.47744  23905163.918    23905162.779    23905178.559
       196.000         128.000
 -17392155.78849 -13531770.26247  19240018.673    19240018.644    19240026.463
       241.000         207.000
 -19606471.86249 -14921875.90646  20960355.251    20960355.286    20960366.705
       231.000         183.000
 -13173965.93749 -10242115.43046  22306162.267    22306161.758    22306172.599
       221.000         164.000
   1096877.16949    855776.26247  20490326.861    20490325.818    20490333.806
       240.000         202.000
 -15431004.05949 -12010917.06247  20009031.617    20009031.196    20009038.985
       241.000         207.000
  -4156932.98249  -3226629.69445  23639290.526    23639290.191    23639307.850
       212.000         154.000
 00  4 27 16 48 29.9950000  0  8G 2G26G 4G24G 5G 7G 9G16
   1033015.92149    805431.71846  21329957.397    21329956.181    21329966.418
       227.000         184.000
   6233392.45049   4853127.70344  23912697.115    23912696.043    23912711.867
       196.000         129.000
 -17462743.29049 -13586773.50347  19226586.329    19226586.298    19226594.108
       241.000         207.000
 -19738258.90249 -15024566.99946  20935277.015    20935276.989    20935288.340
       231.000         185.000
 -13296311.53749 -10337449.58446  22282880.660    22282880.128    22282890.905
       223.000         165.000
   1116220.57049    870848.95047  20494007.844    20494006.823    20494014.804
       239.000         202.000
 -15490601.49549 -12057356.66447  19997690.663    19997690.212    19997697.966
       241.000         206.000
  -4242841.03649  -3293570.91045  23622942.701    23622942.336    23622960.020
       211.000         156.000
 00  4 27 16 48 59.9950000  0  8G 2G26G 4G24G 5G 7G 9G16
   1055562.40449    823000.21046  21334247.917    21334246.749    21334257.115
       227.000         183.000
   6272872.34149   4883890.96844  23920210.154    23920209.113    23920225.035
       198.000         129.000
 -17532791.27449 -13641356.33947  19213256.684    19213256.612    19213264.432
       240.000         207.000
 -19869794.54949 -15127062.20346  20910246.537    20910246.493    20910257.826
       232.000         185.000
 -13418663.90049 -10432789.01146  22259597.842    22259597.252    22259607.907
       223.000         165.000
   1135669.47949    886003.85247  20497708.869    20497707.870    20497715.881
       239.000         202.000
 -15549678.25749 -12103390.53347  19986448.775    19986448.311    19986456.039
       241.000         206.000
  -4328485.28049  -3360306.55045  23606645.177    23606644.701    23606662.317
       212.000         155.000
 00  4 27 16 49 29.9950000  0  8G 2G26G 4G24G 5G 7G 9G16
   1078355.74349    840761.05146  21338585.467    21338584.294    21338594.742
       228.000         184.000
   6312253.90549   4914577.54744  23927704.451    23927703.401    23927719.273
       198.000         127.000
 -17602275.05549 -13695499.53747  19200034.314    19200034.286    19200042.120
       241.000         207.000
 -20001046.82049 -15229336.59546  20885269.979    20885269.930    20885281.259
       232.000         186.000
 -13540988.05049 -10528106.46046  22236320.320    22236319.736    22236330.234
       222.000         165.000
   1155219.84249    901237.80447  20501429.286    20501428.253    20501436.282
       239.000         201.000
 -15608246.04249 -12149027.80047  19975303.773    19975303.274    19975310.987
       241.000         206.000
  -4413848.22049  -3426823.06845  23590401.099    23590400.650    23590418.138
       214.000         157.000
 00  4 27 16 49 59.9950000  0  8G 2G26G 4G24G 5G 7G 9G16
   1101402.83849    858719.63646  21342971.351    21342970.167    21342980.666
       228.000         183.000
   6351513.21549   4945168.90944  23935175.724    23935174.584    23935190.499
       196.000         127.000
 -17671208.45549 -13749213.86847  19186916.705    19186916.682    19186924.531
       240.000         206.000
 -20132008.57149 -15331384.59646  20860348.707    20860348.660    20860359.980
       232.000         186.000
 -13663299.17449 -10623413.75646  22213045.318    22213044.690    22213055.057
       223.000         165.000
   1174852.71549    916536.06047  20505165.373    20505164.340    20505172.387
       238.000         201.000
 -15666317.13049 -12194278.03147  19964253.225    19964252.753    19964260.463
       241.000         207.000
  -4498919.67649  -3493112.42645  23574212.456    23574211.977    23574229.443
       208.000         155.000
 00  4 27 16 50 29.9950000  0  8G 2G26G 4G24G 5G 7G 9G16
   1124711.25349    876881.83846  21347406.989    21347405.758    21347416.334
       228.000         184.000
   6390665.20348   4975676.62544  23942625.959    23942625.191    23942641.169
       193.000         124.000
 -17739585.87649 -13802494.97547  19173904.904    19173904.905    19173912.716
       240.000         207.000
 -20262667.78049 -15433196.85946  20835484.996    20835484.978    20835496.268
       232.000         187.000
 -13785597.27449 -10718710.90446  22189772.806    22189772.114    22189782.396
       223.000         166.000
   1194562.22749    931894.02747  20508916.062    20508915.015    20508923.087
       238.000         201.000
 -15723871.74849 -12239125.81947  19953301.009    19953300.512    19953308.250
       242.000         207.000
  -4583688.01049  -3559165.58145  23558081.373    23558081.008    23558098.496
       206.000         156.000
 00  4 27 16 50 59.9950000  0  8G 2G26G 4G24G 5G 7G 9G16
   1148276.56949    895244.24046  21351891.464    21351890.224    21351900.901
       227.000         183.000
   6429713.07048   5006103.15944  23950056.804    23950056.094    23950072.072
       194.000         124.000
 -17807385.51649 -13855325.86847  19161003.075    19161003.085    19161010.858
       241.000         207.000
 -20393013.16249 -15534764.56546  20810681.070    20810681.000    20810692.291
       232.000         187.000
 -13907887.56349 -10814001.97646  22166501.689    22166501.036    22166511.222
       223.000         165.000
   1214346.93649    947310.60047  20512681.025    20512679.991    20512688.082
       238.000         200.000
 -15780883.28749 -12283550.43047  19942452.101    19942451.626    19942459.370
       241.000         207.000
  -4668124.50649  -3624960.07045  23542013.466    23542013.109    23542030.707
       204.000         154.000
 00  4 27 16 51 29.9950000  0  8G 2G26G 4G24G 5G 7G 9G16
   1172093.28749    913802.53146  21356423.756    21356422.528    21356433.297
       228.000         184.000
   6468646.12848   5036440.29344  23957465.939    23957464.956    23957481.223
       186.000         123.000
 -17874603.51949 -13907703.53247  19148211.912    19148211.909    19148219.678
       240.000         207.000
 -20523053.27349 -15636094.39246  20785935.225    20785935.118    20785946.384
       232.000         186.000
 -14030186.83349 -10909300.02946  22143228.804    22143228.190    22143238.303
       221.000         165.000
   1234215.50049    962792.51647  20516461.896    20516460.888    20516469.007
       238.000         200.000
 -15837350.96049 -12327551.24847  19931706.687    19931706.199    19931713.944
       242.000         207.000
  -4752221.84549  -3690490.34145  23526010.165    23526009.850    23526027.481
       208.000         156.000
 00  4 27 16 51 59.9950000  0  8G 2G26G 4G24G 5G 7G 9G16
   1196134.09649    932535.44146  21360998.737    21360997.489    21361008.339
       229.000         185.000
   6507457.01048   5066682.20644  23964851.304    23964850.403    23964867.075
       190.000         126.000
 -17941264.13949 -13959646.87047  19135526.785    19135526.805    19135534.614
       240.000         207.000
 -20652813.47849 -15737206.13146  20761242.552    20761242.477    20761253.734
       232.000         186.000
 -14152523.01349 -11004626.82746  22119948.778    22119948.280    22119958.399
       220.000         165.000
   1254175.59449    978345.75747  20520260.189    20520259.205    20520267.340
       238.000         199.000
 -15893269.34449 -12371124.04747  19921065.781    19921065.322    19921073.050
       241.000         207.000
  -4835986.23149  -3755761.16145  23510070.392    23510070.008    23510087.515
       210.000         155.000
 00  4 27 16 52 29.9950000  0  8G 2G26G 4G24G 5G 7G 9G16
   1220380.13249    951428.25946  21365612.823    21365611.537    21365622.429
       228.000         185.000
   6546145.65549   5096828.85845  23972213.767    23972212.867    23972229.821
       202.000         132.000
 -18007373.60949 -14011160.74647  19122946.592    19122946.590    19122954.415
       240.000         207.000
 -20782313.48049 -15838115.11646  20736599.357    20736599.342    20736610.576
       231.000         186.000
 -14274887.18949 -11099975.45346  22096663.532    22096663.051    22096673.214
       219.000         165.000
   1274225.53749    993969.00147  20524075.587    20524074.600    20524082.742
       237.000         199.000
 -15948644.60349 -12414273.63247  19910528.243    19910527.794    19910535.518
       241.000         207.000
  -4919424.84549  -3820778.12345  23494192.683    23494192.100    23494209.534
       207.000         151.000
 00  4 27 16 52 59.9950000  0  8G 2G26G 4G24G 5G 7G 9G16
   1244827.17149    970477.70646  21370265.128    21370263.828    21370274.746
       229.000         184.000
   6584688.05449   5126861.58045  23979548.553    23979547.500    23979564.669
       203.000         132.000
 -18072946.26749 -14062256.32047  19110468.570    19110468.553    19110476.336
       241.000         207.000
 -20911571.13649 -15938835.27346  20712002.371    20712002.336    20712013.536
       232.000         186.000
 -14397275.08949 -11195342.56846  22073373.836    22073373.324    22073383.528
       220.000         165.000
   1294366.28649   1009662.99247  20527908.280    20527907.292    20527915.446
       237.000         199.000
 -16003495.39849 -12457014.53947  19900090.448    19900090.040    19900097.781
       241.000         207.000
  -5002540.06849  -3885543.01945  23478376.315    23478375.745    23478393.093
       204.000         151.000
 00  4 27 16 53 29.9950000  0  8G 2G26G 4G24G 5G 7G 9G16
   1269504.87249    989706.90046  21374961.394    21374960.001    21374970.938
       229.000         183.000
   6623103.02749   5156795.08744  23986859.012    23986858.069    23986875.147
       202.000         130.000
 -18137976.42549 -14112929.16747  19098093.795    19098093.742    19098101.499
       241.000         207.000
 -21040586.89749 -16039366.94446  20687451.445    20687451.373    20687462.536
       232.000         187.000
 -14519660.50449 -11290707.74346  22050084.531    22050084.062    22050094.325
       219.000         165.000
   1314607.27049   1025435.08547  20531760.068    20531759.089    20531767.265
       237.000         199.000
 -16057836.36749 -12499358.17947  19889749.704    19889749.305    19889757.068
       241.000         207.000
  -5085334.46149  -3950057.95145  23462620.745    23462620.402    23462637.756
       202.000         149.000
 00  4 27 16 53 59.9950000  0  8G 2G26G 4G24G 5G 7G 9G16
   1294425.26649   1009125.20246  21379703.740    21379702.341    21379713.259
       228.000         183.000
   6661394.01749   5186631.92244  23994146.000    23994144.799    23994161.978
       200.000         128.000
 -18202465.42349 -14163180.33047  19085821.968    19085821.893    19085829.654
       241.000         207.000
 -21169355.55649 -16139706.08046  20662947.498    20662947.427    20662958.538
       232.000         186.000
 -14642032.86149 -11386062.73346  22026797.753    22026797.291    22026807.604
       221.000         167.000
   1334937.83349   1041276.98547  20535628.974    20535627.960    20535636.122
       238.000         199.000
 -16111675.87849 -12541311.07947  19879504.440    19879504.004    19879511.777
       242.000         207.000
  -5167808.84349  -4014323.53945  23446926.198    23446925.874    23446943.339
       203.000         150.000
 00  4 27 16 54 29.9950000  0  8G 2G26G 4G24G 5G 7G 9G16
   1319604.07949   1028744.84646  21384495.287    21384493.887    21384504.725
       228.000         182.000
   6699552.47049   5216365.51144  24001407.733    24001406.489    24001423.520
       198.000         128.000
 -18266393.68449 -14212994.55547  19073656.812    19073656.757    19073664.518
       241.000         208.000
 -21297855.89049 -16239836.14746  20638494.665    20638494.568    20638505.608
       233.000         187.000
 -14764377.69849 -11481396.27146  22003516.301    22003515.777    22003526.139
       219.000         167.000
   1355352.46449   1057184.39647  20539513.900    20539512.832    20539520.986
       238.000         200.000
 -16165023.24449 -12582880.48647  19869352.845    19869352.375    19869360.144
       242.000         208.000
  -5249959.02249  -4078336.42245  23431293.409    23431293.119    23431310.608
       207.000         152.000
 00  4 27 16 54 59.9950000  0  8G 2G26G 4G24G 5G 7G 9G16
   1345052.22549   1048574.37346  21389338.155    21389336.685    21389347.437
       229.000         182.000
   6737578.29448   5245995.76844  24008643.844    24008642.783    24008659.769
       194.000         126.000
 -18329752.55349 -14262365.10347  19061600.040    19061599.985    19061607.729
       241.000         207.000
 -21426076.34749 -16339748.12946  20614095.083    20614094.957    20614105.960
       233.000         186.000
 -14886710.39449 -11576720.35846  21980237.076    21980236.545    21980246.979
       220.000         167.000
   1375853.43449   1073159.07347  20543415.263    20543414.153    20543422.301
       238.000         200.000
 -16217881.39249 -12624068.68847  19859294.328    19859293.849    19859301.612
       242.000         209.000
  -5331792.90149  -4142102.83945  23415720.859    23415720.487    23415737.992
       207.000         152.000
 00  4 27 16 55 29.9950000  0  8G 2G26G 4G24G 5G 7G 9G16
   1370765.87449   1068610.78146  21394231.545    21394230.014    21394240.710
       229.000         181.000
   6775476.07249   5275526.23444  24015855.841    24015854.695    24015871.753
       198.000         127.000
 -18392523.91349 -14311277.85647  19049655.083    19049655.007    19049662.740
       240.000         207.000
 -21553995.17349 -16439425.10247  20589752.882    20589752.738    20589763.685
       233.000         188.000
 -15009026.18849 -11672031.26046  21956961.058    21956960.542    21956971.009
       221.000         167.000
   1396446.51449   1089205.54047  20547334.139    20547332.993    20547341.151
       238.000         200.000
 -16270235.76349 -12664864.32547  19849331.706    19849331.211    19849338.968
       243.000         209.000
  -5413317.45049  -4205628.23045  23400207.055    23400206.694    23400224.189
       207.000         150.000
 00  4 27 16 55 59.9950000  0  8G 2G26G 4G24G 5G 7G 9G16
   1396729.44249   1088841.92146  21399172.405    21399170.874    21399181.577
       227.000         181.000
   6813227.96749   5304943.04844  24023040.127    24023038.825    24023056.150
       196.000         127.000
 -18454696.91149 -14359724.35247  19037823.930    19037823.870    19037831.590
       240.000         207.000
 -21681601.08349 -16538858.24047  20565470.246    20565470.098    20565480.979
       233.000         188.000
 -15131328.97749 -11767332.03246  21933687.539    21933687.017    21933697.524
       219.000         168.000
   1417145.26249   1105334.34447  20551273.094    20551271.952    20551280.103
       238.000         200.000
 -16322054.69249 -12705242.73547  19839470.961    19839470.448    19839478.208
       243.000         209.000
  -5494520.86149  -4268903.40945  23384754.426    23384754.069    23384771.503
       212.000         152.000
 00  4 27 16 56 29.9950000  0  8G 2G26G 4G24G 5G 7G 9G16
   1422913.90749   1109245.18746  21404155.184    21404153.747    21404164.518
       227.000         180.000
   6850820.57149   5334235.76444  24030194.064    24030192.614    24030210.138
       197.000         131.000
 -18516290.87049 -14407719.64747  19026102.912    19026102.899    19026110.616
       240.000         207.000
 -21808911.26349 -16638060.93347  20541243.892    20541243.726    20541254.554
       234.000         189.000
 -15253639.12249 -11862638.54846  21910412.616    21910412.098    21910422.633
       221.000         169.000
   1437938.79549   1121537.00747  20555230.146    20555228.958    20555237.096
       238.000         200.000
 -16373329.13449 -12745196.86747  19829713.775    19829713.280    19829721.041
       242.000         208.000
  -5575424.89849  -4331945.33445  23369358.958    23369358.508    23369375.769
       214.000         154.000
 00  4 27 16 56 59.9950000  0  8G 2G26G 4G24G 5G 7G 9G16
   1449323.27649   1129823.72246  21409180.813    21409179.419    21409190.293
       227.000         181.000
   6888271.11149   5363417.75944  24037320.717    24037319.336    24037336.900
       201.000         131.000
 -18577310.00449 -14455267.02947  19014491.352    19014491.333    19014499.054
       240.000         207.000
 -21935920.20249 -16737028.88247  20517074.966    20517074.724    20517085.481
       234.000         190.000
 -15375939.31949 -11957937.28346  21887139.584    21887139.049    21887149.608
       222.000         169.000
   1458835.00849   1137819.67847  20559206.647    20559205.473    20559213.614
       237.000         199.000
 -16424026.43549 -12784701.28747  19820066.412    19820065.913    19820073.681
       242.000         208.000
  -5656017.89749  -4394744.90745  23354022.649    23354022.142    23354039.245
       214.000         153.000
 00  4 27 16 57 29.9950000  0  8G 2G26G 4G24G 5G 7G 9G16
   1475942.05549   1150565.41946  21414246.216    21414244.920    21414255.911
       226.000         181.000
   6925553.08049   5392468.39544  24044415.463    24044414.235    24044431.687
       198.000         127.000
 -18637774.60349 -14502382.31547  19002985.350    19002985.320    19002993.040
       240.000         207.000
 -22062644.06749 -16835774.69847  20492960.294    20492959.989    20492970.678
       235.000         191.000
 -15498222.55749 -12053222.83946  21863869.837    21863869.317    21863879.774
       224.000         171.000
   1479812.72749   1154165.84447  20563198.615    20563197.460    20563205.632
       237.000         199.000
 -16474141.49849 -12823752.01447  19810529.797    19810529.341    19810537.097
       242.000         208.000
  -5736290.61749  -4457294.90245  23338747.267    23338746.638    23338763.683
       215.000         153.000
 00  4 27 16 57 59.9950000  0  8G 2G26G 4G24G 5G 7G 9G16
   1502782.84049   1171480.09446  21419353.981    21419352.685    21419363.767
       225.000         180.000
   6962676.23049   5421395.28644  24051479.987    24051478.749    24051496.270
       201.000         130.000
 -18697679.04849 -14549061.11847  18991585.977    18991585.917    18991593.609
       240.000         207.000
 -22189084.52649 -16934299.68847  20468899.421    20468899.121    20468909.820
       234.000         191.000
 -15620493.56649 -12148498.88146  21840602.363    21840601.880    21840612.260
       223.000         169.000
   1500869.37249   1170573.50947  20567205.548    20567204.442    20567212.686
       236.000         198.000
 -16523670.29049 -12862345.90847  19801104.768    19801104.325    19801112.101
       242.000         208.000
  -5816216.77049  -4519574.85545  23323537.736    23323537.135    23323554.066
       212.000         151.000
 00  4 27 16 58 29.9950000  0  8G 2G26G 4G24G 5G 7G 9G16
   1529858.83449   1192578.04046  21424506.382    21424505.183    21424516.386
       225.000         179.000
   6999649.91048   5450205.72844  24058515.942    24058514.800    24058532.547
       192.000         124.000
 -18757022.08049 -14595302.44647  18980293.391    18980293.331    18980301.012
       240.000         207.000
 -22315229.77949 -17032594.63047  20444894.670    20444894.437    20444905.154
       234.000         191.000
 -15742749.50149 -12243763.15446  21817337.846    21817337.322    21817347.616
       225.000         171.000
   1522003.02649   1187041.18547  20571227.149    20571226.086    20571234.402
       235.000         198.000
 -16572626.98549 -12900494.01647  19791788.692    19791788.212    19791796.005
       242.000         208.000
  -5895785.89349  -4581576.56845  23308395.988    23308395.482    23308412.367
       211.000         149.000
 00  4 27 16 58 59.9950000  0  7G 2G 4G24G 5G 7G 9G16
   1557179.46549   1213866.61046  21429705.366    21429704.238    21429715.555
       224.000         179.000
 -18815786.13649 -14641092.62447  18969110.948    18969110.893    18969118.581
       239.000         207.000
 -22441084.30349 -17130663.01647  20420945.259    20420945.048    20420955.791
       234.000         191.000
 -15864982.49449 -12339009.56846  21794077.734    21794077.158    21794087.342
       226.000         170.000
   1543206.15749   1203562.99247  20575261.955    20575260.947    20575269.335
       235.000         197.000
 -16621032.78049 -12938212.84947  19782577.478    19782576.959    19782584.740
       243.000         208.000
  -5974989.19149  -4643293.23245  23293323.829    23293323.360    23293340.228
       212.000         149.000
 00  4 27 16 59 29.9950000  0  7G 2G 4G24G 5G 7G 9G16
   1584759.70549   1235357.48646  21434953.785    21434952.694    21434964.136
       224.000         180.000
 -18873934.33949 -14686402.92047  18958045.718    18958045.657    18958053.356
       239.000         207.000
 -22566634.08749 -17228493.96047  20397053.835    20397053.652    20397064.395
       234.000         191.000
 -15987189.32049 -12434235.59446  21770822.534    21770821.949    21770832.056
       226.000         171.000
   1564485.95549   1220144.53547  20579311.272    20579310.344    20579318.830
       235.000         196.000
 -16668890.57349 -12975504.67047  19773470.468    19773469.953    19773477.719
       242.000         208.000
  -6053811.74649  -4704713.22145  23278324.010    23278323.750    23278340.618
       210.000         149.000
 00  4 27 16 59 59.9950000  0  7G 2G 4G24G 5G 7G 9G16
   1612583.23549   1257037.93546  21440248.702    21440247.507    21440259.046
       225.000         181.000
 -18931463.10849 -14731230.54147  18947098.354    18947098.287    18947105.984
       240.000         207.000
 -22691867.47349 -17326078.37247  20373222.635    20373222.465    20373233.190
       234.000         191.000
 -16109382.94449 -12529451.33546  21747569.923    21747569.264    21747579.316
       227.000         172.000
   1585832.29349   1236777.92547  20583373.325    20583372.428    20583380.977
       235.000         196.000
 -16716219.01549 -13012384.01047  19764464.171    19764463.679    19764471.447
       242.000         208.000
  -6132268.37749  -4765848.08445  23263393.880    23263393.695    23263410.639
       210.000         150.000
 00  4 27 17  0 29.9950000  0  7G 2G 4G24G 5G 7G 9G16
   1640656.67749   1278913.11546  21445591.163    21445589.905    21445601.513
       225.000         181.000
 -18988375.72249 -14775578.04247  18936268.251    18936268.173    18936275.895
       239.000         207.000
 -22816777.00149 -17423410.43747  20349453.156    20349452.933    20349463.631
       235.000         191.000
 -16231538.21649 -12624637.19546  21724324.491    21724323.836    21724333.773
       229.000         172.000
   1607243.33849   1253461.74147  20587447.738    20587446.841    20587455.443
       235.000         196.000
 -16763011.20449 -13048845.49647  19755559.906    19755559.437    19755567.212
       242.000         208.000
  -6210365.26549  -4826702.64145  23248532.317    23248532.114    23248549.173
       210.000         152.000
 00  4 27 17  0 59.9950000  0  7G 2G 4G24G 5G 7G 9G16
   1668963.95849   1300970.51246  21450978.072    21450976.775    21450988.491
       226.000         181.000
 -19044688.33349 -14819458.00847  18925552.338    18925552.260    18925559.949
       240.000         207.000
 -22941377.29749 -17520501.54047  20325742.489    20325742.248    20325752.884
       235.000         191.000
 -16353649.95249 -12719789.13846  21701087.395    21701086.705    21701096.575
       227.000         172.000
   1628702.89449   1270183.35547  20591531.507    20591530.535    20591539.168
       235.000         196.000
 -16809269.68649 -13084891.10647  19746757.248    19746756.783    19746764.549
       242.000         209.000
  -6288106.04149  -4887279.68745  23233738.672    23233738.477    23233755.493
       210.000         154.000
 00  4 27 17  1 29.9950000  0  7G 2G 4G24G 5G 7G 9G16
   1697515.85649   1323218.53346  21456411.660    21456410.232    21456421.985
       226.000         180.000
 -19100408.11949 -14862876.03447  18914949.288    18914949.186    18914956.826
       240.000         208.000
 -23065631.10349 -17617322.66847  20302097.727    20302097.504    20302108.079
       236.000         192.000
 -16475707.39149 -12814898.74546  21677860.481    21677859.862    21677869.712
       228.000         171.000
   1650233.11749   1286960.03547  20595628.764    20595627.716    20595636.335
       236.000         196.000
 -16854975.05349 -13120505.72047  19738059.832    19738059.371    19738067.154
       242.000         209.000
  -6365467.99949  -4947561.56745  23219017.117    23219016.884    23219033.873
       209.000         149.000
 00  4 27 17  1 59.9950000  0  7G 2G 4G24G 5G 7G 9G16
   1726305.44449   1345651.77446  21461890.366    21461888.898    21461900.672
       225.000         179.000
 -19155572.70549 -14905861.43547  18904451.851    18904451.737    18904459.367
       240.000         208.000
 -23189552.55249 -17713884.81147  20278516.282    20278516.025    20278526.559
       237.000         193.000
 -16597723.52049 -12909976.18146  21654641.532    21654640.931    21654650.745
       227.000         173.000
   1671838.17249   1303795.02147  20599740.268    20599739.142    20599747.732
       235.000         196.000
 -16900135.01549 -13155695.34647  19729466.232    19729465.761    19729473.526
       242.000         209.000
  -6442462.46749  -5007557.14345  23204365.483    23204365.231    23204382.035
       207.000         144.000
 00  4 27 17  2 29.9950000  0  7G 2G 4G24G 5G 7G 9G16
   1755346.39449   1368280.85746  21467416.841    21467415.375    21467427.156
       224.000         177.000
 -19210195.29449 -14948424.50547  18894057.521    18894057.420    18894065.044
       239.000         208.000
 -23313156.47749 -17810199.53147  20254995.277    20254994.948    20255005.469
       237.000         193.000
 -16719704.70549 -13005026.38646  21631429.185    21631428.631    21631438.393
       227.000         172.000
   1693539.49649   1320705.03647  20603870.020    20603868.872    20603877.449
       235.000         195.000
 -16944760.41049 -13190468.42147  19720974.324    19720973.871    19720981.644
       242.000         209.000
  -6519091.37949  -5067267.85245  23189783.454    23189783.113    23189799.797
       205.000         143.000
 00  4 27 17  2 59.9950000  0  7G 2G 4G24G 5G 7G 9G16
   1784645.06949   1391110.77646  21472992.318    21472990.887    21473002.664
       224.000         177.000
 -19264264.44749 -14990556.32147  18883768.461    18883768.408    18883776.044
       240.000         207.000
 -23436428.79549 -17906255.85147  20231537.265    20231536.984    20231547.490
       236.000         193.000
 -16841672.77249 -13100066.37946  21608219.360    21608218.804    21608228.580
       228.000         171.000
   1715347.18349   1337697.92047  20608020.049    20608018.866    20608027.407
       236.000         196.000
 -16988850.80249 -13224824.60447  19712584.245    19712583.776    19712591.559
       243.000         209.000
  -6595348.57149  -5126688.91145  23175272.174    23175271.758    23175288.347
       203.000         145.000
 00  4 27 17  3 29.9950000  0  7G 2G 4G24G 5G 7G 9G16
   1814208.90849   1414147.30746  21478618.261    21478616.858    21478628.652
       224.000         177.000
 -19317776.56849 -15032254.08947  18873585.429    18873585.381    18873593.020
       241.000         207.000
 -23559364.29849 -18002049.73547  20208143.310    20208143.088    20208153.582
       237.000         194.000
 -16963646.93049 -13195111.12646  21585008.358    21585007.825    21585017.615
       225.000         171.000
   1737253.58149   1354767.72947  20612188.822    20612187.616    20612196.150
       236.000         195.000
 -17032414.35649 -13258770.26847  19704294.434    19704293.931    19704301.742
       243.000         209.000
  -6671242.97649  -5185827.24045  23160829.859    23160829.468    23160845.896
       205.000         147.000
 00  4 27 17  3 59.9950000  0  7G 2G 4G24G 5G 7G 9G16
   1844024.32449   1437379.85446  21484292.180    21484290.741    21484302.489
       224.000         178.000
 -19370726.56449 -15073513.83347  18863509.380    18863509.334    18863516.981
       241.000         207.000
 -23681981.88149 -18097595.90047  20184809.957    20184809.731    20184820.212
       237.000         195.000
 -17085623.99649 -13290158.14146  21561796.826    21561796.268    21561806.111
       225.000         172.000
   1759240.70849   1371900.45147  20616372.954    20616371.739    20616380.259
       236.000         195.000
 -17075462.47649 -13292314.29247  19696102.710    19696102.204    19696109.997
       243.000         209.000
  -6746787.98149  -5244693.32645  23146454.026    23146453.628    23146470.012
       207.000         152.000
 00  4 27 17  4 29.9950000  0  7G 2G 4G24G 5G 7G 9G16
   1874098.69549   1460814.18146  21490015.427    21490013.928    21490025.648
       224.000         178.000
 -19423079.74449 -15114308.53347  18853546.983    18853546.897    18853554.533
       242.000         208.000
 -23804248.42449 -18192868.53647  20161543.428    20161543.167    20161553.625
       238.000         195.000
 -17207572.39549 -13385182.80846  21538590.709    21538590.200    21538600.079
       226.000         172.000
   1781306.17049   1389094.20347  20620572.012    20620570.773    20620579.291
       235.000         194.000
 -17117975.61249 -13325441.44847  19688012.799    19688012.274    19688020.056
       243.000         209.000
  -6821950.89349  -5303261.79945  23132150.718    23132150.429    23132166.938
       208.000         153.000
 00  4 27 17  4 59.9950000  0  7G 2G 4G24G 5G 7G 9G16
   1904419.74449   1484440.73246  21495785.535    21495784.027    21495795.801
       223.000         177.000
 -19474830.89249 -15154634.11847  18843699.147    18843699.029    18843706.642
       242.000         208.000
 -23926160.41049 -18287864.89047  20138344.387    20138344.078    20138354.512
       237.000         195.000
 -17329487.02049 -13480181.14946  21515391.077    21515390.545    21515400.426
       224.000         173.000
   1803417.73949   1406323.89847  20624779.773    20624778.555    20624787.098
       235.000         195.000
 -17159944.36149 -13358144.40847  19680026.436    19680025.907    19680033.699
       243.000         209.000
  -6896729.75649  -5361530.96345  23117920.497    23117920.337    23117936.853
       207.000         151.000
 00  4 27 17  5 29.9950000  0  7G 2G 4G24G 5G 7G 9G16
   1934950.48349   1508230.67346  21501595.359    21501593.970    21501605.885
       222.000         176.000
 -19526006.61449 -15194511.32147  18833960.802    18833960.647    18833968.236
       242.000         208.000
 -24047743.71649 -18382605.11847  20115207.829    20115207.514    20115217.960
       237.000         195.000
 -17451361.61449 -13575148.30946  21492199.079    21492198.537    21492208.374
       225.000         173.000
   1825551.60449   1423570.97147  20628991.742    20628990.577    20628999.137
       235.000         194.000
 -17201386.29049 -13390436.86247  19672140.332    19672139.795    19672147.594
       243.000         209.000
  -6971134.45249  -5419508.60945  23103761.554    23103761.350    23103778.009
       206.000         149.000
 00  4 27 17  5 59.9950000  0  7G 2G 4G24G 5G 7G 9G16
   1965694.84949   1532187.09646  21507445.963    21507444.586    21507456.610
       223.000         176.000
 -19576584.66249 -15233922.79847  18824336.134    18824335.979    18824343.551
       241.000         207.000
 -24168979.76549 -18477074.75647  20092137.323    20092137.044    20092147.499
       238.000         196.000
 -17573168.10449 -13670062.38846  21469020.011    21469019.474    21469029.294
       225.000         172.000
   1847738.69449   1440859.51247  20633213.861    20633212.712    20633221.321
       235.000         194.000
 -17242270.61549 -13422294.82147  19664360.312    19664359.807    19664367.613
       242.000         209.000
  -7045144.78849  -5477178.93645  23089677.893    23089677.579    23089694.152
       205.000         149.000
 00  4 27 17  6 29.9950000  0  7G 2G 4G24G 5G 7G 9G16
   1996662.55049   1556317.52346  21513339.135    21513337.730    21513349.826
       223.000         176.000
 -19626570.12249 -15272872.52247  18814824.125    18814824.048    18814831.621
       240.000         206.000
 -24289866.39749 -18571272.12447  20069133.370    20069133.073    20069143.525
       237.000         196.000
 -17694917.93849 -13764932.34446  21445851.775    21445851.177    21445860.983
       225.000         171.000
   1869991.50349   1458199.25647  20637448.455    20637447.344    20637455.973
       235.000         194.000
 -17282581.74849 -13453706.13747  19656689.383    19656688.880    19656696.702
       242.000         209.000
  -7118759.36249  -5534540.91745  23075669.651    23075669.084    23075685.668
       202.000         145.000
 00  4 27 17  6 59.9950000  0  7G 2G 4G24G 5G 7G 9G16
   2027853.18949   1580621.66746  21519274.788    21519273.282    21519285.415
       223.000         175.000
 -19675975.49849 -15311370.22447  18805422.533    18805422.487    18805430.080
       240.000         207.000
 -24410416.08349 -18665206.92547  20046193.545    20046193.215    20046203.674
       237.000         197.000
 -17816614.99849 -13859761.15046  21422693.489    21422692.909    21422702.725
       225.000         172.000
   1892311.37349   1475591.24647  20641695.886    20641694.752    20641703.421
       235.000         194.000
 -17322328.24149 -13484677.47347  19649125.883    19649125.396    19649133.224
       242.000         208.000
  -7191998.89149  -5591610.65145  23061732.474    23061732.039    23061748.525
       201.000         144.000
 00  4 27 17  7 29.9950000  0  7G 2G 4G24G 5G 7G 9G16
   2059274.16649   1605105.28846  21525254.233    21525252.693    21525264.792
       222.000         175.000
 -19724797.27049 -15349413.17747  18796132.074    18796132.021    18796139.621
       241.000         207.000
 -24530613.88949 -18758867.53547  20023320.648    20023320.319    20023330.811
       237.000         197.000
 -17938255.53249 -13954545.90546  21399546.013    21399545.446    21399555.197
       224.000         173.000
   1914727.16549   1493057.97747  20645961.602    20645960.451    20645969.119
       235.000         194.000
 -17361506.04449 -13515205.67547  19641670.629    19641670.140    19641677.967
       242.000         208.000
  -7264852.14449  -5648379.41345  23047868.834    23047868.399    23047884.855
       204.000         148.000
 00  4 27 17  7 59.9950000  0  7G 2G 4G24G 5G 7G 9G16
   2090939.14649   1629779.04746  21531279.956    21531278.522    21531290.645
       219.000         174.000
 -19773041.17949 -15387005.84347  18786951.627    18786951.533    18786959.142
       241.000         208.000
 -24650460.78549 -18852254.71447  20000514.538    20000514.188    20000524.685
       238.000         197.000
 -18059857.14849 -14049300.33246  21376405.946    21376405.376    21376415.121
       225.000         173.000
   1937242.21949   1510602.04947  20650246.191    20650245.034    20650253.715
       235.000         194.000
 -17400122.38349 -13545296.37347  19634322.190    19634321.718    19634329.553
       242.000         208.000
  -7337324.06349  -5704851.03645  23034077.777    23034077.392    23034093.879
       203.000         149.000
 00  4 27 17  8 29.9940000  0  7G 2G 4G24G 5G 7G 9G16
   2122883.22049   1654670.28546  21537358.873    21537357.453    21537369.659
       222.000         174.000
 -19820691.94949 -15424136.32147  18777884.016    18777883.916    18777891.532
       241.000         208.000
 -24769929.61249 -18945347.31447  19977780.417    19977780.018    19977790.513
       239.000         197.000
 -18181394.72249 -14144004.87846  21353278.066    21353277.485    21353287.208
       225.000         173.000
   1959862.53449   1528228.16147  20654550.830    20654549.638    20654558.354
       236.000         194.000
 -17438157.11949 -13574933.86947  19627084.447    19627083.968    19627091.826
       243.000         208.000
  -7409373.98849  -5760993.80745  23020367.305    23020366.704    23020383.196
       206.000         152.000
 00  4 27 17  8 59.9940000  0  7G 2G 4G24G 5G 7G 9G16
   2155088.08949   1679764.75146  21543487.438    21543486.005    21543498.340
       221.000         175.000
 -19867761.97649 -15460814.27647  18768926.928    18768926.811    18768934.423
       241.000         208.000
 -24889031.27449 -19038153.81647  19955116.084    19955115.711    19955126.196
       238.000         197.000
 -18302891.36749 -14238677.50246  21330157.921    21330157.354    21330167.120
       225.000         175.000
   1982558.33749   1545913.12147  20658869.825    20658868.614    20658877.365
       235.000         194.000
 -17475638.33749 -13604140.05647  19619952.038    19619951.556    19619959.437
       242.000         208.000
  -7481001.31249  -5816807.25645  23006737.195    23006736.521    23006752.917
       208.000         152.000
 00  4 27 17  9 29.9940000  0  7G 2G 4G24G 5G 7G 9G16
   2187529.47349   1705043.50146  21549661.039    21549659.576    21549672.029
       219.000         174.000
 -19914261.70449 -15497047.83947  18760078.310    18760078.199    18760085.823
       240.000         207.000
 -25007775.92549 -19130682.13247  19932519.696    19932519.341    19932529.819
       239.000         198.000
 -18424376.42449 -14333341.11946  21307039.938    21307039.423    21307049.244
       226.000         175.000
   2005307.50849   1563639.65947  20663199.001    20663197.762    20663206.531
       234.000         194.000
 -17512575.86449 -13632922.58747  19612923.044    19612922.589    19612930.477
       242.000         208.000
  -7552208.38049  -5872293.24945  22993187.116    22993186.337    22993202.574
       207.000         153.000
 00  4 27 17  9 59.9940000  0  7G 2G 4G24G 5G 7G 9G16
   2220215.13549   1730512.60446  21555881.041    21555879.608    21555892.231
       220.000         173.000
 -19960166.40249 -15532817.74547  18751342.876    18751342.809    18751350.458
       240.000         207.000
 -25126147.86549 -19222920.01547  19909994.246    19909993.931    19910004.366
       239.000         198.000
 -18545822.44649 -14427974.32346  21283929.472    21283928.970    21283938.771
       226.000         175.000
   2028106.15349   1581404.73947  20667537.536    20667536.297    20667545.104
       234.000         193.000
 -17548950.64549 -13661266.61847  19606001.172    19606000.729    19606008.609
       242.000         208.000
  -7622984.30449  -5927443.22045  22979718.926    22979718.134    22979734.305
       209.000         154.000
 00  4 27 17 10 29.9940000  0  7G 2G 4G24G 5G 7G 9G16
   2253120.00649   1756152.51346  21562142.791    21562141.378    21562154.067
       220.000         173.000
 -20005465.17349 -15568115.50247  18742722.814    18742722.748    18742730.412
       240.000         207.000
 -25244150.59349 -19314870.18447  19887539.144    19887538.773    19887549.191
       239.000         199.000
 -18667224.41849 -14522573.21846  21260827.425    21260826.897    21260836.671
       227.000         175.000
   2050937.22949   1599195.08247  20671882.212    20671880.985    20671889.812
       234.000         193.000
 -17584779.75449 -13689185.44947  19599183.195    19599182.723    19599190.600
       242.000         209.000
  -7693344.41849  -5982269.16045  22966329.836    22966329.092    22966345.179
       207.000         152.000
 00  4 27 17 10 59.9940000  0  7G 2G 4G24G 5G 7G 9G16
   2286232.52949   1781954.24246  21568443.981    21568442.654    21568455.411
       220.000         172.000
 -20050156.30549 -15602939.77547  18734218.425    18734218.339    18734225.966
       241.000         208.000
 -25361783.75049 -19406532.36847  19865154.321    19865153.927    19865164.354
       239.000         198.000
 -18788583.84649 -14617138.96146  21237733.453    21237732.893    21237742.629
       227.000         175.000
   2073797.95949   1617008.53547  20676232.483    20676231.311    20676240.175
       234.000         193.000
 -17620077.50949 -13716690.24247  19592466.260    19592465.798    19592473.686
       242.000         208.000
  -7763315.57949  -6036792.01545  22953014.652    22953013.950    22953030.026
       204.000         152.000
 00  4 27 17 11 29.9940000  0  7G 2G 4G24G 5G 7G 9G16
   2319577.57649   1807937.13746  21574789.633    21574788.249    21574800.996
       220.000         172.000
 -20094224.05949 -15637278.30147  18725832.695    18725832.572    18725840.137
       241.000         208.000
 -25479031.54049 -19497894.25847  19842842.847    19842842.422    19842852.872
       238.000         199.000
 -18909854.95649 -14711635.87046  21214656.277    21214655.737    21214665.443
       227.000         176.000
   2096717.68749   1634867.95447  20680594.029    20680592.860    20680601.775
       234.000         193.000
 -17654828.63849 -13743769.09247  19585853.356    19585852.914    19585860.821
       242.000         208.000
  -7832894.05949  -6091008.86745  22939773.978    22939773.406    22939789.672
       207.000         151.000
 00  4 27 17 11 59.9940000  0  7G 2G 4G24G 5G 7G 9G16
   2353160.85849   1834105.67546  21581180.540    21581179.106    21581191.900
       220.000         171.000
 -20137679.60549 -15671139.77547  18717563.416    18717563.275    18717570.833
       240.000         207.000
 -25595894.51849 -19588956.28747  19820604.525    19820604.104    19820614.609
       238.000         199.000
 -19031028.73449 -14806056.92046  21191597.673    21191597.110    21191606.765
       227.000         176.000
   2119692.86349   1652770.58747  20684966.124    20684964.947    20684973.913
       234.000         192.000
 -17689044.76449 -13770431.06147  19579342.330    19579341.847    19579349.753
       243.000         208.000
  -7902079.16049  -6144919.22745  22926608.330    22926607.850    22926624.175
       206.000         154.000
 00  4 27 17 12 29.9940000  0  7G 2G 4G24G 5G 7G 9G16
   2386985.39349   1860462.22146  21587617.222    21587615.874    21587628.723
       219.000         170.000
 -20180560.27249 -15704553.29347  18709403.473    18709403.346    18709410.925
       240.000         207.000
 -25712393.98949 -19679735.04447  19798435.379    19798434.979    19798445.510
       238.000         199.000
 -19152134.72349 -14900425.18146  21168552.066    21168551.397    21168560.981
       228.000         178.000
   2142714.60449   1670709.50047  20689346.964    20689345.887    20689354.907
       233.000         192.000
 -17722746.35849 -13796692.09847  19572929.228    19572928.699    19572936.591
       243.000         209.000
  -7970875.26449  -6198526.41845  22913516.739    22913516.211    22913532.634
       206.000         151.000
 00  4 27 17 12 59.9940000  0  7G 2G 4G24G 5G 7G 9G16
   2421070.27149   1887021.63046  21594103.453    21594102.147    21594115.134
       217.000         169.000
 -20222880.20149 -15737529.86647  18701350.231    18701350.126    18701357.744
       241.000         207.000
 -25828515.35349 -19770219.16847  19776338.225    19776337.826    19776348.357
       239.000         199.000
 -19273172.05149 -14994739.91246  21145519.378    21145518.742    21145528.303
       229.000         178.000
   2165807.27649   1688703.69947  20693741.368    20693740.313    20693749.406
       232.000         192.000
 -17755908.68249 -13822532.92647  19566618.661    19566618.149    19566626.057
       243.000         209.000
  -8039251.44449  -6251806.41545  22900504.961    22900504.507    22900521.011
       207.000         150.000
 00  4 27 17 13 29.9940000  0  7G 2G 4G24G 5G 7G 9G16
   2455419.08549   1913786.67846  21600640.008    21600638.684    21600651.705
       220.000         171.000
 -20264632.89549 -15770064.44147  18693404.930    18693404.851    18693412.490
       240.000         207.000
 -25944253.69949 -19860404.82447  19754313.922    19754313.541    19754324.052
       239.000         199.000
 -19394135.41649 -15088997.01546  21122500.826    21122500.154    21122509.669
       228.000         178.000
   2188991.29949   1706769.07047  20698153.145    20698152.120    20698161.278
       233.000         191.000
 -17788520.55249 -13847944.82847  19560412.942    19560412.364    19560420.290
       242.000         208.000
  -8107178.43449  -6304736.37445  22887578.731    22887578.387    22887594.831
       206.000         149.000
 00  4 27 17 13 59.9940000  0  7G 2G 4G24G 5G 7G 9G16
   2490026.69849   1940753.37146  21607225.925    21607224.513    21607237.515
       221.000         171.000
 -20305816.61249 -15802155.65947  18685567.939    18685567.864    18685575.522
       241.000         208.000
 -26059606.68749 -19950290.22047  19732362.953    19732362.572    19732373.036
       239.000         199.000
 -19515047.07849 -15183213.82546  21099492.088    21099491.417    21099500.896
       228.000         179.000
   2212264.69949   1724904.08747  20702581.886    20702580.922    20702590.126
       232.000         191.000
 -17820579.31449 -13872925.73647  19554312.385    19554311.830    19554319.766
       243.000         209.000
  -8174653.63449  -6357314.23045  22874738.576    22874738.189    22874754.553
       207.000         148.000
 00  4 27 17 14 29.9940000  0  7G 2G 4G24G 5G 7G 9G16
   2524878.07849   1967910.03046  21613858.291    21613856.762    21613869.753
       220.000         170.000
 -20346436.08549 -15833807.20247  18677838.379    18677838.270    18677845.921
       241.000         208.000
 -26174582.44849 -20039881.74547  19710483.773    19710483.388    19710493.824
       239.000         199.000
 -19635912.56149 -15277394.67446  21076492.124    21076491.442    21076500.928
       228.000         179.000
   2235612.25449   1743096.90247  20707024.855    20707023.878    20707033.114
       233.000         191.000
 -17852096.22249 -13897484.42347  19548314.979    19548314.415    19548322.337
       242.000         209.000
  -8241695.69449  -6409554.60145  22861980.946    22861980.468    22861996.757
       206.000         148.000
 00  4 27 17 14 59.9940000  0  7G 2G 4G24G 5G 7G 9G16
   2559965.73749   1995250.80846  21620535.538    21620533.950    21620546.993
       220.000         170.000
 -20386459.47649 -15864994.26647  18670222.208    18670222.085    18670229.726
       240.000         208.000
 -26289167.53049 -20129168.82347  19688678.909    19688678.546    19688689.009
       239.000         199.000
 -19756713.48849 -15371525.22046  21053504.388    21053503.756    21053513.244
       228.000         179.000
   2259034.21949   1761347.72047  20711482.034    20711481.014    20711490.259
       233.000         191.000
 -17883060.74049 -13921612.67147  19542422.643    19542422.109    19542430.034
       242.000         208.000
  -8308306.94449  -6461459.28345  22849305.273    22849304.748    22849320.875
       205.000         145.000
 00  4 27 17 15 29.9940000  0  7G 2G 4G24G 5G 7G 9G16
   2595306.52049   2022788.80246  21627260.911    21627259.325    21627272.393
       220.000         171.000
 -20425864.44149 -15895699.43547  18662723.702    18662723.575    18662731.198
       240.000         207.000
 -26403356.20849 -20218146.93947  19666949.496    19666949.129    19666959.615
       239.000         199.000
 -19877435.74849 -15465594.45846  21030531.622    21030531.013    21030540.517
       227.000         177.000
   2282514.33649   1779643.83647  20715950.308    20715949.258    20715958.484
       234.000         192.000
 -17913473.43549 -13945310.93147  19536635.300    19536634.790    19536642.744
       242.000         208.000
  -8374503.69249  -6513040.98645  22836708.311    22836707.796    22836723.853
       205.000         143.000
 00  4 27 17 15 59.9940000  0  7G 2G 4G24G 5G 7G 9G16
   2630911.04349   2050532.30746  21634036.471    21634034.894    21634048.001
       222.000         172.000
 -20464651.81449 -15925923.36247  18655342.676    18655342.562    18655350.182
       240.000         207.000
 -26517146.90049 -20306814.92147  19645295.859    19645295.486    19645305.956
       240.000         199.000
 -19998067.45749 -15559593.13546  21007576.087    21007575.504    21007585.000
       226.000         177.000
   2306042.93549   1797977.70847  20720427.825    20720426.710    20720435.923
       234.000         191.000
 -17943320.52149 -13968568.46247  19530955.609    19530955.102    19530963.090
       242.000         208.000
  -8440295.85349  -6564307.40345  22824188.343    22824187.901    22824203.768
       208.000         147.000
 00  4 27 17 16 29.9940000  0  7G 2G 4G24G 5G 7G 9G16
   2666766.17349   2078471.09446  21640859.766    21640858.167    21640871.272
       220.000         170.000
 -20502841.59349 -15955681.62847  18648075.397    18648075.277    18648082.892
       240.000         207.000
 -26630558.37649 -20395187.43147  19623714.347    19623713.968    19623724.442
       239.000         199.000
 -20118611.76949 -15653523.71846  20984637.254    20984636.648    20984646.105
       227.000         178.000
   2329614.44149   1816345.00047  20724913.492    20724912.322    20724921.541
       233.000         190.000
 -17972603.94949 -13991386.77747  19525383.233    19525382.706    19525390.694
       242.000         208.000
  -8505684.23849  -6615259.25245  22811745.405    22811744.863    22811760.581
       210.000         148.000
 00  4 27 17 16 59.9940000  0  7G 2G 4G24G 5G 7G 9G16
   2702879.91949   2106611.39346  21647732.144    21647730.540    21647743.758
       219.000         171.000
 -20540428.90149 -15984970.44147  18640922.780    18640922.648    18640930.263
       241.000         208.000
 -26743579.09849 -20483255.46147  19602207.211    19602206.810    19602217.282
       240.000         199.000
 -20239064.93049 -15747383.25346  20961715.714    20961715.132    20961724.601
       228.000         178.000
   2353253.26949   1834764.75347  20729411.943    20729410.758    20729419.964
       233.000         191.000
 -18001307.24149 -14013753.03947  19519921.232    19519920.699    19519928.704
       242.000         208.000
  -8570643.61049  -6665876.76545  22799383.983    22799383.453    22799399.023
       205.000         146.000
 00  4 27 17 17 29.9940000  0  7G 2G 4G24G 5G 7G 9G16
   2739241.54949   2134944.85846  21654651.643    21654650.119    21654663.418
       220.000         171.000
 -20577452.78049 -16013820.22047  18633877.405    18633877.271    18633884.879
       242.000         209.000
 -26856222.40949 -20571029.43247  19580771.871    19580771.468    19580781.951
       239.000         199.000
 -20359438.83649 -15841181.06546  20938809.317    20938808.681    20938818.131
       227.000         177.000
   2376957.32949   1853235.31947  20733922.820    20733921.613    20733930.782
       234.000         190.000
 -18029444.16649 -14035677.97347  19514566.971    19514566.456    19514574.497
       242.000         208.000
  -8635168.13549  -6716155.44545  22787105.154    22787104.658    22787120.258
       202.000         145.000
 00  4 27 17 17 59.9940000  0  7G 2G 4G24G 5G 7G 9G16
   2775832.43949   2163456.95346  21661614.845    21661613.330    21661626.708
       221.000         169.000
 -20613920.78849 -16042236.85147  18626937.867    18626937.692    18626945.282
       241.000         209.000
 -26968479.66049 -20658502.56347  19559409.977    19559409.589    19559420.068
       239.000         199.000
 -20479729.29849 -15934913.85646  20915918.750    20915918.115    20915927.533
       228.000         178.000
   2400736.54649   1871764.45647  20738447.948    20738446.750    20738455.916
       232.000         190.000
 -18057010.57949 -14057158.35647  19509321.354    19509320.801    19509328.847
       243.000         208.000
  -8699223.92249  -6766068.87145  22774915.323    22774915.018    22774930.664
       200.000         145.000
 00  4 27 17 18 29.9940000  0  7G 2G 4G24G 5G 7G 9G16
   2812644.24749   2192141.18746  21668620.221    21668618.648    21668632.019
       221.000         171.000
 -20649825.01549 -16070214.16847  18620105.504    18620105.353    18620112.975
       240.000         208.000
 -27080329.91049 -20745658.54947  19538125.486    19538125.146    19538135.626
       239.000         199.000
 -20599949.69449 -16028592.04646  20893041.497    20893040.862    20893050.290
       227.000         177.000
   2424587.13249   1890349.21547  20742986.658    20742985.462    20742994.627
       233.000         190.000
 -18084020.27849 -14078204.93847  19504181.702    19504181.108    19504189.122
       243.000         208.000
  -8762796.37549  -6815605.69945  22762817.643    22762817.297    22762833.118
       205.000         149.000
 00  4 27 17 18 59.9940000  0  7G 2G 4G24G 5G 7G 9G16
   2849666.54049   2220989.42446  21675665.679    21675664.043    21675677.375
       220.000         170.000
 -20685164.35749 -16097751.32147  18613380.631    18613380.499    18613388.139
       240.000         208.000
 -27191758.90249 -20832486.28547  19516921.210    19516920.872    19516931.358
       239.000         199.000
 -20720107.38049 -16122221.40246  20870176.235    20870175.561    20870184.973
       229.000         178.000
   2448480.00249   1908966.91247  20747533.361    20747532.177    20747541.400
       232.000         189.000
 -18110485.91049 -14098827.57147  19499145.441    19499144.895    19499152.906
       242.000         207.000
  -8825907.41449  -6864783.00045  22750807.845    22750807.580    22750823.447
       206.000         153.000
 00  4 27 17 19 29.9940000  0  7G 2G 4G24G 5G 7G 9G16
   2886918.26349   2250016.45246  21682754.625    21682753.001    21682766.409
       220.000         169.000
 -20719914.25549 -16124829.15947  18606767.899    18606767.795    18606775.445
       240.000         207.000
 -27302744.33049 -20918968.34547  19495801.400    19495801.015    19495811.519
       240.000         200.000
 -20840181.26049 -16215785.43746  20847326.877    20847326.203    20847335.634
       228.000         179.000
   2472412.99449   1927615.89147  20752087.713    20752086.534    20752095.786
       231.000         188.000
 -18136391.79049 -14119014.03047  19494215.720    19494215.192    19494223.212
       242.000         207.000
  -8888546.61749  -6913592.65245  22738887.886    22738887.620    22738903.447
       206.000         152.000
 00  4 27 17 19 59.9940000  0  7G 2G 4G24G 5G 7G 9G16
   2924382.75549   2279209.28046  21689884.096    21689882.438    21689895.957
       218.000         169.000
 -20754060.44649 -16151436.58447  18600270.065    18600269.982    18600277.606
       241.000         207.000
 -27413291.84549 -21005109.18947  19474764.858    19474764.502    19474775.003
       240.000         200.000
 -20960184.46949 -16309294.38946  20824491.060    20824490.311    20824499.769
       229.000         178.000
   2496368.59549   1946282.49247  20756646.330    20756645.181    20756654.509
       231.000         188.000
 -18161751.86949 -14138775.19247  19489389.910    19489389.381    19489397.397
       243.000         208.000
  -8950733.39849  -6962049.79445  22727054.164    22727053.765    22727069.591
       210.000         152.000
 00  4 27 17 20 29.9940000  0  7G 2G 4G24G 5G 7G 9G16
   2962071.93349   2308577.18446  21697056.266    21697054.628    21697068.241
       219.000         168.000
 -20787598.63549 -16177570.25047  18593887.933    18593887.867    18593895.444
       240.000         207.000
 -27523408.41049 -21090914.27147  19453810.310    19453809.982    19453820.470
       240.000         200.000
 -21080119.35149 -16402750.11646  20801668.208    20801667.450    20801676.858
       229.000         179.000
   2520352.23549   1964970.93347  20761210.237    20761209.139    20761218.552
       231.000         188.000
 -18186564.67849 -14158109.90947  19484668.296    19484667.723    19484675.724
       243.000         208.000
  -9012487.73549  -7010169.89945  22715302.720    22715302.187    22715317.985
       209.000         152.000
 00  4 27 17 20 59.9940000  0  7G 2G 4G24G 5G 7G 9G16
   2999994.13649   2338126.66546  21704272.821    21704271.152    21704284.887
       221.000         169.000
 -20820534.65449 -16203234.69447  18587620.453    18587620.371    18587627.915
       240.000         208.000
 -27633115.58749 -21176400.36647  19432933.672    19432933.358    19432943.826
       240.000         199.000
 -21199964.63149 -16496136.03146  20778862.424    20778861.654    20778870.986
       229.000         179.000
   2544375.51849   1983690.26246  20765781.793    20765780.700    20765790.157
       231.000         187.000
 -18210832.76649 -14177020.16147  19480050.273    19480049.705    19480057.709
       242.000         207.000
  -9073807.17749  -7057951.21345  22703633.903    22703633.386    22703649.130
       206.000         149.000
 00  4 27 17 21 29.9940000  0  7G 2G 4G24G 5G 7G 9G16
   3038165.45949   2367870.27746  21711536.827    21711535.139    21711548.904
       218.000         166.000
 -20852858.37149 -16228422.01747  18581469.537    18581469.423    18581476.921
       239.000         208.000
 -27742423.31449 -21261575.15447  19412133.053    19412132.755    19412143.188
       240.000         199.000
 -21319714.17049 -16589447.35246  20756074.838    20756074.076    20756083.334
       229.000         180.000
   2568468.98949   2002464.29347  20770366.689    20770365.589    20770375.128
       230.000         188.000
 -18234554.82949 -14195504.93847  19475536.140    19475535.578    19475543.615
       242.000         207.000
  -9134661.33849  -7105369.93245  22692053.589    22692053.062    22692068.852
       205.000         146.000
 00  4 27 17 21 59.9940000  0  7G 2G 4G24G 5G 7G 9G16
   3076585.80349   2397807.90346  21718848.075    21718846.417    21718860.303
       216.000         167.000
 -20884575.61449 -16253136.76447  18575433.998    18575433.858    18575441.362
       239.000         208.000
 -27851328.76049 -21346436.46347  19391409.026    19391408.722    19391419.095
       240.000         199.000
 -21439369.07549 -16682684.94846  20733305.250    20733304.466    20733313.686
       230.000         181.000
   2592641.86749   2021300.19447  20774966.704    20774965.593    20774975.180
       231.000         188.000
 -18257731.77649 -14213564.95147  19471125.770    19471125.188    19471133.247
       242.000         207.000
  -9195053.97349  -7152429.04145  22680561.044    22680560.607    22680576.368
       204.000         147.000
 00  4 27 17 22 29.9940000  0  7G 2G 4G24G 5G 7G 9G16
   3115261.54749   2427944.52946  21726207.986    21726206.339    21726220.307
       217.000         166.000
 -20915721.65749 -16277406.41847  18569507.120    18569506.958    18569514.497
       238.000         207.000
 -27959830.46749 -21430983.13147  19370761.837    19370761.504    19370771.829
       240.000         199.000
 -21558935.45849 -16775853.55146  20710552.519    20710551.751    20710560.899
       229.000         181.000
   2616882.02149   2040188.52647  20779579.564    20779578.422    20779588.038
       230.000         188.000
 -18280366.16549 -14231202.18847  19466818.653    19466818.067    19466826.147
       242.000         207.000
  -9254987.29149  -7199130.29745  22669156.068    22669155.620    22669171.352
       208.000         151.000
 00  4 27 17 22 59.9940000  0  7G 2G 4G24G 5G 7G 9G16
   3154205.04849   2458289.79046  21733618.796    21733617.244    21733631.244
       220.000         167.000
 -20946285.60549 -16301222.49547  18563690.950    18563690.820    18563698.379
       239.000         207.000
 -28067902.52249 -21515195.03747  19350196.405    19350196.048    19350206.349
       240.000         200.000
 -21678401.36949 -16868943.86946  20687818.882    20687818.133    20687827.243
       230.000         181.000
   2641193.67349   2059132.54347  20784206.054    20784204.863    20784214.502
       232.000         189.000
 -18302450.42449 -14248410.75747  19462616.172    19462615.602    19462623.732
       242.000         207.000
  -9314435.43849  -7245453.44645  22657843.452    22657843.007    22657858.617
       210.000         154.000
 00  4 27 17 23 29.9940000  0  7G 2G 4G24G 5G 7G 9G16
   3193408.20349   2488837.35846  21741079.191    21741077.625    21741091.636
       220.000         169.000
 -20976268.83749 -16324586.06847  18557985.268    18557985.170    18557992.747
       238.000         207.000
 -28175524.47449 -21599056.23947  19329716.581    19329716.239    19329726.524
       239.000         200.000
 -21797771.80649 -16961959.78646  20665103.489    20665102.677    20665111.794
       230.000         182.000
   2665563.21949   2078121.66747  20788843.591    20788842.351    20788851.981
       231.000         188.000
 -18323985.63549 -14265191.49747  19458518.179    19458517.600    19458525.775
       242.000         207.000
  -9373399.78749  -7291399.66845  22646622.995    22646622.431    22646638.000
       210.000         154.000
 00  4 27 17 23 59.9940000  0  7G 2G 4G24G 5G 7G 9G16
   3232848.92249   2519570.06646  21748584.761    21748583.207    21748597.271
       220.000         168.000
 -21005704.95749 -16347523.32847  18552383.771    18552383.659    18552391.237
       239.000         207.000
 -28282694.52649 -21682565.32447  19309322.744    19309322.410    19309332.700
       240.000         201.000
 -21917053.48249 -17054906.54946  20642404.967    20642404.126    20642413.267
       229.000         181.000
   2689958.25749   2097130.67247  20793485.967    20793484.718    20793494.326
       231.000         189.000
 -18344988.24949 -14281557.22747  19454521.514    19454520.958    19454529.134
       242.000         207.000
  -9431900.75749  -7336984.78445  22635490.676    22635490.064    22635505.448
       206.000         151.000
 00  4 27 17 24 29.9940000  0  7G 2G 4G24G 5G 7G 9G16
   3272527.26749   2550487.95346  21756135.663    21756133.969    21756148.149
       219.000         167.000
 -21034595.24749 -16370035.26347  18546886.175    18546886.041    18546893.601
       240.000         208.000
 -28389415.29449 -21765724.29847  19289014.385    19289014.088    19289024.361
       240.000         201.000
 -22036235.33549 -17147775.49946  20619725.352    20619724.563    20619733.715
       231.000         182.000
   2714373.27249   2116155.24747  20798132.154    20798130.858    20798140.475
       232.000         188.000
 -18365471.12749 -14297517.96047  19450623.754    19450623.222    19450631.403
       242.000         207.000
  -9489927.08749  -7382200.07245  22624448.551    22624447.911    22624463.297
       205.000         149.000
 00  4 27 17 24 59.9940000  0  7G 2G 4G24G 5G 7G 9G16
   3312414.38249   2581568.50146  21763726.153    21763724.424    21763738.728
       217.000         166.000
 -21062929.69349 -16392114.07747  18541494.379    18541494.221    18541501.738
       240.000         207.000
 -28495715.34749 -21848555.46447  19268786.144    19268785.832    19268796.094
       240.000         201.000
 -22155318.43249 -17240567.49146  20597064.526    20597063.790    20597072.971
       231.000         183.000
   2738801.84349   2135190.37047  20802780.902    20802779.596    20802789.184
       231.000         188.000
 -18385461.26349 -14313094.73847  19446819.771    19446819.254    19446827.462
       242.000         207.000
  -9547501.95549  -7427063.58645  22613492.442    22613491.687    22613506.991
       208.000         148.000
 00  4 27 17 25 29.9940000  0  7G 2G 4G24G 5G 7G 9G16
   3352523.47749   2612822.01746  21771358.873    21771357.141    21771371.565
       218.000         165.000
 -21090689.40249 -16413745.05147  18536211.934    18536211.753    18536219.247
       239.000         207.000
 -28601578.79649 -21931046.42647  19248641.025    19248640.671    19248650.891
       241.000         201.000
 -22274270.24349 -17333257.19946  20574428.825    20574428.023    20574437.221
       230.000         182.000
   2763271.59649   2154257.59446  20807437.441    20807436.135    20807445.726
       231.000         187.000
 -18404924.59749 -14328261.01847  19443116.093    19443115.552    19443123.804
       242.000         207.000
  -9604619.75449  -7471570.97845  22602623.257    22602622.525    22602637.724
       209.000         152.000
 00  4 27 17 25 59.9940000  0  7G 2G 4G24G 5G 7G 9G16
   3392849.16849   2644244.29646  21779032.910    21779031.108    21779045.627
       220.000         168.000
 -21117886.33749 -16434937.49547  18531036.538    18531036.338    18531043.858
       239.000         207.000
 -28707027.69649 -22013214.36847  19228574.793    19228574.407    19228584.568
       240.000         201.000
 -22393101.54149 -17425852.98946  20551815.883    20551815.139    20551824.371
       230.000         183.000
   2787775.60749   2173351.52646  20812100.512    20812099.194    20812108.782
       232.000         187.000
 -18423854.02349 -14343011.26947  19439513.985    19439513.442    19439521.727
       242.000         207.000
  -9661296.13349  -7515734.44445  22591838.081    22591837.351    22591852.474
       207.000         153.000
 00  4 27 17 26 29.9940000  0  7G 2G 4G24G 5G 7G 9G16
   3433386.52249   2675831.49446  21786747.270    21786745.421    21786759.962
       221.000         167.000
 -21144492.27149 -16455669.42047  18525973.568    18525973.395    18525980.933
       239.000         207.000
 -28812072.62349 -22095067.50647  19208585.389    19208584.989    19208595.117
       240.000         200.000
 -22511805.90349 -17518349.86346  20529227.148    20529226.402    20529235.684
       230.000         183.000
   2812326.23249   2192481.78146  20816772.370    20816771.104    20816780.674
       231.000         186.000
 -18442243.96549 -14357341.14447  19436014.564    19436014.003    19436022.273
       243.000         207.000
  -9717528.98249  -7559552.28845  22581137.431    22581136.679    22581151.699
       209.000         153.000
 00  4 27 17 26 59.9940000  0  7G 2G 4G24G 5G 7G 9G16
   3474138.75249   2707586.12346  21794502.601    21794500.602    21794515.140
       220.000         166.000
 -21170494.94749 -16475931.27747  18521025.421    18521025.264    18521032.823
       239.000         207.000
 -28916703.84549 -22176598.27847  19188674.660    19188674.292    19188684.382
       240.000         200.000
 -22630376.50449 -17610742.52646  20506663.885    20506663.161    20506672.431
       231.000         184.000
   2836944.76649   2211664.94146  20821457.230    20821455.955    20821465.509
       231.000         186.000
 -18460066.27449 -14371228.70947  19432623.142    19432622.570    19432630.834
       242.000         206.000
  -9773307.95649  -7603016.41845  22570523.130    22570522.263    22570537.283
       209.000         150.000
 00  4 27 17 27 29.9940000  0  7G 2G 4G24G 5G 7G 9G16
   3515087.83849   2739494.15946  21802295.152    21802293.207    21802307.800
       218.000         164.000
 -21195935.88549 -16495755.41647  18516184.239    18516184.046    18516191.611
       240.000         208.000
 -29020932.91549 -22257815.70147  19168840.462    19168840.117    19168850.146
       240.000         200.000
 -22748852.61449 -17703061.56146  20484118.683    20484117.889    20484127.168
       231.000         184.000
   2861595.63149   2230873.29546  20826148.213    20826146.944    20826156.486
       230.000         185.000
 -18477333.31149 -14384683.59547  19429337.320    19429336.784    19429345.059
       242.000         206.000
  -9828634.06849  -7646127.68645  22559994.759    22559993.995    22560008.958
       205.000         145.000
 00  4 27 17 27 59.9940000  0  7G 2G 4G24G 5G 7G 9G16
   3556238.20249   2771559.02546  21810125.815    21810124.016    21810138.740
       216.000         163.000
 -21220803.01649 -16515132.43647  18511452.256    18511452.042    18511459.583
       239.000         208.000
 -29124755.53049 -22338716.41847  19149083.663    19149083.306    19149093.319
       241.000         201.000
 -22867231.80949 -17795305.05246  20461591.854    20461591.061    20461600.361
       230.000         184.000
   2886281.28649   2250108.75146  20830845.834    20830844.544    20830854.090
       229.000         185.000
 -18494059.57549 -14397717.10147  19426154.467    19426153.927    19426162.201
       242.000         206.000
  -9883482.48349  -7688866.69645  22549557.195    22549556.511    22549571.507
       204.000         144.000
 00  4 27 17 28 29.9940000  0  7G 2G 4G24G 5G 7G 9G16
   3597582.53249   2803775.02345  21817993.510    21817991.808    21818006.596
       217.000         162.000
 -21245101.44649 -16534066.31047  18506828.474    18506828.248    18506835.776
       239.000         208.000
 -29228163.56549 -22419294.09047  19129405.754    19129405.369    19129415.410
       241.000         202.000
 -22985511.85549 -17887471.27346  20439083.871    20439083.096    20439092.438
       230.000         184.000
   2911005.18049   2269374.00346  20835550.650    20835549.431    20835558.987
       231.000         185.000
 -18510260.60349 -14410341.32947  19423071.627    19423071.046    19423079.308
       242.000         207.000
  -9937849.75549  -7731230.75245  22539211.250    22539210.581    22539225.781
       205.000         145.000
 00  4 27 17 28 59.9930000  0  7G 2G 4G24G 5G 7G 9G16
   3639139.20249   2836156.47546  21825901.741    21825900.052    21825914.891
       218.000         164.000
 -21268848.14749 -16552570.26547  18502309.655    18502309.425    18502316.953
       239.000         207.000
 -29331126.77249 -22499525.13947  19109812.498    19109812.109    19109822.167
       241.000         203.000
 -23103690.09049 -17979558.18046  20416595.302    20416594.522    20416603.871
       231.000         185.000
   2935760.41849   2288663.66746  20840261.534    20840260.284    20840269.859
       230.000         185.000
 -18525930.12949 -14422551.40647  19420089.929    19420089.320    19420097.572
       243.000         207.000
  -9991732.43749  -7773217.20245  22528957.772    22528957.040    22528972.299
       209.000         152.000
 00  4 27 17 29 29.9930000  0  7G 2G 4G24G 5G 7G 9G16
   3680910.47249   2868705.13145  21833850.753    21833849.060    21833864.025
       216.000         162.000
 -21292042.42149 -16570643.75347  18497895.924    18497895.724    18497903.264
       239.000         207.000
 -29433646.26049 -22579410.41547  19090303.665    19090303.271    19090313.347
       241.000         202.000
 -23221777.58049 -18071574.35546  20394123.954    20394123.194    20394132.590
       232.000         186.000
   2960535.32449   2307968.66246  20844976.230    20844974.929    20844984.486
       231.000         185.000
 -18541087.71649 -14434362.56347  19417205.630    19417204.991    19417213.231
       242.000         207.000
 -10045142.06249  -7814835.04745  22518794.319    22518793.596    22518808.880
       210.000         155.000
 00  4 27 17 29 59.9930000  0  7G 2G 4G24G 5G 7G 9G16
   3722895.51649   2901420.36346  21841840.526    21841838.790    21841853.842
       218.000         163.000
 -21314674.99749 -16588279.55447  18493589.083    18493588.889    18493596.450
       239.000         207.000
 -29535712.40449 -22658942.42947  19070881.064    19070880.694    19070890.767
       241.000         203.000
 -23339753.72549 -18163503.79046  20371673.859    20371673.076    20371682.466
       233.000         186.000
   2985341.52249   2327298.03046  20849696.818    20849695.503    20849705.053
       230.000         185.000
 -18555739.47749 -14445779.57347  19414417.499    19414416.902    19414425.139
       242.000         207.000
 -10098087.40949  -7856091.14945  22508719.301    22508718.445    22508733.758
       213.000         154.000
 00  4 27 17 30 29.9930000  0  7G 2G 4G24G 5G 7G 9G16
   3765107.49449   2934312.43345  21849873.420    21849871.726    21849886.889
       217.000         161.000
 -21336753.71849 -16605483.77947  18489387.653    18489387.471    18489395.018
       239.000         207.000
 -29637309.40849 -22738108.87147  19051547.742    19051547.391    19051557.449
       240.000         202.000
 -23457617.30349 -18255345.50946  20349245.137    20349244.357    20349253.763
       233.000         186.000
   3010183.42749   2346655.24346  20854424.158    20854422.859    20854432.463
       230.000         185.000
 -18569875.07549 -14456794.37447  19411727.647    19411727.019    19411735.275
       242.000         206.000
 -10150561.21049  -7896979.81045  22498733.934    22498733.040    22498748.309
       207.000         150.000
 00  4 27 17 30 59.9930000  0  7G 2G 4G24G 5G 7G 9G16
   3807558.30549   2967390.59845  21857951.744    21857950.088    21857965.348
       216.000         161.000
 -21358261.71649 -16622243.28347  18485294.839    18485294.665    18485302.196
       240.000         207.000
 -29738431.56449 -22816905.29847  19032304.815    19032304.455    19032314.488
       240.000         202.000
 -23575363.95849 -18347096.11847  20326838.671    20326837.900    20326847.298
       233.000         188.000
   3035072.59649   2366049.29546  20859160.462    20859159.202    20859168.849
       230.000         185.000
 -18583483.50249 -14467398.39947  19409138.099    19409137.468    19409145.701
       242.000         206.000
 -10202551.54649  -7937491.72345  22488840.299    22488839.599    22488854.847
       208.000         147.000
 00  4 27 17 31 29.9930000  0  7G 2G 4G24G 5G 7G 9G16
   3850232.43249   3000642.78145  21866072.593    21866070.984    21866086.330
       218.000         160.000
 -21379192.01249 -16638552.62747  18481311.975    18481311.781    18481319.317
       240.000         207.000
 -29839090.56749 -22895340.83147  19013150.054    19013149.670    19013159.656
       241.000         202.000
 -23693003.07149 -18438762.91446  20304452.686    20304451.910    20304461.292
       233.000         186.000
   3060014.29249   2385484.26146  20863906.832    20863905.569    20863915.244
       230.000         185.000
 -18596572.59349 -14477597.75147  19406647.374    19406646.728    19406654.961
       242.000         206.000
 -10254051.29449  -7977621.33245  22479040.195    22479039.436    22479054.637
       205.000         144.000
 00  4 27 17 31 59.9930000  0  7G 2G 4G24G 5G 7G 9G16
   3893149.60249   3034084.33845  21874239.913    21874238.151    21874253.540
       217.000         160.000
 -21399528.03349 -16654398.89947  18477442.162    18477441.964    18477449.525
       239.000         208.000
 -29939267.86349 -22973401.01347  18994086.964    18994086.543    18994096.529
       241.000         203.000
 -23810511.53349 -18530327.90247  20282091.544    20282090.768    20282100.146
       233.000         188.000
   3085037.19749   2404982.52646  20868668.675    20868667.386    20868677.115
       229.000         186.000
 -18609107.89549 -14487365.58047  19404261.989    19404261.380    19404269.609
       241.000         205.000
 -10305033.53749  -8017347.64745  22469338.665    22469337.887    22469352.996
       207.000         147.000
 00  4 27 17 32 29.9930000  0  7G 2G 4G24G 5G 7G 9G16
   3936276.81849   3067689.56546  21882447.151    21882445.331    21882460.813
       219.000         163.000
 -21419299.67249 -16669805.39547  18473679.757    18473679.563    18473687.162
       240.000         208.000
 -30039001.65649 -23051115.61047  18975108.175    18975107.773    18975117.798
       241.000         203.000
 -23927923.45849 -18621817.65447  20259748.835    20259748.038    20259757.385
       233.000         188.000
   3110104.58049   2424515.43246  20873438.853    20873437.617    20873447.402
       228.000         186.000
 -18621121.78449 -14496727.11547  19401975.848    19401975.251    19401983.502
       242.000         205.000
 -10355530.69049  -8056695.96645  22459729.324    22459728.628    22459743.682
       207.000         148.000
 00  4 27 17 32 59.9930000  0  7G 2G 4G24G 5G 7G 9G16
   3979630.42249   3101471.21346  21890697.444    21890695.603    21890711.156
       218.000         164.000
 -21438475.42549 -16684747.56347  18470030.777    18470030.560    18470038.166
       240.000         208.000
 -30138276.72049 -23128472.75347  18956216.696    18956216.306    18956226.357
       241.000         203.000
 -24045211.86249 -18713211.17547  20237429.593    20237428.756    20237438.102
       234.000         188.000
   3135226.21249   2444090.58646  20878219.452    20878218.200    20878228.059
       229.000         185.000
 -18632593.68649 -14505666.32547  19399792.800    19399792.247    19399800.529
       241.000         205.000
 -10405528.72149  -8095655.32245  22450214.903    22450214.214    22450229.311
       205.000         147.000
 00  4 27 17 33 29.9930000  0  7G 2G 4G24G 5G 7G 9G16
   4023202.69449   3135423.22446  21898989.335    21898987.418    21899003.027
       216.000         163.000
 -21457078.80549 -16699243.72747  18466490.697    18466490.491    18466498.098
       240.000         208.000
 -30237106.25849 -23205482.73447  18937410.021    18937409.635    18937419.672
       242.000         203.000
 -24162362.64749 -18804497.46447  20215136.514    20215135.715    20215145.019
       233.000         188.000
   3160383.66049   2463693.64846  20883006.884    20883005.611    20883015.519
       229.000         185.000
 -18643540.51449 -14514196.38747  19397709.732    19397709.178    19397717.460
       242.000         206.000
 -10455025.42049  -8134224.05245  22440795.874    22440795.237    22440810.366
       203.000         146.000
 00  4 27 17 33 59.9930000  0  7G 2G 4G24G 5G 7G 9G16
   4066995.67549   3169547.20645  21907323.170    21907321.249    21907336.883
       215.000         158.000
 -21475132.72149 -16713311.73747  18463055.206    18463054.978    18463062.565
       240.000         208.000
 -30335506.02749 -23282157.82247  18918685.144    18918684.753    18918694.771
       241.000         204.000
 -24279362.70849 -18895666.32347  20192872.101    20192871.324    20192880.610
       233.000         188.000
   3185559.11949   2483310.76846  20887797.703    20887796.445    20887806.373
       228.000         184.000
 -18653967.06149 -14522321.03447  19395725.669    19395725.113    19395733.411
       242.000         206.000
 -10504031.79249  -8172410.72645  22431469.996    22431469.478    22431484.733
       203.000         145.000
 00  4 27 17 34 29.9930000  0  7G 2G 4G24G 5G 7G 9G16
   4111029.03649   3203858.49445  21915702.634    21915700.803    21915716.509
       213.000         156.000
 -21492637.43149 -16726951.79847  18459724.158    18459723.962    18459731.534
       240.000         207.000
 -30433455.11349 -23358481.74247  18900046.009    18900045.629    18900055.611
       242.000         203.000
 -24396199.76349 -18986708.16947  20170638.763    20170637.960    20170647.223
       234.000         188.000
   3210751.97449   2502941.41846  20892591.872    20892590.581    20892600.554
       229.000         184.000
 -18663872.03449 -14530039.26347  19393840.837    19393840.274    19393848.596
       241.000         206.000
 -10552530.13249  -8210201.53045  22422240.927    22422240.425    22422255.676
       207.000         147.000
 00  4 27 17 34 59.9930000  0  7G 2G 4G24G 5G 7G 9G16
   4155294.75749   3238350.84245  21924126.322    21924124.489    21924140.330
       212.000         156.000
 -21509609.06349 -16740176.47047  18456494.580    18456494.373    18456501.929
       240.000         207.000
 -30530955.57949 -23434456.07647  18881492.278    18881491.877    18881501.845
       243.000         203.000
 -24512882.38349 -19077629.69347  20148434.778    20148433.980    20148443.208
       233.000         189.000
   3235949.36449   2522575.62546  20897386.911    20897385.598    20897395.577
       229.000         184.000
 -18673265.74149 -14537359.10447  19392053.308    19392052.725    19392061.076
       241.000         206.000
 -10600524.73249  -8247599.73745  22413107.926    22413107.288    22413122.417
       207.000         147.000
 00  4 27 17 35 29.9930000  0  7G 2G 4G24G 5G 7G 9G16
   4199798.19349   3273028.43845  21932595.387    21932593.517    21932609.342
       215.000         156.000
 -21526053.13949 -16752990.05947  18453365.358    18453365.170    18453372.742
       240.000         207.000
 -30627994.05349 -23510070.42847  18863026.410    18863026.019    18863035.990
       242.000         203.000
 -24629411.29349 -19168431.45047  20126260.010    20126259.237    20126268.458
       233.000         188.000
   3261161.55449   2542221.37046  20902184.740    20902183.417    20902193.445
       229.000         184.000
 -18682142.12049 -14544275.83847  19390364.259    19390363.649    19390372.029
       242.000         206.000
 -10648027.42849  -8284614.62745  22404068.378    22404067.773    22404082.858
       209.000         147.000
 00  4 27 17 35 59.9930000  0  7G 2G 4G24G 5G 7G 9G16
   4244533.03249   3307886.32545  21941108.540    21941106.628    21941122.467
       216.000         156.000
 -21541962.17849 -16765386.73847  18450337.973    18450337.791    18450345.367
       240.000         208.000
 -30724556.47049 -23585313.81947  18844651.113    18844650.768    18844660.734
       242.000         204.000
 -24745817.33649 -19259137.46447  20104108.641    20104107.877    20104117.081
       233.000         188.000
   3286395.09449   2561883.74246  20906986.593    20906985.302    20906995.347
       230.000         184.000
 -18690500.74349 -14550789.12647  19388773.773    19388773.130    19388781.501
       242.000         206.000
 -10695062.53449  -8321265.20745  22395117.793    22395117.232    22395132.277
       209.000         149.000
 00  4 27 17 36 29.9930000  0  7G 2G 4G24G 5G 7G 9G16
   4289488.50849   3342916.13245  21949663.772    21949661.774    21949677.649
       217.000         159.000
 -21557323.51449 -16777356.63147  18447414.870    18447414.671    18447422.233
       241.000         208.000
 -30820631.51149 -23660177.44347  18826368.566    18826368.246    18826378.217
       242.000         204.000
 -24862103.63649 -19349750.17046  20081980.011    20081979.280    20081988.497
       232.000         187.000
   3311655.30449   2581566.89646  20911793.626    20911792.281    20911802.329
       229.000         184.000
 -18698348.36849 -14556904.22947  19387280.495    19387279.849    19387288.218
       242.000         206.000
 -10741632.65749  -8357553.45045  22386255.659    22386255.119    22386270.128
       206.000         148.000
 00  4 27 17 36 59.9930000  0  7G 2G 4G24G 5G 7G 9G16
   4334636.71449   3378096.11545  21958255.633    21958253.562    21958269.513
       217.000         161.000
 -21572140.35249 -16788902.24247  18444595.376    18444595.164    18444602.714
       240.000         208.000
 -30916246.66349 -23734682.71347  18808173.628    18808173.278    18808183.225
       243.000         204.000
 -24978267.19449 -19440267.20247  20059874.767    20059874.061    20059883.255
       232.000         188.000
   3336939.31049   2601268.57846  20916605.118    20916603.777    20916613.857
       229.000         184.000
 -18705692.59449 -14562627.07347  19385883.029    19385882.363    19385890.725
       242.000         205.000
 -10787754.64749  -8393492.47545  22377478.653    22377478.232    22377493.385
       204.000         147.000
 00  4 27 17 37 29.9930000  0  7G 2G 4G24G 5G 7G 9G16
   4379966.69649   3413417.76645  21966881.961    21966879.904    21966895.980
       216.000         159.000
 -21586412.79349 -16800023.65047  18441879.496    18441879.249    18441886.786
       241.000         208.000
 -31011397.38049 -23808826.08947  18790067.075    18790066.677    18790076.618
       243.000         205.000
 -25094296.85349 -19530679.90546  20037794.990    20037794.298    20037803.484
       233.000         187.000
   3362260.61749   2620999.36246  20921423.718    20921422.373    20921432.458
       228.000         183.000
 -18712532.11449 -14567956.63647  19384581.574    19384580.919    19384589.279
       242.000         205.000
 -10833421.90649  -8429077.18145  22368788.579    22368788.038    22368803.095
       205.000         150.000
 00  4 27 17 37 59.9930000  0  7G 2G 4G24G 5G 7G 9G16
   4425494.62849   3448893.62745  21975545.909    21975543.880    21975560.110
       214.000         155.000
 -21600105.82049 -16810693.56747  18439273.804    18439273.569    18439281.132
       240.000         208.000
 -31106059.82649 -23882588.98447  18772053.442    18772053.015    18772062.916
       243.000         204.000
 -25210153.57149 -19620957.83946  20015748.193    20015747.461    20015756.632
       232.000         187.000
   3387653.17549   2640785.64346  20926255.833    20926254.495    20926264.659
       227.000         182.000
 -18718854.10349 -14572882.92647  19383378.568    19383377.933    19383386.313
       241.000         205.000
 -10878574.41249  -8464260.79545  22360196.469    22360195.810    22360210.825
       209.000         152.000
 00  4 27 17 38 29.9930000  0  7G 2G 4G24G 5G 7G 9G16
   4471206.72449   3484512.98045  21984244.808    21984242.896    21984259.292
       213.000         154.000
 -21613227.68549 -16820918.42247  18436776.781    18436776.561    18436784.160
       240.000         207.000
 -31200254.70949 -23955987.54647  18754128.665    18754128.265    18754138.173
       243.000         204.000
 -25325824.55349 -19711091.04347  19993736.753    19993735.982    19993745.116
       233.000         188.000
   3413093.67949   2660609.27846  20931097.059    20931095.761    20931105.939
       228.000         183.000
 -18724670.66549 -14577415.38347  19382271.751    19382271.122    19382279.531
       241.000         205.000
 -10923192.36249  -8499027.89245  22351706.120    22351705.291    22351720.184
       212.000         152.000
 00  4 27 17 38 59.9930000  0  8G 2G30G 4G24G 5G 7G 9G16
   4517089.74049   3520265.52745  21992976.217    21992974.439    21992990.973
       213.000         155.000
   -223070.34354                  23144436.163                    23144448.046
       206.000         127.000
 -21625808.12049 -16830721.38647  18434382.774    18434382.578    18434390.196
       240.000         207.000
 -31293999.16949 -24029035.11247  18736289.575    18736289.236    18736299.140
       243.000         204.000
 -25441337.64949 -19801101.21147  19971755.344    19971754.586    19971763.653
       233.000         189.000
   3438563.23449   2680455.55346  20935943.777    20935942.527    20935952.754
       227.000         182.000
 -18730000.65849 -14581568.69447  19381257.547    19381256.887    19381265.335
       241.000         205.000
 -10967292.46049  -8533391.45045  22343314.053    22343313.309    22343328.112
       206.000         149.000
 00  4 27 17 39 29.9930000  0  8G 2G30G 4G24G 5G 7G 9G16
   4563182.09949   3556181.22245  22001747.702    22001745.877    22001762.511
       213.000         155.000
   -471514.71249   -331382.30144  23117984.989    23117985.923    23117993.876
       205.000         127.000
 -21637837.19149 -16840094.72647  18432093.738    18432093.550    18432101.144
       241.000         207.000
 -31387254.79249 -24101701.77347  18718543.609    18718543.248    18718553.131
       242.000         204.000
 -25556693.93549 -19890989.18147  19949803.751    19949802.995    19949812.041
       234.000         189.000
   3464073.40149   2700333.45646  20940798.222    20940796.996    20940807.318
       225.000         180.000
 -18734833.92849 -14585334.95747  19380337.853    19380337.206    19380345.658
       241.000         206.000
 -11010857.56949  -8567338.12745  22335023.661    22335022.983    22335037.800
       205.000         146.000
 00  4 27 17 39 59.9930000  0  8G 2G30G 4G24G 5G 7G 9G16
   4609499.70149   3592272.37945  22010561.945    22010560.086    22010576.887
       214.000         155.000
   -610607.58659   -439766.23954  23091516.438    23091515.090    23091528.055
       204.000         125.000
 -21649305.96349 -16849031.47247  18429911.353    18429911.152    18429918.720
       241.000         208.000
 -31480029.71749 -24173993.85547  18700889.117    18700888.740    18700898.601
       242.000         204.000
 -25671898.02249 -19980758.56147  19927881.126    19927880.377    19927889.389
       233.000         189.000
   3489607.71149   2720230.14646  20945657.173    20945656.034    20945666.484
       227.000         181.000
 -18739160.11649 -14588706.09047  19379514.644    19379514.016    19379522.486
       241.000         206.000
 -11053887.67149  -8600867.95045  22326835.022    22326834.461    22326849.217
       205.000         144.000
 00  4 27 17 40 29.9930000  0  8G 2G30G 4G24G 5G 7G 9G16
   4656051.19549   3628545.77445  22019420.747    22019418.829    22019435.777
       213.000         155.000
   -749795.20449   -548224.05244  23065029.808    23065029.855    23065041.119
       207.000         126.000
 -21660236.32649 -16857548.68647  18427831.432    18427831.200    18427838.760
       241.000         208.000
 -31572329.22949 -24245915.48947  18683325.072    18683324.676    18683334.511
       243.000         204.000
 -25786946.41349 -20070406.60447  19905988.098    19905987.378    19905996.378
       233.000         189.000
   3515154.80549   2740136.81646  20950518.714    20950517.532    20950528.093
       226.000         181.000
 -18742958.93749 -14591666.28547  19378791.784    19378791.183    19378799.683
       241.000         205.000
 -11096399.98049  -8633994.27545  22318745.045    22318744.431    22318759.147
       206.000         146.000
 00  4 27 17 40 59.9930000  0  8G 2G30G 4G24G 5G 7G 9G16
   4702843.52649   3665006.83645  22028325.401    22028323.496    22028340.430
       208.000         147.000
   -889061.64349   -656743.26944  23038527.998    23038528.314    23038539.843
       207.000         127.000
 -21670634.02349 -16865650.83247  18425852.824    18425852.614    18425860.170
       241.000         208.000
 -31664134.33149 -24317451.86347  18665855.052    18665854.694    18665864.515
       242.000         205.000
 -25901838.13849 -20159932.58947  19884124.955    19884124.184    19884133.160
       234.000         189.000
   3540725.04249   2760061.53946  20955384.552    20955383.420    20955394.112
       226.000         180.000
 -18746229.25449 -14594214.65247  19378169.537    19378168.913    19378177.438
       242.000         205.000
 -11138413.82049  -8666732.18845  22310749.938    22310749.379    22310764.027
       207.000         149.000
 00  4 27 17 41 29.9930000  0  8G 2G30G 4G24G 5G 7G 9G16
   4749869.22849   3701649.75745  22037274.591    22037272.580    22037289.521
       205.000         145.000
  -1028397.33649   -765316.44344  23012013.071    23012013.153    23012025.138
       206.000         129.000
 -21680491.12949 -16873331.73447  18423977.126    18423976.900    18423984.451
       241.000         207.000
 -31755445.95649 -24388603.71847  18648479.009    18648478.634    18648488.441
       243.000         205.000
 -26016563.04349 -20249328.58947  19862293.534    19862292.746    19862301.697
       234.000         190.000
   3566313.92949   2780000.79146  20960253.999    20960252.873    20960263.650
       226.000         180.000
 -18748968.00149 -14596348.81747  19377648.409    19377647.794    19377656.346
       241.000         205.000
 -11179922.37649  -8699076.43345  22302851.043    22302850.536    22302865.167
       208.000         151.000
 00  4 27 17 41 59.9930000  0  8G 2G30G 4G24G 5G 7G 9G16
   4797088.78249   3738443.71445  22046260.666    22046258.553    22046275.548
       208.000         152.000
  -1167810.19949   -873949.73745  22985483.495    22985483.532    22985495.617
       207.000         134.000
 -21689830.70949 -16880609.36547  18422199.851    18422199.650    18422207.214
       240.000         207.000
 -31846298.77549 -24459398.05547  18631190.280    18631189.886    18631199.693
       243.000         205.000
 -26131129.38649 -20338601.02447  19840492.235    19840491.473    19840500.403
       234.000         190.000
   3591901.70949   2799939.16046  20965123.199    20965122.129    20965132.978
       226.000         181.000
 -18751200.58649 -14598088.57447  19377223.671    19377223.005    19377231.563
       241.000         204.000
 -11220942.53349  -8731040.01045  22295044.935    22295044.530    22295059.129
       208.000         152.000
 00  4 27 17 42 29.9930000  0  8G 2G30G 4G24G 5G 7G 9G16
   4844520.10949   3775402.64845  22055286.942    22055284.752    22055301.909
       213.000         152.000
  -1307257.29549   -982609.71345  22958947.524    22958947.587    22958959.840
       208.000         135.000
 -21698641.14549 -16887474.67847  18420523.276    18420523.083    18420530.676
       241.000         207.000
 -31936665.31549 -24529813.48247  18613994.056    18613993.675    18614003.460
       243.000         206.000
 -26245521.26349 -20427737.49347  19818724.106    19818723.383    19818732.337
       234.000         191.000
   3617525.68949   2819905.75646  20969999.400    20969998.300    20970009.180
       226.000         180.000
 -18752915.59849 -14599425.02547  19376897.339    19376896.686    19376905.257
       241.000         204.000
 -11261449.96849  -8762604.08045  22287336.494    22287336.133    22287350.712
       207.000         152.000
 00  4 27 17 42 59.9930000  0  8G 2G30G 4G24G 5G 7G 9G16
   4892154.01749   3812519.45245  22064351.714    22064349.562    22064366.753
       212.000         149.000
  -1446732.34449  -1091291.46645  22932406.342    22932406.372    22932418.698
       209.000         138.000
 -21706907.93749 -16893916.37747  18418950.218    18418950.004    18418957.583
       241.000         207.000
 -32026538.63049 -24599844.57647  18596891.701    18596891.315    18596901.099
       243.000         205.000
 -26359758.52849 -20516753.52047  19796985.445    19796984.692    19796993.680
       234.000         191.000
   3643191.36049   2839904.83046  20974883.539    20974882.418    20974893.341
       225.000         179.000
 -18754131.24849 -14600372.35747  19376666.085    19376665.413    19376673.980
       242.000         204.000
 -11301448.86749  -8793771.94945  22279724.651    22279724.434    22279739.040
       204.000         150.000
 00  4 27 17 43 29.9930000  0  8G 2G30G 4G24G 5G 7G 9G16
   4939977.97549   3849784.39145  22073452.663    22073450.527    22073467.811
       208.000         146.000
  -1586247.15149  -1200004.20945  22905857.289    22905857.505    22905869.862
       209.000         140.000
 -21714641.12649 -16899942.28547  18417478.712    18417478.473    18417486.032
       242.000         208.000
 -32115954.26549 -24669519.04147  18579876.379    18579876.015    18579885.796
       241.000         205.000
 -26473865.94249 -20605668.37347  19775271.459    19775270.761    19775279.748
       234.000         191.000
   3668890.25249   2859929.77546  20979773.956    20979772.809    20979783.813
       226.000         178.000
 -18754859.96849 -14600940.27347  19376527.522    19376526.811    19376535.392
       242.000         205.000
 -11340940.52049  -8824544.55945  22272209.448    22272209.214    22272223.895
       203.000         147.000
 00  4 27 17 43 59.9930000  0  8G 2G30G 4G24G 5G 7G 9G16
   4988015.43249   3887215.63445  22082594.349    22082592.078    22082609.502
       211.000         147.000
  -1725784.69749  -1308734.65645  22879304.162    22879304.334    22879316.728
       210.000         142.000
 -21721833.66549 -16905546.91547  18416110.088    18416109.814    18416117.355
       242.000         208.000
 -32204896.27649 -24738824.45147  18562951.238    18562950.865    18562960.629
       241.000         205.000
 -26587822.66749 -20694465.81247  19753586.193    19753585.469    19753594.482
       234.000         191.000
   3694644.32049   2879997.74446  20984674.925    20984673.732    20984684.775
       226.000         178.000
 -18755090.78949 -14601120.21647  19376483.616    19376482.929    19376491.532
       241.000         205.000
 -11379907.19049  -8854908.09645  22264794.034    22264793.803    22264808.552
       203.000         143.000
 00  4 27 17 44 29.9930000  0  8G 2G30G 4G24G 5G 7G 9G16
   5036246.74249   3924797.90545  22091772.785    22091770.546    22091788.054
       206.000         140.000
  -1865374.48249  -1417505.79545  22852740.964    22852741.285    22852753.757
       211.000         142.000
 -21728500.34749 -16910741.78647  18414841.505    18414841.224    18414848.750
       242.000         207.000
 -32293374.12749 -24807768.18747  18546114.429    18546114.056    18546123.798
       241.000         205.000
 -26701643.05449 -20783157.03947  19731926.868    19731926.157    19731935.144
       234.000         191.000
   3720437.21849   2900095.97846  20989583.199    20989582.054    20989593.143
       225.000         178.000
 -18754839.30949 -14600924.33447  19376531.509    19376530.840    19376539.472
       242.000         205.000
 -11418371.68049  -8884880.29745  22257474.455    22257474.126    22257488.802
       206.000         146.000
 00  4 27 17 44 59.9930000  0  8G 2G30G 4G24G 5G 7G 9G16
   5084660.02549   3962521.99245  22100985.951    22100983.690    22101001.266
       200.000         140.000
  -2005042.22949  -1526337.68445  22826163.215    22826163.386    22826175.893
       207.000         140.000
 -21734651.30149 -16915534.79247  18413671.039    18413670.761    18413678.290
       241.000         207.000
 -32381382.10049 -24876345.78447  18529367.001    18529366.649    18529376.375
       241.000         205.000
 -26815315.53149 -20871733.00247  19710295.725    19710294.997    19710303.970
       235.000         192.000
   3746258.89349   2920216.62646  20994496.937    20994495.846    20994507.013
       225.000         179.000
 -18754126.15349 -14600368.70547  19376667.267    19376666.604    19376675.271
       242.000         205.000
 -11456345.64249  -8914470.29945  22250248.206    22250247.798    22250262.432
       210.000         147.000
 00  4 27 17 45 29.9930000  0  8G 2G30G 4G24G 5G 7G 9G16
   5133266.53249   4000396.62045  22110235.919    22110233.601    22110251.302
       206.000         142.000
  -2144790.32349  -1635232.17545  22799570.135    22799570.110    22799582.674
       209.000         142.000
 -21740293.48949 -16919931.35747  18412597.343    18412597.102    18412604.652
       241.000         206.000
 -32468915.70649 -24944553.73747  18512709.901    18512709.536    18512719.221
       241.000         205.000
 -26928813.07349 -20960172.65147  19688697.839    19688697.111    19688706.096
       234.000         192.000
   3772103.12949   2940354.85546  20999415.060    20999413.927    20999425.143
       225.000         178.000
 -18752949.83849 -14599452.17247  19376891.225    19376890.526    19376899.220
       241.000         205.000
 -11493813.91949  -8943666.23145  22243118.155    22243117.742    22243132.277
       207.000         149.000
 00  4 27 17 45 59.9930000  0  8G 2G30G 4G24G 5G 7G 9G16
   5182067.07549   4038422.43945  22119522.659    22119520.331    22119538.338
       208.000         151.000
  -2284598.82849  -1744173.73345  22772965.362    22772965.411    22772977.988
       211.000         142.000
 -21745417.60749 -16923924.23447  18411622.238    18411622.015    18411629.586
       241.000         207.000
 -32555934.12749 -25012360.25347  18496150.810    18496150.465    18496160.094
       241.000         205.000
 -27042109.06649 -21048455.24147  19667138.388    19667137.607    19667146.574
       235.000         192.000
   3797977.92849   2960516.85646  21004338.871    21004337.774    21004349.073
       224.000         177.000
 -18751301.48149 -14598167.81947  19377204.897    19377204.246    19377212.989
       240.000         205.000
 -11530769.24649  -8972462.54445  22236085.629    22236085.260    22236099.846
       209.000         151.000
 00  4 27 17 46 29.9930000  0  8G 2G30G 4G24G 5G 7G 9G16
   5231041.71049   4076583.95545  22128842.602    22128840.318    22128858.456
       206.000         147.000
  -2424462.18149  -1853158.03745  22746350.362    22746350.270    22746362.881
       211.000         143.000
 -21750027.04249 -16927516.05847  18410745.090    18410744.884    18410752.462
       241.000         207.000
 -32642447.89049 -25079773.52547  18479687.728    18479687.393    18479697.024
       241.000         206.000
 -27155207.24949 -21136583.68047  19645616.531    19645615.730    19645624.687
       235.000         192.000
   3823865.49849   2980688.83746  21009265.232    21009264.100    21009275.492
       225.000         178.000
 -18749195.31049 -14596526.72847  19377605.698    19377605.077    19377613.863
       241.000         204.000
 -11567232.10749  -9000875.07345  22229146.963    22229146.568    22229161.076
       209.000         151.000
 00  4 27 17 46 59.9930000  0  8G 2G30G 4G24G 5G 7G 9G16
   5280229.37649   4114911.46245  22138203.242    22138200.880    22138219.143
       211.000         155.000
  -2564333.38349  -1962148.45645  22719733.392    22719733.559    22719746.178
       210.000         143.000
 -21754105.74149 -16930694.32447  18409968.998    18409968.768    18409976.350
       242.000         207.000
 -32728431.63149 -25146773.79047  18463325.488    18463325.173    18463334.845
       240.000         205.000
 -27268079.06649 -21224535.72847  19624137.736    19624136.929    19624145.885
       235.000         193.000
   3849774.32149   3000877.37946  21014195.653    21014194.471    21014205.931
       225.000         177.000
 -18746611.17549 -14594513.18947  19378097.520    19378096.880    19378105.681
       241.000         204.000
 -11603170.06549  -9028878.59945  22222308.169    22222307.757    22222322.213
       208.000         150.000
 00  4 27 17 47 29.9930000  0  8G 2G30G 4G24G 5G 7G 9G16
   5329608.08949   4153387.89945  22147600.036    22147597.759    22147616.234
       211.000         149.000
  -2704211.95449  -2071144.63345  22693115.305    22693115.493    22693128.038
       214.000         146.000
 -21757672.90149 -16933473.98947  18409290.281    18409290.028    18409297.596
       242.000         207.000
 -32813921.61649 -25213389.31547  18447057.212    18447056.907    18447066.608
       240.000         205.000
 -27380745.57749 -21312327.80047  19602698.020    19602697.204    19602706.146
       235.000         193.000
   3875673.13149   3021058.12246  21019124.187    21019122.975    21019134.463
       224.000         178.000
 -18743550.71749 -14592128.49647  19378679.962    19378679.333    19378688.129
       242.000         204.000
 -11638590.38249  -9056478.72945  22215568.037    22215567.482    22215581.893
       208.000         150.000
 00  4 27 17 47 59.9930000  0  8G 2G30G 4G24G 5G 7G 9G16
   5379193.42049   4192025.43645  22157036.254    22157034.006    22157052.569
       210.000         152.000
  -2844074.79449  -2180128.56445  22666500.269    22666500.401    22666512.938
       216.000         147.000
 -21760707.89149 -16935838.97647  18408712.825    18408712.546    18408720.122
       241.000         207.000
 -32898901.81249 -25279607.59447  18430886.000    18430885.679    18430895.374
       240.000         205.000
 -27493184.88949 -21399942.82147  19581301.527    19581300.701    19581309.665
       236.000         193.000
   3901592.24949   3041254.70646  21024056.618    21024055.364    21024066.871
       225.000         178.000
 -18739986.30449 -14589351.10347  19379358.360    19379357.693    19379366.494
       242.000         204.000
 -11673470.37049  -9083657.82245  22208930.607    22208930.027    22208944.367
       211.000         151.000
 00  4 27 17 48 29.9930000  0  8G 2G30G 4G24G 5G 7G 9G16
   5428975.07449   4230815.81345  22166509.566    22166507.493    22166526.246
       203.000         140.000
  -2983960.32549  -2289130.15745  22639880.874    22639880.970    22639893.484
       215.000         145.000
 -21763243.00449 -16937814.44047  18408230.459    18408230.173    18408237.764
       241.000         207.000
 -32983405.30949 -25345454.43147  18414805.460    18414805.171    18414814.839
       240.000         204.000
 -27605422.36449 -21487400.56247  19559943.368    19559942.605    19559951.579
       235.000         194.000
   3927510.89249   3061450.91346  21028988.906    21028987.654    21028999.161
       226.000         178.000
 -18735937.80749 -14586196.49947  19380128.780    19380128.151    19380136.965
       242.000         205.000
 -11707823.91749  -9110426.73745  22202393.387    22202392.771    22202407.009
       209.000         151.000
 00  4 27 17 48 59.9920000  0  8G 2G30G 4G24G 5G 7G 9G16
   5478947.82048   4269755.26944  22176019.359    22176017.363    22176036.191
       188.000         129.000
  -3123897.91649  -2398172.33745  22613251.683    22613251.635    22613264.131
       218.000         144.000
 -21765283.37049 -16939404.38947  18407842.167    18407841.906    18407849.555
       241.000         206.000
 -33067430.70349 -25410928.71847  18398815.906    18398815.621    18398825.282
       240.000         204.000
 -27717471.71949 -21574711.72947  19538621.080    19538620.311    19538629.266
       235.000         194.000
   3953435.50749   3081651.75746  21033922.359    21033921.074    21033932.568
       226.000         178.000
 -18731404.90249 -14582664.43547  19380991.444    19380990.800    19380999.622
       242.000         204.000
 -11741634.75349  -9136772.73445  22195959.403    22195958.735    22195972.861
       210.000         150.000
 00  4 27 17 49 29.9920000  0  8G 2G30G 4G24G 5G 7G 9G16
   5529104.34149   4308837.69945  22185564.048    22185562.135    22185581.170
       204.000         134.000
  -3263909.57549  -2507272.27245  22586608.240    22586608.301    22586620.559
       218.000         146.000
 -21766808.50449 -16940592.84847  18407551.941    18407551.700    18407559.372
       241.000         207.000
 -33150970.09449 -25476024.30247  18382918.871    18382918.564    18382928.195
       240.000         204.000
 -27829337.19549 -21661879.62147  19517333.820    19517333.021    19517341.980
       237.000         194.000
   3979397.07849   3101881.40246  21038862.844    21038861.534    21038873.045
       225.000         177.000
 -18726373.87349 -14578744.22947  19381948.971    19381948.257    19381957.057
       242.000         204.000
 -11774902.95649  -9162695.90445  22189628.760    22189627.989    22189642.125
       210.000         150.000
 00  4 27 17 49 59.9920000  0  8G 2G30G 4G24G 5G 7G 9G16
   5579440.59149   4348060.43144  22195143.029    22195141.069    22195160.076
       197.000         125.000
  -3403999.74349  -2616433.35345  22559949.943    22559949.967    22559962.068
       218.000         145.000
 -21767807.39749 -16941371.24847  18407361.920    18407361.657    18407369.346
       242.000         207.000
 -33234003.64549 -25540725.72647  18367118.078    18367117.749    18367127.377
       240.000         204.000
 -27941018.85249 -21748904.27747  19496081.518    19496080.701    19496089.665
       236.000         195.000
   4005405.56049   3122147.58646  21043812.201    21043810.922    21043822.444
       223.000         178.000
 -18720851.92549 -14574441.49147  19382999.845    19382999.126    19383007.950
       242.000         204.000
 -11807648.17749  -9188211.59645  22183397.619    22183396.808    22183410.805
       209.000         151.000
 00  4 27 17 50 29.9920000  0  8G 2G30G 4G24G 5G 7G 9G16
   5629956.28949   4387422.80945  22204756.154    22204754.255    22204773.402
       206.000         142.000
  -3544156.45949  -2725646.28345  22533278.774    22533278.843    22533291.079
       215.000         148.000
 -21768267.15549 -16941729.54247  18407274.472    18407274.215    18407281.904
       242.000         206.000
 -33316530.77149 -25605032.53147  18351413.629    18351413.313    18351422.938
       239.000         204.000
 -28052509.63449 -21835780.20547  19474865.501    19474864.687    19474873.665
       236.000         194.000
   4031461.90049   3142451.06146  21048770.703    21048769.410    21048780.960
       224.000         178.000
 -18714838.21949 -14569755.56147  19384144.225    19384143.542    19384152.406
       241.000         204.000
 -11839869.58649  -9213319.12645  22177266.315    22177265.330    22177279.221
       207.000         151.000
 00  4 27 17 50 59.9920000  0  8G 2G30G 4G24G 5G 7G 9G16
   5680645.70349   4426920.62545  22214402.379    22214400.481    22214419.616
       200.000         138.000
  -3684367.10249  -2834901.23145  22506597.381    22506597.543    22506609.816
       212.000         148.000
 -21768189.40349 -16941668.99447  18407289.341    18407289.051    18407296.750
       242.000         207.000
 -33398564.04049 -25668954.51447  18335803.115    18335802.834    18335812.476
       239.000         204.000
 -28163804.40149 -21922503.39447  19453686.796    19453686.003    19453694.957
       236.000         194.000
   4057556.25949   3162784.18346  21053736.468    21053735.141    21053746.723
       223.000         177.000
 -18708343.18249 -14564694.57447  19385380.224    19385379.558    19385388.454
       241.000         204.000
 -11871576.00649  -9238025.36745  22171232.732    22171231.759    22171245.671
       208.000         152.000
 00  4 27 17 51 29.9920000  0  9G 2G30G 4G24G 5G 7G10G 9G16
   5731524.94349   4466566.27045  22224084.801    22224082.738    22224102.163
       208.000         151.000
  -3824599.28849  -2944172.95545  22479911.979    22479912.155    22479924.369
       213.000         149.000
 -21767583.77449 -16941197.11247  18407404.626    18407404.341    18407412.044
       242.000         206.000
 -33480092.87049 -25732483.42847  18320288.693    18320288.385    18320298.021
       240.000         205.000
 -28274887.71549 -22009061.80647  19432548.313    19432547.526    19432556.469
       235.000         194.000
   4083691.00249   3183148.77446  21058709.895    21058708.548    21058720.157
       225.000         177.000
  -2771761.83559  -2127462.01055  22979752.369    22979750.992    22979775.042
       205.000         140.000
 -18701360.07049 -14559253.27447  19386709.153    19386708.451    19386717.377
       242.000         204.000
 -11902775.54449  -9262336.62545  22165295.576    22165294.644    22165308.511
       210.000         154.000
 00  4 27 17 51 59.9920000  0  9G 2G30G 4G24G 5G 7G10G 9G16
   5782604.87449   4506368.21245  22233805.345    22233803.289    22233822.877
       205.000         149.000
  -3964839.76149  -3053451.13745  22453225.021    22453225.214    22453237.357
       213.000         151.000
 -21766476.34049 -16940334.21047  18407615.398    18407615.107    18407622.823
       241.000         206.000
 -33561131.78049 -25795630.58947  18304867.532    18304867.181    18304876.794
       240.000         204.000
 -28385757.65949 -22095453.95447  19411450.481    19411449.675    19411458.602
       236.000         194.000
   4109863.84549   3203543.04146  21063690.611    21063689.211    21063700.817
       223.000         176.000
  -2907159.13649  -2232966.39745  22953986.978    22953985.638    22954009.745
       208.000         142.000
 -18693895.77449 -14553437.02547  19388129.612    19388128.934    19388137.868
       242.000         205.000
 -11933461.13749  -9286247.43445  22159456.258    22159455.321    22159469.199
       213.000         156.000
 00  4 27 17 52 29.9920000  0  9G 2G30G 4G24G 5G 7G10G 9G16
   5833887.02549   4546327.88745  22243564.515    22243562.413    22243582.033
       211.000         148.000
  -4105098.49149  -3162743.53645  22426534.631    22426534.765    22426546.824
       218.000         155.000
 -21764898.51749 -16939104.76147  18407915.637    18407915.363    18407923.094
       241.000         206.000
 -33641692.56249 -25858405.17447  18289537.292    18289536.945    18289546.555
       239.000         204.000
 -28496421.19849 -22181685.26447  19390391.918    19390391.102    19390400.007
       236.000         194.000
   4136063.48149   3223958.18346  21068676.295    21068674.939    21068686.615
       223.000         176.000
  -3042738.41449  -2338612.55045  22928187.147    22928185.796    22928209.768
       209.000         142.000
 -18685967.09449 -14547258.91247  19389638.400    19389637.778    19389646.702
       242.000         204.000
 -11963622.57949  -9309749.79545  22153716.568    22153715.754    22153729.591
       209.000         153.000
 00  4 27 17 52 59.9920000  0  9G 2G30G 4G24G 5G 7G10G 9G16
   5885385.57148   4586456.17045  22253364.809    22253362.613    22253382.445
       193.000         137.000
  -4245376.31149  -3272050.82745  22399840.676    22399840.771    22399852.729
       219.000         160.000
 -21762856.05549 -16937513.26247  18408304.300    18408304.042    18408311.793
       241.000         206.000
 -33721744.79949 -25920783.50547  18274303.771    18274303.467    18274313.058
       238.000         203.000
 -28606880.91549 -22267757.74147  19369372.116    19369371.308    19369380.213
       236.000         194.000
   4162302.07549   3244403.69346  21073669.471    21073668.089    21073679.814
       224.000         176.000
  -3178515.52549  -2444412.85345  22902349.442    22902348.148    22902372.247
       203.000         137.000
 -18677569.02849 -14540715.04647  19391236.567    19391235.946    19391244.879
       242.000         204.000
 -11993258.07849  -9332842.29845  22148076.914    22148076.215    22148090.025
       206.000         150.000
 00  4 27 17 53 29.9920000  0  9G 2G30G 4G24G 5G 7G10G 9G16
   5937079.42749   4626736.50545  22263202.450    22263200.112    22263220.049
       197.000         138.000
  -4385679.53249  -3381377.90245  22373141.776    22373141.886    22373153.818
       220.000         160.000
 -21760350.44049 -16935560.85947  18408781.094    18408780.869    18408788.646
       241.000         206.000
 -33801275.68949 -25982755.58247  18259169.510    18259169.213    18259178.762
       239.000         203.000
 -28717143.31949 -22353676.46247  19348389.839    19348389.032    19348397.937
       236.000         195.000
   4188579.45049   3264879.41946  21078669.988    21078668.647    21078680.383
       223.000         175.000
  -3314497.81749  -2550373.00445  22876472.579    22876471.556    22876495.648
       205.000         138.000
 -18668707.37749 -14533809.93947  19392922.942    19392922.317    19392931.264
       242.000         204.000
 -12022369.18049  -9355526.18945  22142536.806    22142536.337    22142550.248
       203.000         146.000
 00  4 27 17 53 59.9920000  0  9G 2G30G 4G24G 5G 7G10G 9G16
   5988954.55548   4667158.16244  22273074.648    22273072.122    22273091.846
       192.000         126.000
  -4526008.86549  -3490725.34045  22346437.898    22346438.033    22346449.920
       221.000         161.000
 -21757369.18649 -16933237.82147  18409348.411    18409348.189    18409356.023
       242.000         206.000
 -33880294.29449 -26044328.47247  18244132.788    18244132.444    18244141.960
       239.000         204.000
 -28827210.48549 -22439443.06047  19327444.670    19327443.915    19327452.837
       236.000         194.000
   4214885.56049   3285377.53846  21083675.998    21083674.676    21083686.414
       223.000         175.000
  -3450692.83549  -2656498.86445  22850555.546    22850554.578    22850578.563
       200.000         136.000
 -18659397.23649 -14526555.35547  19394694.706    19394694.024    19394702.974
       242.000         203.000
 -12050950.09249  -9377796.94245  22137097.692    22137097.352    22137111.323
       202.000         144.000
 00  4 27 17 54 29.9920000  0  9G 2G30G 4G24G 5G 7G10G 9G16
   6041011.89149   4707721.67945  22282981.499    22282978.829    22282998.677
       209.000         147.000
  -4666358.29649  -3600088.45245  22319730.239    22319730.397    22319742.209
       219.000         157.000
 -21753886.79549 -16930524.28447  18410011.105    18410010.901    18410018.735
       242.000         206.000
 -33958791.36049 -26105494.97347  18229195.259    18229194.930    18229204.414
       239.000         204.000
 -28937070.00649 -22525047.86247  19306539.121    19306538.330    19306547.249
       235.000         194.000
   4241207.03949   3305887.59946  21088685.051    21088683.657    21088695.368
       224.000         176.000
  -3587081.51849  -2762775.57745  22824601.434    22824600.552    22824624.608
       198.000         138.000
 -18649637.93049 -14518950.77347  19396551.859    19396551.213    19396560.174
       241.000         203.000
 -12079006.62749  -9399659.10845  22131758.398    22131758.224    22131772.258
       202.000         146.000
 00  4 27 17 54 59.9920000  0  9G 2G30G 4G24G 5G 7G10G 9G16
   6093220.18349   4748402.96745  22292916.638    22292914.211    22292934.142
       202.000         140.000
  -4806725.95649  -3709465.76345  22293018.974    22293019.184    22293030.990
       217.000         154.000
 -21749912.61549 -16927427.53847  18410767.439    18410767.211    18410775.022
       242.000         206.000
 -34036789.15149 -26166272.42847  18214352.767    18214352.428    18214361.894
       239.000         204.000
 -29046726.93649 -22610494.79747  19285672.056    19285671.270    19285680.224
       236.000         195.000
   4267524.02249   3326394.19246  21093693.256    21093691.797    21093703.496
       223.000         174.000
  -3723641.79349  -2869186.01845  22798614.973    22798613.932    22798638.069
       207.000         143.000
 -18639441.37249 -14511005.47547  19398492.240    19398491.606    19398500.596
       241.000         204.000
 -12106558.48949  -9421128.05345  22126515.412    22126515.159    22126529.305
       205.000         150.000
 00  4 27 17 55 29.9920000  0  9G 2G30G 4G24G 5G 7G10G 9G16
   6145583.10749   4789204.75745  22302881.214    22302878.864    22302898.928
       205.000         138.000
  -4947098.43049  -3818846.84145  22266306.939    22266307.097    22266318.872
       216.000         152.000
 -21745432.09349 -16923936.24247  18411620.134    18411619.882    18411627.668
       242.000         206.000
 -34114300.39649 -26226670.75547  18199602.892    18199602.519    18199611.951
       239.000         204.000
 -29156176.74649 -22695780.34147  19264844.370    19264843.631    19264852.601
       236.000         194.000
   4293833.24549   3346894.70946  21098699.969    21098698.466    21098710.104
       223.000         175.000
  -3860341.13649  -2975704.84345  22772601.937    22772600.921    22772624.911
       203.000         141.000
 -18628810.39749 -14502721.67747  19400515.356    19400514.675    19400523.697
       241.000         204.000
 -12133598.71649  -9442198.31145  22121369.920    22121369.507    22121383.597
       209.000         152.000
 00  4 27 17 55 59.9920000  0  9G 2G30G 4G24G 5G 7G10G 9G16
   6198125.26849   4830146.22145  22312880.017    22312877.732    22312897.870
       207.000         142.000
  -5087469.62549  -3928226.91245  22239595.114    22239595.283    22239607.022
       215.000         154.000
 -21740442.35249 -16920048.15147  18412569.732    18412569.460    18412577.204
       242.000         206.000
 -34191328.94149 -26286692.95347  18184944.858    18184944.451    18184953.854
       239.000         203.000
 -29265408.99449 -22780896.36347  19244058.168    19244057.415    19244066.365
       236.000         194.000
   4320136.75449   3367390.77146  21103705.510    21103704.011    21103715.600
       221.000         174.000
  -3997164.47849  -3082320.26245  22746565.084    22746564.192    22746588.183
       204.000         141.000
 -18617738.83849 -14494094.57147  19402622.306    19402621.592    19402630.624
       241.000         204.000
 -12160131.59549  -9462873.22145  22116320.983    22116320.424    22116334.550
       209.000         154.000
 00  4 27 17 56 29.9920000  0  9G 2G30G 4G24G 5G 7G10G 9G16
   6250846.75049   4871227.29545  22322912.815    22322910.566    22322930.860
       199.000         133.000
  -5227858.05549  -4037620.38645  22212879.900    22212880.095    22212891.906
       217.000         157.000
 -21734950.78849 -16915769.02547  18413614.766    18413614.495    18413622.233
       241.000         206.000
 -34267859.19649 -26346326.87447  18170381.625    18170381.208    18170390.591
       238.000         203.000
 -29374424.32349 -22865843.35447  19223313.241    19223312.464    19223321.414
       236.000         194.000
   4346440.45449   3387886.99846  21108711.099    21108709.571    21108721.188
       220.000         173.000
  -4134109.33049  -3189030.34045  22720505.364    22720504.387    22720528.240
       203.000         140.000
 -18606223.56749 -14485121.71047  19404813.641    19404812.953    19404822.006
       242.000         205.000
 -12186160.66249  -9483155.52945  22111367.678    22111367.171    22111381.338
       207.000         152.000
 00  4 27 17 56 59.9920000  0  9G 2G30G 4G24G 5G 7G10G 9G16
   6303744.82449   4912446.06445  22332979.248    22332977.133    22332997.542
       206.000         144.000
  -5368266.86049  -4147029.74145  22186160.935    22186161.094    22186172.914
       221.000         160.000
 -21728963.13849 -16911103.33647  18414754.169    18414753.896    18414761.656
       241.000         205.000
 -34343869.18249 -26405555.39547  18155917.317    18155916.937    18155926.309
       238.000         203.000
 -29483231.78749 -22950628.37347  19202607.868    19202607.090    19202616.029
       236.000         194.000
   4372764.22349   3408398.85646  21113720.395    21113718.935    21113730.570
       221.000         174.000
  -4271176.42449  -3295835.66845  22694422.156    22694421.216    22694445.075
       205.000         138.000
 -18594266.04549 -14475804.24747  19407089.153    19407088.449    19407097.509
       242.000         204.000
 -12211673.60149  -9503035.68845  22106512.675    22106512.161    22106526.336
       203.000         148.000
 00  4 27 17 57 29.9920000  0  9G 2G30G 4G24G 5G 7G10G 9G16
   6356835.56449   4953814.88145  22343082.513    22343080.292    22343101.067
       205.000         151.000
  -5508710.96249  -4256466.61546  22159435.419    22159435.446    22159447.206
       221.000         164.000
 -21722467.18349 -16906041.56747  18415990.233    18415990.028    18415997.826
       240.000         205.000
 -34419345.68649 -26464368.22047  18141554.589    18141554.220    18141563.577
       238.000         203.000
 -29591818.51649 -23035241.38847  19181944.502    19181943.707    19181952.639
       236.000         195.000
   4399116.43649   3428932.86346  21118735.108    21118733.694    21118745.362
       221.000         173.000
  -4408383.53749  -3402750.07945  22668312.485    22668311.517    22668335.306
       203.000         140.000
 -18581864.58449 -14466140.84947  19409449.133    19409448.432    19409457.496
       243.000         204.000
 -12236661.96849  -9522507.08745  22101757.243    22101756.947    22101771.115
       201.000         146.000
 00  4 27 17 57 59.9920000  0  9G 2G30G 4G24G 5G 7G10G 9G16
   6410108.67649   4995325.81345  22353220.613    22353218.260    22353239.236
       196.000         145.000
  -5649198.13549  -4365937.04245  22132701.685    22132701.621    22132713.325
       221.000         162.000
 -21715474.44049 -16900592.68747  18417320.889    18417320.698    18417328.523
       241.000         204.000
 -34494274.29849 -26522754.11547  18127296.167    18127295.759    18127305.089
       238.000         202.000
 -29700163.52449 -23119666.03347  19161327.103    19161326.307    19161335.268
       236.000         195.000
   4425497.68549   3449489.48146  21123755.501    21123754.049    21123765.713
       222.000         174.000
  -4545744.64449  -3509784.47545  22642173.466    22642172.505    22642196.260
       202.000         143.000
 -18569019.33049 -14456131.63847  19411893.549    19411892.841    19411901.926
       242.000         204.000
 -12261117.26049  -9541563.14245  22097103.360    22097103.046    22097117.348
       202.000         143.000
 00  4 27 17 58 29.9920000  0  9G 2G30G 4G24G 5G 7G10G 9G16
   6463540.55749   5036960.53645  22363388.591    22363386.314    22363407.554
       205.000         147.000
  -5789731.67349  -4475443.60845  22105959.006    22105958.963    22105970.576
       222.000         160.000
 -21708002.25949 -16894770.22247  18418742.853    18418742.636    18418750.459
       242.000         205.000
 -34568658.81149 -26580716.03847  18113141.229    18113140.834    18113150.140
       238.000         202.000
 -29808260.08249 -23203897.07347  19140756.943    19140756.190    19140765.171
       236.000         195.000
   4451908.71249   3470069.32346  21128781.592    21128780.100    21128791.757
       221.000         174.000
  -4683271.04749  -3616947.62245  22616003.046    22616002.006    22616025.753
       206.000         145.000
 -18555743.38049 -14445786.80947  19414419.911    19414419.220    19414428.337
       242.000         203.000
 -12285034.42649  -9560199.81445  22092551.928    22092551.675    22092565.879
       203.000         144.000
 00  4 27 17 58 59.9920000  0  9G 2G30G 4G24G 5G 7G10G 9G16
   6517131.97149   5078719.57145  22373587.182    22373584.904    22373606.179
       195.000         141.000
  -5930295.78849  -4584973.98045  22079210.592    22079210.515    22079222.064
       220.000         158.000
 -21700067.95049 -16888587.67047  18420252.809    18420252.542    18420260.329
       242.000         205.000
 -34642522.86049 -26638272.42047  18099085.340    18099084.931    18099094.236
       237.000         202.000
 -29916097.72349 -23287926.38147  19120236.128    19120235.370    19120244.342
       236.000         196.000
   4478344.19649   3490668.22846  21133812.254    21133810.783    21133822.434
       221.000         174.000
  -4820959.39349  -3724236.99145  22589801.772    22589800.723    22589824.464
       205.000         144.000
 -18542042.38649 -14435110.78647  19417027.146    19417026.481    19417035.645
       241.000         203.000
 -12308418.35549  -9578420.98345  22088102.125    22088101.722    22088115.956
       209.000         149.000
 00  4 27 17 59 29.9920000  0  9G 2G30G 4G24G 5G 7G10G 9G16
   6570888.82449   5120607.39345  22383817.022    22383814.909    22383836.336
       202.000         143.000
  -6070878.94749  -4694519.16945  22052458.427    22052458.353    22052469.940
       217.000         154.000
 -21691680.88849 -16882052.32047  18421848.911    18421848.591    18421856.336
       242.000         205.000
 -34715886.89149 -26695439.16547  18085124.606    18085124.198    18085133.473
       238.000         202.000
 -30023658.99849 -23371740.34147  19099767.913    19099767.130    19099776.099
       237.000         196.000
   4504796.13749   3511279.94246  21138846.017    21138844.533    21138856.253
       221.000         173.000
  -4958805.11349  -3831648.96545  22563570.577    22563569.487    22563593.115
       198.000         141.000
 -18527911.11849 -14424099.48847  19419716.320    19419715.627    19419724.813
       241.000         203.000
 -12331277.38749  -9596233.16245  22083752.297    22083751.769    22083765.876
       211.000         151.000
 00  4 27 17 59 59.9920000  0  9G 2G30G 4G24G 5G 7G10G 9G16
   6624793.32049   5162610.39745  22394075.330    22394073.075    22394094.461
       202.000         143.000
  -6211461.51249  -4804063.88745  22025706.310    22025706.250    22025717.940
       216.000         155.000
 -21682866.38349 -16875183.89747  18423526.303    18423525.971    18423533.674
       242.000         204.000
 -34788762.45349 -26752225.28847  18071256.838    18071256.413    18071265.670
       238.000         202.000
 -30130966.99149 -23455356.94547  19079347.903    19079347.094    19079356.078
       236.000         196.000
   4531263.25249   3531903.49946  21143882.724    21143881.209    21143892.922
       221.000         172.000
  -5096800.70149  -3939177.74445  22537310.631    22537309.636    22537333.207
       196.000         134.000
 -18513357.18549 -14412758.84047  19422485.897    19422485.182    19422494.406
       241.000         203.000
 -12353625.23049  -9613647.01445  22079499.802    22079499.145    22079513.083
       213.000         153.000
 00  4 27 18  0 29.9920000  0  9G 2G30G 4G24G 5G 7G10G 9G16
   6678854.08149   5204735.17345  22404363.241    22404360.928    22404382.272
       207.000         141.000
  -6352021.45349  -4913591.01445  21998958.446    21998958.511    21998970.197
       218.000         157.000
 -21673624.51749 -16867982.46847  18425284.891    18425284.622    18425292.336
       241.000         204.000
 -34861157.54749 -26808637.02147  18057480.519    18057480.079    18057489.313
       237.000         202.000
 -30238034.32549 -23538786.01947  19058973.628    19058972.828    19058981.816
       236.000         195.000
   4557746.90949   3552539.92546  21148922.513    21148921.024    21148932.718
       221.000         172.000
  -5234923.94349  -4046805.97945  22511026.454    22511025.422    22511049.022
       203.000         136.000
 -18498363.17849 -14401075.27947  19425339.181    19425338.508    19425347.767
       241.000         203.000
 -12375461.98549  -9630662.61445  22075344.453    22075343.768    22075357.587
       207.000         151.000
 00  4 27 18  0 59.9920000  0  9G 2G30G 4G24G 5G 7G10G 9G16
   6733080.93249   5246989.32745  22414682.800    22414680.311    22414701.762
       210.000         144.000
  -6492569.60549  -5023108.93745  21972213.011    21972213.069    21972224.667
       218.000         157.000
 -21663943.00149 -16860438.45747  18427127.153    18427126.934    18427134.686
       240.000         204.000
 -34933075.15449 -26864676.67847  18043794.995    18043794.580    18043803.835
       236.000         202.000
 -30344882.89949 -23622044.62547  19038640.962    19038640.200    19038649.189
       236.000         196.000
   4584236.34349   3573180.84546  21153963.423    21153961.935    21153973.668
       220.000         173.000
  -5373154.85649  -4154518.19545  22484721.607    22484720.705    22484744.243
       205.000         138.000
 -18482923.24349 -14389044.24147  19428277.329    19428276.688    19428285.960
       241.000         203.000
 -12396793.29549  -9647284.38745  22071285.242    22071284.564    22071298.240
       208.000         151.000
 00  4 27 18  1 29.9920000  0  9G 2G30G 4G24G 5G 7G10G 9G16
   6787457.88649   5289360.49145  22425030.866    22425028.356    22425049.773
       212.000         146.000
  -6633111.91549  -5132622.31045  21945468.616    21945468.643    21945480.213
       217.000         156.000
 -21653812.68149 -16852544.74247  18429054.856    18429054.652    18429062.451
       241.000         204.000
 -35004506.05649 -26920337.09747  18030202.045    18030201.681    18030210.944
       237.000         201.000
 -30451525.78149 -23705142.96747  19018347.465    19018346.701    19018355.691
       236.000         195.000
   4610730.39049   3593825.36946  21159005.211    21159003.719    21159015.488
       220.000         171.000
  -5511493.78249  -4262314.52945  22458396.393    22458395.543    22458418.979
       204.000         139.000
 -18467034.97449 -14376663.84647  19431300.834    19431300.180    19431309.472
       242.000         204.000
 -12417618.97949  -9663512.18345  22067322.376    22067321.558    22067335.162
       204.000         149.000
 00  4 27 18  1 59.9920000  0  9G 2G30G 4G24G 5G 7G10G 9G16
   6841984.20049   5331848.05345  22435407.314    22435404.761    22435426.279
       208.000         144.000
  -6773647.65849  -5242130.56345  21918725.318    21918725.469    21918737.042
       214.000         154.000
 -21643224.56449 -16844294.29647  18431069.663    18431069.483    18431077.330
       241.000         204.000
 -35075436.93149 -26975607.88547  18016704.324    18016703.949    18016713.207
       237.000         201.000
 -30557969.48149 -23788086.10047  18998091.858    18998091.106    18998100.104
       235.000         195.000
   4637237.56349   3614480.12746  21164049.551    21164048.028    21164059.808
       221.000         172.000
  -5649928.47649  -4370185.48145  22432052.830    22432052.141    22432075.637
       198.000         137.000
 -18450699.08249 -14363934.65047  19434409.581    19434408.876    19434418.171
       242.000         204.000
 -12437922.23149  -9679332.88945  22063458.733    22063457.987    22063471.434
       204.000         148.000
 00  4 27 18  2 29.9920000  0  9G 2G30G 4G24G 5G 7G10G 9G16
   6896664.05549   5374455.26845  22445812.824    22445810.382    22445832.090
       208.000         141.000
  -6914197.66049  -5351649.90845  21891979.351    21891979.530    21891991.197
       213.000         153.000
 -21632174.28749 -16835683.72947  18433172.528    18433172.311    18433180.183
       241.000         204.000
 -35145870.70349 -27030491.32047  18003301.263    18003300.850    18003310.058
       237.000         201.000
 -30664216.69249 -23870876.13647  18977873.682    18977872.930    18977881.890
       236.000         196.000
   4663742.37749   3635133.05146  21169093.363    21169091.871    21169103.703
       221.000         172.000
  -5788466.94449  -4478137.21745  22405689.456    22405688.722    22405712.423
       197.000         136.000
 -18433926.29849 -14350865.03247  19437601.394    19437600.689    19437609.998
       242.000         203.000
 -12457708.35149  -9694750.62145  22059693.847    22059692.847    22059706.188
       207.000         149.000
 00  4 27 18  2 59.9920000  0  9G 2G30G 4G24G 5G 7G10G 9G16
   6951505.03649   5417188.00845  22456249.078    22456246.621    22456268.592
       208.000         141.000
  -7054757.34449  -5461176.85045  21865231.588    21865231.782    21865243.519
       215.000         154.000
 -21620644.11749 -16826699.21547  18435366.754    18435366.485    18435374.361
       242.000         205.000
 -35215782.31949 -27084967.87947  17989997.583    17989997.103    17990006.287
       236.000         201.000
 -30770244.27149 -23953495.02747  18957697.341    18957696.555    18957705.499
       236.000         196.000
   4690271.43649   3655804.86146  21174141.775    21174140.356    21174152.223
       223.000         174.000
  -5927119.66149  -4586178.01945  22379304.392    22379303.820    22379327.462
       203.000         137.000
 -18416730.35549 -14337465.67447  19440873.741    19440873.047    19440882.368
       242.000         203.000
 -12476964.54549  -9709755.42045  22056029.672    22056028.616    22056041.820
       206.000         148.000
 00  4 27 18  3 29.9920000  0  9G 2G30G 4G24G 5G 7G10G 9G16
   7006484.87549   5460029.02945  22466711.754    22466709.388    22466731.403
       203.000         141.000
  -7195318.19849  -5570704.69245  21838483.723    21838483.788    21838495.617
       216.000         153.000
 -21608659.00949 -16817360.20547  18437647.559    18437647.236    18437655.084
       242.000         205.000
 -35285169.17149 -27139035.52747  17976793.681    17976793.203    17976802.369
       236.000         201.000
 -30876043.74849 -24035936.18147  18937564.403    18937563.586    18937572.523
       236.000         197.000
   4716826.85449   3676497.18546  21179195.226    21179193.840    21179205.727
       222.000         173.000
  -6065918.16449  -4694332.51945  22352891.696    22352891.140    22352914.745
       204.000         140.000
 -18399131.29649 -14323752.20547  19444222.774    19444222.072    19444231.434
       242.000         203.000
 -12495695.83049  -9724351.18345  22052465.307    22052464.226    22052477.363
       208.000         149.000
 00  4 27 18  3 59.9920000  0  9G 2G30G 4G24G 5G 7G10G 9G16
   7061628.77449   5502997.76645  22477205.660    22477203.334    22477225.561
       205.000         147.000
  -7335862.45249  -5680219.64245  21811738.910    21811738.985    21811750.853
       217.000         153.000
 -21596215.91149 -16807664.32647  18440015.441    18440015.130    18440022.963
       242.000         205.000
 -35354011.62049 -27192678.96647  17963693.346    17963692.893    17963702.084
       236.000         201.000
 -30981581.29949 -24118173.22547  18917481.312    18917480.476    18917489.407
       237.000         196.000
   4743419.17349   3697218.28846  21184255.760    21184254.354    21184266.257
       221.000         172.000
  -6204850.94849  -4802591.61345  22326453.552    22326452.910    22326476.390
       200.000         139.000
 -18381138.10349 -14309731.62547  19447646.846    19447646.124    19447655.503
       241.000         203.000
 -12513889.10449  -9738527.73245  22049003.462    22049002.273    22049015.242
       207.000         151.000
 00  4 27 18  4 29.9920000  0  9G 2G30G 4G24G 5G 7G10G 9G16
   7116937.97449   5546095.31045  22487730.940    22487728.676    22487751.023
       199.000         140.000
  -7476389.72849  -5789721.34445  21784997.376    21784997.413    21785009.348
       217.000         155.000
 -21583315.26749 -16797611.92047  18442470.360    18442470.067    18442477.898
       241.000         204.000
 -35422304.47149 -27245894.15747  17950697.663    17950697.191    17950706.379
       236.000         201.000
 -31086843.66049 -24200195.84447  18897450.580    18897449.710    18897458.670
       237.000         197.000
   4770047.40049   3717967.34446  21189323.144    21189321.678    21189333.631
       221.000         170.000
  -6343921.79449  -4910958.24345  22299989.143    22299988.338    22300011.965
       199.000         136.000
 -18362754.88849 -14295407.13847  19451145.126    19451144.411    19451153.771
       241.000         202.000
 -12531558.06349  -9752295.68545  22045641.137    22045639.959    22045652.994
       204.000         150.000
 00  4 27 18  4 59.9920000  0  9G 2G30G 4G24G 5G 7G10G 9G16
   7172402.04749   5589313.41945  22498285.545    22498283.552    22498306.036
       201.000         136.000
  -7616895.12649  -5899206.00645  21758260.072    21758260.069    21758271.990
       216.000         158.000
 -21569970.41349 -16787213.37647  18445009.794    18445009.528    18445017.376
       240.000         204.000
 -35490058.85149 -27298689.74647  17937804.419    17937803.934    17937813.139
       235.000         200.000
 -31191815.54349 -24281992.11947  18877475.034    18877474.229    18877483.189
       237.000         196.000
   4796716.26949   3738748.08546  21194398.186    21194396.738    21194408.730
       220.000         171.000
  -6483124.51949  -5019427.59245  22273499.565    22273498.866    22273522.494
       198.000         137.000
 -18343976.85949 -14280774.99347  19454718.500    19454717.804    19454727.202
       240.000         202.000
 -12548703.15049  -9765655.47045  22042378.414    22042377.339    22042390.350
       200.000         149.000
 00  4 27 18  5 29.9920000  0  8G30G 4G24G 5G 7G10G 9G16
  -7757380.14049  -6008674.79145  21731526.571    21731526.615    21731538.519
       217.000         158.000
 -21556192.05549 -16776477.03947  18447631.659    18447631.443    18447639.316
       241.000         203.000
 -35557300.35549 -27351085.71047  17925008.710    17925008.273    17925017.468
       235.000         199.000
 -31296500.94049 -24363565.15247  18857554.089    18857553.252    18857562.230
       238.000         197.000
   4823413.00149   3759550.54546  21199478.575    21199477.121    21199489.147
       220.000         170.000
  -6622440.12449  -5127984.93245  22246988.414    22246987.882    22247011.441
       206.000         140.000
 -18324804.22949 -14265835.37947  19458366.989    19458366.298    19458375.711
       241.000         202.000
 -12565331.31749  -9778612.47945  22039214.046    22039213.108    22039226.141
       197.000         147.000
 00  4 27 18  5 59.9920000  0  8G30G 4G24G 5G 7G10G 9G16
  -7897854.69349  -6118135.40545  21704795.143    21704795.133    21704807.017
       217.000         159.000
 -21541983.70549 -16765405.64247  18450335.394    18450335.186    18450343.093
       241.000         203.000
 -35624048.67849 -27403097.37747  17912306.922    17912306.478    17912315.631
       236.000         200.000
 -31400920.94149 -24444931.37047  18837683.619    18837682.789    18837691.777
       237.000         197.000
   4850119.96849   3780360.97046  21204560.762    21204559.398    21204571.509
       221.000         170.000
  -6761853.20549  -5236618.27145  22220458.877    22220458.269    22220481.888
       206.000         140.000
 -18305239.35449 -14250590.11547  19462090.108    19462089.421    19462098.868
       240.000         202.000
 -12581454.72049  -9791176.17645  22036145.832    22036144.863    22036158.028
       205.000         150.000
 00  4 27 18  6 29.9920000  0  8G30G 4G24G 5G 7G10G 9G16
  -8038314.24749  -6227584.34545  21678066.637    21678066.602    21678078.378
       219.000         158.000
 -21527331.82749 -16753988.63847  18453123.584    18453123.373    18453131.255
       241.000         204.000
 -35690309.71249 -27454729.34047  17899697.886    17899697.436    17899706.518
       235.000         200.000
 -31505089.36949 -24526101.56647  18817861.030    18817860.192    18817869.170
       238.000         198.000
   4876849.76249   3801189.17846  21209647.354    21209646.022    21209658.207
       220.000         170.000
  -6901347.09949  -5345314.57845  22193914.103    22193913.448    22193936.658
       201.000         135.000
 -18285254.01949 -14235017.22647  19465893.260    19465892.579    19465902.023
       241.000         202.000
 -12597059.94949  -9803336.07745  22033176.272    22033175.280    22033188.477
       203.000         154.000
 00  4 27 18  6 59.9920000  0  8G30G 4G24G 5G 7G10G 9G16
  -8178769.79649  -6337030.16545  21651338.790    21651338.779    21651350.442
       217.000         156.000
 -21512251.50149 -16742237.77147  18455993.310    18455993.098    18456000.978
       241.000         204.000
 -35756114.15549 -27506005.51447  17887175.709    17887175.240    17887184.322
       235.000         200.000
 -31609012.10849 -24607080.30847  18798085.228    18798084.366    18798093.329
       238.000         197.000
   4903589.05049   3822024.77046  21214735.771    21214734.459    21214746.752
       221.000         171.000
  -7040920.01649  -5454072.40545  22167354.079    22167353.358    22167376.516
       202.000         134.000
 -18264858.58749 -14219124.77547  19469774.480    19469773.765    19469783.235
       241.000         202.000
 -12612148.67849  -9815093.51545  22030304.950    22030303.993    22030317.217
       206.000         155.000
 00  4 27 18  7 29.9920000  0  8G30G 4G24G 5G 7G10G 9G16
  -8319224.32349  -6446475.18245  21624611.179    21624611.177    21624622.740
       218.000         156.000
 -21496733.30349 -16730145.71447  18458946.425    18458946.163    18458954.049
       242.000         205.000
 -35821440.81249 -27556909.39147  17874744.467    17874743.981    17874753.086
       235.000         201.000
 -31712690.73049 -24687868.82847  18778355.907    18778355.002    18778363.941
       238.000         197.000
   4930342.05949   3842871.05646  21219826.936    21219825.569    21219837.913
       221.000         172.000
  -7180568.90749  -5562889.43245  22140779.539    22140778.865    22140802.006
       203.000         141.000
 -18244066.42449 -14202923.17647  19473731.139    19473730.444    19473739.944
       241.000         202.000
 -12626706.70949  -9826437.42845  22027534.595    22027533.655    22027546.960
       210.000         157.000
 00  4 27 18  7 59.9920000  0  8G30G 4G24G 5G 7G10G 9G16
  -8459680.19549  -6555921.26545  21597883.362    21597883.281    21597894.786
       217.000         155.000
 -21480781.26549 -16717715.60047  18461982.113    18461981.805    18461989.698
       242.000         205.000
 -35886273.08649 -27607428.03247  17862407.339    17862406.822    17862415.948
       235.000         201.000
 -31816118.52949 -24768461.90147  18758674.257    18758673.343    18758682.286
       238.000         198.000
   4957106.99749   3863726.65346  21224920.431    21224918.916    21224931.323
       222.000         172.000
  -7320297.22849  -5671768.40445  22114190.013    22114189.282    22114212.363
       206.000         143.000
 -18222873.48749 -14186409.28947  19477764.112    19477763.397    19477772.934
       241.000         202.000
 -12640727.71749  -9837362.86045  22024866.425    22024865.545    22024878.912
       209.000         155.000
 00  4 27 18  8 29.9910000  0  8G30G 4G24G 5G 7G10G 9G16
  -8600134.61849  -6665366.19245  21571155.561    21571155.577    21571167.120
       214.000         154.000
 -21464394.03649 -16704946.38447  18465100.552    18465100.245    18465108.168
       241.000         205.000
 -35950608.74049 -27657559.69047  17850164.628    17850164.128    17850173.298
       234.000         199.000
 -31919274.44349 -24848843.11447  18739044.261    18739043.393    18739052.355
       238.000         198.000
   4983886.94449   3884593.93346  21230016.672    21230015.149    21230027.615
       221.000         172.000
  -7460114.11849  -5780716.36245  22087583.615    22087582.880    22087605.894
       196.000         135.000
 -18201283.94849 -14169586.36847  19481872.551    19481871.820    19481881.371
       241.000         202.000
 -12654208.69849  -9847867.48345  22022301.012    22022300.155    22022313.595
       210.000         152.000
 00  4 27 18  8 59.9910000  0  8G30G 4G24G 5G 7G10G 9G16
  -8740593.00949  -6774814.22145  21544427.118    21544427.162    21544438.679
       217.000         159.000
 -21447574.33549 -16691840.17347  18468301.282    18468300.962    18468308.930
       241.000         205.000
 -36014433.40749 -27707293.18047  17838019.116    17838018.661    17838027.838
       234.000         199.000
 -32022153.36749 -24929008.50147  18719467.030    18719466.171    18719475.142
       238.000         198.000
   5010677.04049   3905469.11446  21235114.773    21235113.300    21235125.847
       220.000         173.000
  -7600035.84349  -5889745.94145  22060956.984    22060956.492    22060979.430
       202.000         134.000
 -18179317.05749 -14152469.40947  19486052.781    19486052.038    19486061.611
       241.000         201.000
 -12667167.27049  -9857965.01345  22019835.030    22019834.189    22019847.689
       206.000         150.000
 00  4 27 18  9 29.9910000  0  8G30G 4G24G 5G 7G10G 9G16
  -8881030.39149  -6884245.89545  21517702.753    21517702.800    21517714.297
       219.000         161.000
 -21430313.98649 -16678390.60147  18471585.815    18471585.511    18471593.515
       241.000         204.000
 -36077708.18649 -27756598.18847  17825978.304    17825977.862    17825987.012
       234.000         199.000
 -32124753.44149 -25008956.58647  18699942.856    18699942.021    18699950.987
       237.000         198.000
   5037478.03549   3926352.81446  21240215.007    21240213.543    21240226.136
       221.000         173.000
  -7740064.50649  -5998858.95445  22034310.172    22034309.632    22034332.708
       204.000         141.000
 -18156964.34649 -14135051.82047  19490306.443    19490305.674    19490315.263
       240.000         201.000
 -12679603.59349  -9867655.61645  22017468.324    22017467.589    22017481.147
       205.000         147.000
 00  4 27 18  9 59.9910000  0  8G30G 4G24G 5G 7G10G 9G16
  -9021444.54349  -6993659.44645  21490982.782    21490982.785    21490994.295
       220.000         160.000
 -21412627.80749 -16664609.21747  18474951.363    18474951.105    18474959.124
       241.000         204.000
 -36140447.82749 -27805486.20547  17814039.387    17814038.916    17814048.011
       235.000         199.000
 -32227080.01949 -25088691.55247  18680470.764    18680469.906    18680478.870
       238.000         198.000
   5064260.56549   3947222.12446  21245311.754    21245310.251    21245322.892
       221.000         172.000
  -7880213.42848  -6108065.60345  22007640.477    22007639.929    22007663.038
       194.000         138.000
 -18134228.74649 -14117335.87347  19494632.947    19494632.206    19494641.769
       240.000         201.000
 -12691549.92949  -9876964.41145  22015194.758    22015194.176    22015207.820
       201.000         146.000
 00  4 27 18 10 29.9910000  0  8G30G 4G24G 5G 7G10G 9G16
  -9161803.89749  -7103030.31145  21464273.173    21464273.235    21464284.712
       216.000         157.000
 -21394496.22349 -16650480.76947  18478401.643    18478401.428    18478409.456
       241.000         204.000
 -36202623.10449 -27853934.45947  17802207.810    17802207.346    17802216.419
       234.000         199.000
 -32329115.02249 -25168199.31947  18661054.158    18661053.284    18661062.242
       239.000         199.000
   5091038.71549   3968087.98846  21250407.663    21250406.113    21250418.801
       220.000         169.000
  -8020458.71849  -6217347.26645  21980952.351    21980951.809    21980974.911
       195.000         137.000
 -18111099.44549 -14099313.14847  19499034.398    19499033.648    19499043.213
       240.000         201.000
 -12702997.82849  -9885884.83245  22013016.216    22013015.595    22013029.399
       203.000         148.000
 00  4 27 18 10 59.9910000  0  8G30G 4G24G 5G 7G10G 9G16
  -9302098.78949  -7212350.93645  21437575.886    21437575.929    21437587.367
       214.000         156.000
 -21375934.09749 -16636016.83547  18481933.972    18481933.729    18481941.732
       242.000         204.000
 -36264225.14849 -27901936.03447  17790485.279    17790484.837    17790493.936
       233.000         199.000
 -32430857.47149 -25247479.12347  18641693.190    18641692.344    18641701.272
       239.000         199.000
   5117815.54849   3988952.83046  21255503.280    21255501.706    21255514.483
       219.000         168.000
  -8160783.75849  -6326691.18645  21954249.120    21954248.567    21954271.806
       203.000         139.000
 -18087592.26449 -14080995.96447  19503507.746    19503507.000    19503516.577
       240.000         201.000
 -12713953.90449  -9894421.99845  22010931.426    22010930.695    22010944.497
       207.000         151.000
 00  4 27 18 11 29.9910000  0  8G30G 4G24G 5G 7G10G 9G16
  -9442327.51649  -7321619.98545  21410891.097    21410891.232    21410902.654
       217.000         159.000
 -21356960.55849 -16621232.32747  18485544.657    18485544.347    18485552.302
       243.000         205.000
 -36325273.30649 -27949506.00447  17778868.068    17778867.713    17778876.849
       234.000         199.000
 -32532298.58149 -25326524.12547  18622389.556    18622388.742    18622397.643
       239.000         198.000
   5144597.02049   4009821.31146  21260599.703    21260598.195    21260611.021
       220.000         169.000
  -8301175.92649  -6436087.44345  21927533.158    21927532.707    21927555.666
       203.000         139.000
 -18063699.52449 -14062378.34347  19508054.511    19508053.714    19508063.336
       240.000         200.000
 -12724398.22749  -9902560.40345  22008944.073    22008943.226    22008956.992
       205.000         151.000
 00  4 27 18 11 59.9910000  0  8G30G 4G24G 5G 7G10G 9G16
  -9582502.10049  -7430846.86546  21384216.806    21384216.873    21384228.251
       221.000         163.000
 -21337589.32749 -16606137.92847  18489231.003    18489230.646    18489238.566
       242.000         205.000
 -36385800.36449 -27996669.92547  17767350.173    17767349.774    17767358.949
       233.000         199.000
 -32633444.12749 -25405338.82047  18603142.183    18603141.371    18603150.277
       238.000         198.000
   5171395.13249   4030702.73346  21265699.394    21265697.857    21265710.757
       222.000         170.000
  -8441612.55349  -6545518.20545  21900808.691    21900808.245    21900831.212
       201.000         140.000
 -18039440.41549 -14043475.24247  19512670.908    19512670.128    19512679.803
       238.000         200.000
 -12734340.31849  -9910307.45645  22007052.208    22007051.348    22007065.029
       209.000         153.000
 00  4 27 18 12 29.9910000  0  8G30G 4G24G 5G 7G10G 9G16
  -9722635.88549  -7540041.96946  21357550.188    21357550.288    21357561.589
       221.000         164.000
 -21317834.54249 -16590744.65047  18492990.270    18492989.918    18492997.836
       242.000         205.000
 -36445825.64449 -28043442.84547  17755927.759    17755927.333    17755936.526
       234.000         199.000
 -32734310.25649 -25483935.78447  18583947.964    18583947.158    18583956.085
       238.000         198.000
   5198230.58349   4051613.26046  21270806.235    21270804.675    21270817.605
       221.000         171.000
  -8582082.07949  -6654974.65945  21874078.119    21874077.639    21874100.549
       210.000         147.000
 -18014823.66649 -14024293.45847  19517355.415    19517354.622    19517364.303
       239.000         199.000
 -12743770.44449  -9917655.57945  22005257.591    22005256.807    22005270.557
       205.000         152.000
